GFSCGP_925_thetae_003.txt.gz
Theta_e
321 322 322 321 320 319 319 319 319 320 320 320 322 320 321 322 322 322 321 321 321 321 326 328 325 324 325 328 326 326 325 323 321 320 318 316 316 316 316 316 316 316 315 314
319 321 319 320 320 320 320 320 321 320 319 321 323 321 321 321 322 322 321 322 323 324 324 323 322 323 324 327 327 325 322 318 317 316 316 315 315 315 315 315 313 313 312 312
321 320 319 320 321 322 321 321 323 322 321 320 322 323 321 320 321 320 321 321 321 321 321 322 322 323 323 322 321 319 318 316 315 314 314 314 314 313 313 313 312 312 311 310
320 320 320 321 322 322 323 320 321 321 322 324 322 324 323 321 320 320 321 321 320 320 319 319 320 320 320 319 317 316 315 314 313 313 313 313 312 312 312 312 311 310 308 307
321 321 322 323 321 321 324 322 322 322 323 323 323 322 324 321 321 320 320 319 319 319 320 320 319 318 318 317 317 316 315 313 313 312 311 312 312 313 312 311 309 307 306 306
321 320 322 322 321 321 322 323 323 325 325 326 325 323 326 324 322 320 320 320 320 319 319 318 317 317 317 317 316 315 314 313 313 312 312 313 312 311 309 308 307 306 305 304
322 322 322 321 323 323 322 324 329 330 329 329 323 321 325 321 320 320 320 320 320 320 319 318 318 317 317 316 315 314 313 313 313 313 311 309 308 308 308 307 306 304 303 303
324 327 322 320 322 322 322 324 330 326 327 325 322 320 324 320 319 318 318 318 318 319 319 318 317 317 316 316 315 315 314 313 312 311 310 310 309 308 306 305 303 302 302 302
324 324 320 320 321 321 323 324 321 326 324 327 321 321 322 320 319 318 318 318 318 318 318 317 316 316 315 315 315 314 313 313 312 311 310 309 307 305 304 303 302 301 301 300
320 325 319 319 320 321 323 321 326 322 327 319 318 317 323 321 320 319 318 318 318 318 317 317 316 316 315 314 314 313 313 312 312 310 308 306 305 304 302 301 301 300 300 299
318 320 321 319 322 323 323 324 321 318 320 322 321 320 320 319 318 317 317 317 317 317 318 317 316 315 314 314 314 313 313 312 309 307 304 303 303 302 301 300 300 299 299 298
319 320 320 318 320 321 321 321 319 319 318 319 321 322 319 318 317 317 318 317 317 317 317 316 314 314 313 313 312 312 310 307 306 304 303 302 301 301 300 300 298 297 297 297
320 323 321 320 322 321 320 320 318 319 318 321 327 322 319 319 318 316 317 317 316 316 315 315 314 314 313 312 310 309 307 305 304 303 301 301 300 299 299 297 296 296 295 295
318 320 319 319 317 316 316 316 315 317 321 321 321 320 318 317 317 316 316 316 315 315 314 314 312 311 310 307 306 307 306 305 304 302 300 299 298 297 296 295 295 294 293 292
320 320 320 318 316 315 316 316 316 316 317 320 320 319 318 317 317 316 316 315 315 314 314 312 311 308 306 305 305 304 305 304 303 301 300 298 296 295 295 294 293 292 291 290
319 322 319 318 316 315 316 315 315 316 317 317 317 317 317 316 316 316 315 315 314 313 312 310 307 305 305 304 303 303 304 302 301 301 299 297 295 295 294 292 291 290 290 289
321 321 320 322 319 318 323 319 316 316 316 317 319 317 315 316 316 314 313 314 313 311 308 308 306 304 303 302 301 302 302 301 300 299 298 296 295 294 293 292 290 290 289 289
322 320 321 323 320 327 319 316 315 315 315 315 315 316 316 315 315 313 312 311 309 308 307 305 304 302 300 299 300 301 301 300 299 298 297 296 295 294 293 291 290 289 289 289
319 321 320 323 320 318 317 315 315 315 316 315 317 317 316 315 314 313 311 309 307 306 304 303 301 299 298 298 299 300 299 299 299 298 297 296 295 294 292 291 290 289 289 289
317 319 322 321 321 322 319 316 314 315 318 317 316 316 314 313 315 312 308 306 305 303 301 300 300 299 298 297 297 297 298 298 298 296 295 294 294 293 292 291 290 289 289 289
317 317 322 319 321 318 315 314 314 318 320 317 314 313 312 312 310 308 306 304 301 300 300 299 298 297 297 296 296 296 296 297 296 294 294 294 293 293 291 290 289 289 289 288
319 321 318 319 320 319 314 314 318 317 315 314 312 312 311 309 307 305 303 301 300 300 299 298 297 296 295 295 295 295 295 296 295 294 293 293 292 291 290 289 289 289 288 288
318 318 319 318 318 315 315 315 316 314 314 312 311 309 308 307 304 302 301 300 300 298 297 296 295 295 294 294 294 294 295 296 294 293 293 292 291 290 289 289 288 288 287 287
316 316 319 318 315 314 314 315 314 313 312 310 309 309 306 304 302 301 300 300 298 297 296 295 295 294 294 294 294 293 294 294 293 292 291 290 290 290 289 288 288 287 286 285
318 317 317 318 316 315 314 313 313 312 310 309 308 306 303 301 301 301 300 298 297 296 295 295 295 294 294 294 293 293 292 291 291 290 290 289 289 289 289 288 287 286 285 282
316 316 320 320 315 315 314 312 312 311 310 308 305 303 301 301 301 299 298 296 296 295 295 295 294 294 294 294 293 292 291 290 289 289 289 289 289 288 288 287 286 285 283 281

GFSCGP_925_thetae_006.txt.gz
Theta_e
320 322 323 321 320 319 319 319 319 321 320 319 320 321 321 322 322 322 322 322 323 324 327 327 325 325 326 327 326 326 324 323 322 322 319 317 316 316 316 316 314 313 313 313
318 322 320 320 319 320 319 320 320 321 320 319 321 320 321 321 322 322 322 323 325 326 325 324 324 325 327 326 325 324 322 319 317 317 316 315 315 315 314 314 313 313 312 311
323 320 319 319 322 321 322 321 324 322 322 321 320 322 321 321 321 321 322 322 323 323 323 323 324 323 322 321 320 318 317 315 314 315 314 314 314 313 313 313 313 312 312 311
321 319 321 321 323 322 322 323 321 321 321 322 321 322 322 321 321 321 321 322 321 320 321 321 322 321 319 318 317 316 315 314 313 313 313 313 313 313 314 314 313 311 309 307
322 322 323 323 322 321 324 322 321 322 322 322 322 324 325 322 321 321 321 320 321 321 321 320 320 319 318 318 317 316 315 314 314 313 312 313 314 313 312 310 310 308 307 305
321 320 322 322 321 321 322 324 323 324 325 332 323 325 326 323 322 321 321 321 320 320 320 319 318 318 318 317 316 315 314 314 314 314 314 312 309 309 309 309 308 305 304 303
323 322 322 321 324 324 322 325 334 338 337 335 325 322 326 322 321 321 321 320 321 321 321 320 319 318 317 316 316 316 316 315 314 313 312 311 310 309 308 306 305 303 302 303
325 327 322 321 322 321 323 323 336 330 334 330 322 320 323 321 320 319 319 319 319 320 320 319 317 317 316 316 316 316 315 314 314 313 312 311 308 306 306 304 302 302 302 301
325 324 321 319 320 320 324 324 320 326 326 330 321 324 321 320 319 319 318 318 319 319 318 317 317 317 316 316 315 314 314 314 313 312 309 307 305 305 304 302 301 301 301 300
319 325 319 318 321 322 321 320 325 330 330 323 319 321 324 322 320 319 318 318 318 319 318 318 317 316 315 314 314 314 313 313 311 308 306 305 304 304 303 301 301 300 299 298
319 322 321 320 322 321 323 323 321 319 324 325 325 321 318 320 319 318 318 318 318 318 318 317 316 315 314 313 313 312 310 309 308 307 305 304 303 302 301 301 299 298 297 296
318 320 327 320 319 319 320 321 319 328 322 326 325 320 319 319 319 318 318 317 318 318 316 315 314 313 312 311 311 310 309 308 307 305 304 303 302 300 299 299 298 296 296 296
320 325 328 323 323 320 319 320 318 321 322 321 328 324 320 320 319 318 317 317 316 316 315 314 313 312 311 309 308 307 307 307 306 305 304 302 300 299 298 297 296 295 294 294
319 320 320 323 318 317 317 316 316 316 327 323 323 319 319 320 318 317 316 316 315 314 314 313 312 310 308 306 306 306 305 305 305 304 303 302 300 297 296 296 294 293 292 291
320 322 320 318 316 316 316 316 316 316 317 319 319 317 318 318 317 316 315 315 315 314 313 311 310 309 307 305 305 303 303 304 304 303 302 301 300 297 296 295 293 292 291 290
320 325 321 320 317 316 316 315 315 315 315 316 317 317 317 317 316 316 315 314 314 313 310 308 308 306 305 304 302 301 301 302 303 302 301 300 299 297 296 295 293 292 291 290
323 325 323 325 319 319 325 321 317 316 316 316 319 317 317 317 316 315 314 314 311 309 308 307 305 304 302 300 299 299 299 299 301 301 300 299 297 296 295 295 293 292 290 290
322 322 322 323 321 327 319 316 316 316 316 315 315 316 317 316 314 313 312 310 308 307 306 305 303 301 301 300 299 298 297 297 298 298 299 298 297 296 296 295 293 292 290 290
320 323 318 325 321 318 317 317 316 316 317 315 318 317 316 314 313 312 309 307 306 305 303 302 301 300 299 298 297 297 296 296 297 297 297 296 295 295 294 294 293 291 290 290
319 322 325 319 320 320 319 316 315 315 319 318 317 316 314 313 314 312 309 306 304 302 301 300 299 299 297 297 296 296 295 295 295 296 296 294 294 294 294 293 292 290 290 289
316 318 320 320 319 319 315 315 314 318 320 317 316 314 313 313 311 309 307 304 301 301 300 299 298 297 296 295 295 295 295 294 296 295 295 294 293 293 292 292 290 290 289 289
317 320 317 319 319 319 315 314 317 319 317 315 314 312 312 310 309 307 304 302 301 300 299 298 297 296 295 295 295 295 294 294 295 295 294 294 293 292 291 290 289 289 288 287
321 322 323 320 320 318 316 316 316 315 316 313 312 310 309 309 307 304 302 301 300 299 298 297 296 295 295 295 295 295 294 294 293 293 292 292 291 291 290 289 289 288 287 286
316 315 324 321 317 315 316 315 315 314 313 311 310 309 309 306 304 302 301 301 299 298 297 296 295 295 295 295 295 294 294 293 293 292 291 291 290 289 289 289 288 287 286 285
320 317 318 319 317 316 315 314 314 312 311 310 309 308 305 303 302 301 300 299 298 297 296 295 295 295 295 294 294 294 292 292 291 291 290 289 289 289 289 288 287 286 285 284
317 316 319 320 317 317 316 312 310 310 310 309 307 304 302 302 301 299 298 297 296 295 295 295 294 294 294 294 294 293 292 291 290 289 289 289 288 288 288 288 287 286 285 284

GFSCGP_925_thetae_009.txt.gz
Theta_e
319 318 318 318 318 318 318 317 318 317 318 318 317 317 318 318 316 315 316 323 323 323 323 325 324 325 328 330 329 328 326 323 322 322 317 315 315 315 314 313 313 313 313 312
317 318 318 318 320 319 319 321 321 318 318 316 316 318 317 318 317 318 317 320 321 322 322 322 319 319 323 322 319 316 316 315 315 315 314 314 315 314 314 314 313 313 312 312
319 318 318 319 320 321 320 321 320 320 318 317 319 318 318 318 318 318 317 316 318 320 321 320 318 317 316 316 315 315 314 314 314 314 314 313 313 313 313 313 313 310 309 307
318 319 321 321 321 319 324 321 321 320 319 319 315 319 318 319 319 319 318 317 317 317 319 319 317 317 317 316 315 314 314 314 313 313 313 312 313 314 313 311 309 309 305 304
320 320 321 322 320 320 323 321 321 321 320 320 320 320 319 320 320 318 316 316 315 315 315 316 317 317 317 316 316 315 314 314 314 313 313 312 312 309 309 310 306 305 304 302
319 319 319 319 321 320 320 322 323 322 321 323 323 323 324 323 320 319 318 317 316 314 314 316 318 317 317 316 316 315 315 315 314 314 313 311 310 309 307 306 305 304 302 302
321 321 320 320 321 321 320 323 324 325 323 324 326 325 322 320 319 319 319 317 316 315 314 313 316 317 316 316 316 316 316 315 314 313 312 310 307 306 305 304 303 302 302 301
324 324 319 319 319 320 321 322 319 329 325 323 316 323 320 317 316 316 316 316 316 315 314 313 315 316 316 316 315 315 314 314 313 311 308 306 305 305 305 303 301 301 301 300
325 322 319 317 318 319 323 319 318 322 322 319 320 320 318 317 317 316 316 315 315 314 313 313 316 314 314 313 313 313 313 311 309 307 305 305 304 304 304 302 301 300 298 297
318 322 318 317 319 320 318 318 321 318 321 321 318 324 324 321 320 317 315 315 314 314 313 313 313 312 311 311 311 310 309 308 307 306 305 304 303 302 301 301 299 298 296 295
319 322 319 319 318 320 320 322 319 318 316 319 318 318 319 319 318 317 316 315 314 313 311 311 311 311 310 310 309 308 307 307 307 307 305 304 303 301 300 299 298 297 296 295
317 318 316 320 318 318 319 319 319 315 320 315 314 315 317 317 316 315 315 315 313 311 310 310 311 310 308 307 306 305 306 307 307 306 305 304 302 300 300 298 297 296 295 294
319 319 318 322 321 319 318 317 320 319 312 315 310 315 318 318 318 317 315 313 312 311 310 309 309 309 308 306 305 305 304 304 304 305 305 304 302 300 299 297 296 294 293 292
318 319 317 318 317 315 315 315 315 318 315 317 316 317 315 318 317 314 313 312 310 310 309 307 307 307 305 305 304 303 301 300 301 304 303 302 302 301 298 296 294 293 292 291
318 320 319 317 316 315 315 315 314 314 314 314 314 318 318 316 316 314 313 312 311 309 308 306 304 305 304 303 300 299 299 298 298 300 300 301 301 299 297 295 294 293 292 291
319 318 317 317 317 315 315 314 314 313 314 314 315 316 315 314 313 313 312 311 309 307 306 305 304 304 302 300 299 299 297 296 296 296 296 298 299 298 297 296 296 294 291 290
320 313 312 318 316 315 313 316 317 316 315 315 314 316 314 313 312 311 309 308 306 305 304 304 303 302 300 299 298 296 295 295 295 295 297 297 298 297 296 295 295 293 292 290
315 315 310 309 307 310 318 314 314 315 314 313 316 315 313 311 309 307 306 305 305 305 304 303 302 299 298 297 296 295 295 295 295 295 296 296 295 294 295 294 293 292 291 290
318 310 306 311 312 312 315 316 315 314 314 316 316 314 312 311 310 307 306 305 305 303 301 300 298 297 296 295 295 295 294 294 294 295 295 295 294 294 294 293 293 292 290 289
316 310 308 310 307 307 313 315 314 314 312 316 314 313 312 310 306 308 307 305 301 301 300 298 297 296 295 295 295 295 294 294 295 295 295 294 294 293 293 292 292 290 289 289
307 306 306 313 303 310 313 314 313 314 311 315 313 312 312 310 307 307 306 302 301 300 299 297 296 295 295 295 295 295 294 294 294 293 293 293 293 293 292 291 289 289 288 287
309 308 311 311 308 310 313 313 311 311 314 313 311 310 310 309 308 308 302 300 300 299 297 296 295 295 295 295 295 294 294 293 293 293 292 292 291 290 290 289 289 288 287 286
314 312 311 311 310 310 313 312 312 312 313 310 311 310 309 308 308 303 300 300 299 297 296 295 295 295 295 294 294 294 293 292 292 292 291 290 290 290 289 289 288 287 286 285
314 314 310 313 315 315 312 314 313 312 310 309 308 309 309 308 303 301 299 297 296 295 294 294 294 294 294 294 294 294 293 292 291 291 290 289 289 289 289 288 287 286 285 284
311 314 314 311 315 314 313 312 311 310 310 309 309 309 307 302 300 298 296 295 294 294 294 293 294 293 294 294 293 293 293 292 291 290 289 288 288 288 288 287 286 285 284 284
315 313 311 310 313 313 312 310 310 310 310 310 308 302 301 299 296 295 294 294 294 293 293 293 293 293 293 293 292 292 292 291 291 290 288 287 287 287 287 286 286 285 284 284

GFSCGP_925_thetae_012.txt.gz
Theta_e
317 316 315 317 316 316 317 316 316 316 317 316 315 315 316 315 318 321 323 323 321 318 318 321 323 327 326 325 325 325 327 326 322 317 318 315 315 314 313 312 312 313 313 311
315 316 317 318 319 319 320 319 318 318 317 314 314 316 315 317 316 320 322 322 320 318 317 317 319 321 320 321 324 319 317 318 315 316 315 315 314 313 313 313 312 310 307 306
317 317 317 319 318 320 320 319 319 319 317 315 316 316 317 317 317 317 316 319 319 318 316 315 315 315 315 315 314 313 314 314 314 313 313 313 313 313 313 312 310 308 306 304
317 319 320 319 319 319 323 320 319 319 317 316 314 317 317 318 318 318 318 318 318 318 316 315 314 314 314 314 314 314 314 314 314 313 314 314 313 313 310 309 308 305 304 302
320 319 319 319 319 319 321 320 320 319 318 319 318 317 317 318 318 317 316 317 316 315 315 314 315 315 315 315 314 314 314 313 313 313 313 313 312 309 309 307 305 304 302 301
318 318 318 319 319 319 318 321 321 320 319 321 322 320 320 320 318 318 316 315 315 313 313 314 315 316 315 315 315 314 315 313 313 313 313 311 309 308 306 304 303 302 301 301
319 319 318 318 320 319 318 321 321 324 321 322 323 322 321 318 318 318 317 315 313 312 313 313 315 315 315 314 315 315 313 312 312 311 308 306 305 305 304 303 302 302 301 300
321 321 317 317 318 319 320 319 318 328 321 319 319 323 319 317 317 317 317 315 314 313 312 312 312 313 313 312 312 312 310 307 307 305 305 306 305 304 304 303 302 301 300 298
321 320 318 316 317 319 320 317 317 319 316 316 319 319 317 316 316 316 316 317 315 311 310 311 310 311 311 311 310 310 309 309 308 308 307 305 304 303 302 302 301 300 299 297
318 319 317 317 319 318 315 316 320 315 318 320 317 321 320 318 317 314 314 313 312 311 310 309 309 310 309 309 307 306 306 307 307 306 305 305 304 303 302 301 300 299 298 296
319 317 317 319 317 318 318 318 317 316 313 317 316 317 317 317 316 315 314 312 311 310 309 308 308 307 307 306 305 305 305 305 306 305 305 305 304 303 301 300 299 298 296 295
316 315 315 319 317 317 317 318 316 312 319 312 312 313 317 315 314 315 314 312 311 310 308 308 308 307 306 305 304 303 302 301 302 302 304 304 304 302 300 298 298 296 295 294
316 316 316 320 319 317 318 317 318 314 309 311 308 311 315 316 316 314 312 311 310 308 307 305 305 305 304 304 302 299 299 298 297 296 297 299 298 298 301 298 295 294 293 292
317 317 315 318 318 314 314 314 317 315 312 314 312 314 316 315 314 312 311 309 307 306 305 304 303 304 303 301 299 299 297 296 295 295 295 297 298 299 299 297 296 295 294 293
316 318 317 315 314 314 314 314 313 314 315 314 313 315 317 315 313 312 311 308 307 306 305 304 303 303 302 299 298 296 296 295 295 295 295 296 296 296 297 297 297 295 294 294
316 315 314 316 315 315 314 313 313 313 313 313 314 317 314 312 310 310 309 307 307 306 305 303 303 302 299 297 296 295 295 295 294 294 295 295 296 296 295 296 295 295 294 290
315 310 308 312 312 313 310 314 316 315 314 313 313 314 312 312 311 308 306 305 305 305 303 302 301 299 297 296 295 295 294 294 294 295 295 295 295 294 294 294 294 294 292 292
312 311 303 305 303 305 313 313 313 314 314 314 314 312 311 310 308 305 304 304 304 303 302 300 298 297 296 295 295 294 294 294 293 295 294 294 294 294 294 294 293 293 291 291
312 304 306 303 309 306 312 314 314 313 314 314 314 312 310 308 306 306 304 303 303 302 299 298 296 296 295 295 294 294 294 294 294 294 294 294 294 293 293 292 292 292 290 288
311 304 304 308 302 302 307 314 312 312 312 314 312 311 310 307 305 306 306 305 301 299 298 296 295 295 295 294 294 294 293 293 294 294 293 293 293 293 292 292 291 289 288 288
306 302 305 299 300 306 307 312 312 312 310 313 311 309 309 307 304 305 306 302 299 298 296 295 295 294 294 294 294 294 294 293 293 293 292 292 291 290 290 289 288 289 287 286
309 307 306 303 301 309 309 312 311 308 311 311 309 308 308 307 306 307 305 299 297 295 295 294 294 294 294 294 294 294 293 293 293 292 292 290 290 289 289 288 288 287 286 285
312 308 309 310 310 308 309 310 309 310 311 309 307 307 308 307 307 306 299 296 294 294 294 293 293 293 293 293 293 293 293 293 292 291 290 289 289 289 288 288 287 286 285 284
311 312 309 311 312 311 311 312 311 310 309 308 307 306 307 307 304 298 295 294 293 293 293 293 293 293 293 293 293 293 292 292 292 291 290 289 288 287 288 287 285 285 284 284
308 312 313 309 311 313 313 312 309 308 307 307 307 308 307 300 295 294 293 293 293 293 293 292 292 292 292 292 292 292 292 291 291 290 289 288 287 287 287 286 285 284 284 283
311 311 310 312 310 310 311 309 308 308 309 310 307 299 296 295 293 293 292 293 293 292 291 292 292 291 292 291 289 290 291 290 290 289 289 288 286 286 286 286 285 284 283 283

GFSCGP_925_thetae_015.txt.gz
Theta_e
315 314 314 315 315 314 316 315 315 314 314 314 314 314 314 318 320 321 319 319 320 319 319 319 324 326 326 326 325 326 326 324 320 316 315 314 313 313 312 312 312 312 309 308
314 315 316 317 318 318 317 316 317 317 313 314 316 315 316 317 319 320 319 319 318 319 318 317 322 325 326 324 321 319 322 318 316 318 318 314 313 312 313 312 310 308 307 306
315 316 317 317 317 319 319 318 318 318 314 314 316 317 316 317 318 319 318 316 316 318 317 317 317 319 321 315 314 314 314 314 313 313 313 313 313 313 313 310 308 305 303 303
318 317 318 317 317 318 322 319 318 318 314 318 314 318 319 317 319 319 319 317 316 316 315 313 313 313 313 313 313 313 313 313 313 313 313 313 313 313 311 308 303 303 302 301
320 319 318 318 318 318 320 318 318 318 316 316 317 317 318 317 320 319 317 317 316 314 313 311 312 313 313 314 313 313 313 313 313 312 312 312 311 308 307 304 303 302 301 301
318 317 317 318 318 318 318 319 319 318 317 319 321 318 318 317 317 317 316 317 316 314 312 312 313 313 312 312 312 312 313 312 312 312 311 310 307 305 304 303 304 304 304 305
317 317 315 317 320 318 317 319 320 322 320 322 319 320 318 317 316 317 317 315 313 313 312 311 312 312 312 313 312 312 312 310 308 307 306 306 306 306 306 305 304 304 303 303
319 319 316 315 317 319 318 318 319 327 321 318 317 322 319 317 316 316 314 313 312 312 312 310 310 310 310 310 310 309 309 308 308 308 306 304 304 303 303 303 302 302 302 301
319 319 317 316 316 318 319 316 316 317 314 317 318 318 316 316 316 315 314 313 310 309 308 308 309 309 309 309 308 307 307 307 306 305 305 304 304 303 303 302 302 301 300 298
318 317 316 316 317 316 316 315 318 313 316 319 317 319 318 316 316 314 313 312 310 308 307 307 308 308 306 306 305 305 305 305 305 304 304 305 304 303 303 302 301 300 299 297
318 314 315 316 316 317 317 316 314 315 312 315 315 318 314 315 315 314 311 311 309 308 307 306 307 306 305 305 304 304 302 302 303 301 301 302 302 300 298 300 299 297 296 295
316 313 315 317 315 316 316 316 312 311 317 310 310 312 315 313 313 313 312 311 309 308 306 306 306 305 304 303 303 299 299 298 296 296 295 295 295 296 296 299 297 297 297 296
315 314 316 319 317 314 318 316 314 310 307 313 308 309 313 314 313 313 311 310 308 306 304 304 305 304 303 302 299 298 297 296 295 295 295 294 294 294 295 295 295 295 296 295
314 315 313 316 317 314 313 315 315 312 310 312 309 311 316 314 313 310 309 307 306 304 304 303 302 302 302 299 298 297 295 295 295 294 294 294 294 295 294 294 294 295 295 294
313 316 315 313 313 313 313 312 314 315 313 313 312 313 312 313 311 310 308 306 305 304 304 303 301 301 300 298 296 295 295 295 294 294 294 294 295 295 294 293 294 295 294 294
313 313 311 316 313 314 313 311 310 310 311 313 311 313 313 311 309 309 308 306 305 305 304 303 302 301 299 297 295 295 294 294 294 294 294 294 294 294 293 293 294 294 295 294
312 309 306 307 310 310 305 310 313 312 312 311 312 312 311 311 311 309 306 305 304 303 302 302 301 299 297 296 295 294 294 294 294 294 294 294 294 293 293 293 294 293 293 292
310 307 301 304 303 304 308 310 311 312 313 314 313 311 310 310 308 306 303 303 303 302 301 300 298 296 296 295 294 294 294 293 293 293 294 294 293 293 292 292 292 292 291 291
310 303 305 303 306 305 309 312 312 312 311 312 312 310 309 307 305 306 303 302 301 300 300 298 296 295 295 294 294 293 293 293 293 294 294 293 293 293 293 292 291 292 289 288
307 301 303 304 300 301 305 312 311 310 312 312 310 309 308 305 306 306 303 303 302 300 297 295 295 294 294 294 293 293 293 293 293 293 293 292 292 291 290 290 289 288 288 287
305 300 302 294 299 304 305 311 310 312 308 311 310 309 307 307 305 303 303 304 300 296 295 294 294 293 293 293 293 293 293 293 293 293 292 292 291 290 289 289 288 288 287 285
310 309 305 303 302 308 307 310 312 309 308 311 309 308 308 306 305 305 304 297 294 293 293 293 293 293 293 293 293 293 293 293 292 292 291 291 290 289 288 288 287 287 286 285
310 307 308 308 309 307 307 310 308 308 310 309 308 307 307 306 306 305 297 293 293 293 293 293 293 293 292 292 292 292 292 292 291 291 291 290 289 288 288 287 286 285 285 284
310 308 307 309 310 308 307 308 309 308 309 307 306 306 306 306 305 298 294 292 291 292 292 292 292 291 291 291 292 291 289 291 290 290 290 289 288 287 287 287 285 285 284 283
308 309 310 308 309 310 311 309 310 309 307 307 306 306 307 305 296 293 292 291 292 292 292 291 291 291 290 291 291 289 289 290 289 289 289 289 288 286 286 285 284 284 283 283
309 310 308 310 308 311 309 310 307 307 307 307 306 302 298 296 293 292 291 292 292 291 290 290 290 290 290 291 289 289 288 289 289 288 288 288 287 286 286 285 285 284 283 283

GFSCGP_925_thetae_018.txt.gz
Theta_e
313 313 314 315 312 311 313 314 314 313 312 314 316 316 316 318 317 318 318 318 319 319 319 322 323 324 325 326 325 325 326 325 322 313 313 314 315 315 313 312 311 311 311 308
313 315 315 316 316 315 314 313 316 314 313 316 318 316 316 317 319 317 318 318 319 317 317 319 321 323 325 325 326 325 324 315 315 315 318 318 313 312 312 310 308 306 305 304
314 316 316 317 316 317 318 316 317 315 315 315 316 316 317 317 319 317 315 315 317 318 318 318 319 317 316 317 322 322 319 316 316 315 313 312 312 312 312 307 305 303 303 302
317 317 316 315 317 317 320 318 316 315 316 318 313 321 319 319 320 318 317 315 316 316 314 313 312 311 312 311 312 312 312 312 312 312 312 312 312 311 308 305 303 302 302 303
319 318 316 317 318 317 319 317 316 315 315 314 316 318 317 319 322 320 318 316 315 313 312 311 310 311 311 311 311 312 312 312 312 312 312 311 310 307 305 304 304 304 304 303
316 315 316 317 317 316 316 318 316 316 315 319 320 317 317 318 319 318 317 316 314 313 312 310 311 311 311 311 312 313 313 312 311 310 308 307 305 305 304 305 304 303 303 302
316 316 314 315 319 316 317 317 319 321 319 321 317 318 316 315 316 318 317 315 313 313 311 309 310 310 311 312 312 311 310 308 307 307 306 304 302 302 302 303 303 302 302 301
317 315 315 314 317 317 316 317 318 325 322 319 317 321 318 314 314 315 315 313 311 311 310 309 309 309 308 308 308 308 308 308 306 304 303 303 303 303 303 303 302 302 301 301
318 318 315 315 315 317 317 316 314 316 313 316 317 317 317 315 315 315 313 312 312 309 308 307 307 308 308 308 307 307 306 305 304 303 304 304 304 303 302 301 300 301 300 299
317 318 315 315 316 314 316 314 316 312 316 317 316 318 318 317 317 314 313 311 309 307 306 306 307 307 306 305 305 305 304 304 304 303 301 300 301 297 295 295 296 298 298 297
315 314 314 315 315 317 316 315 313 313 310 313 313 316 311 317 316 313 311 310 309 307 306 305 306 305 304 304 304 303 301 301 300 297 296 295 294 293 292 293 293 293 294 296
314 313 314 316 315 315 315 315 311 310 314 309 309 310 310 312 312 311 311 310 307 306 305 305 305 305 304 303 302 300 299 297 296 295 295 294 293 293 294 293 292 293 293 294
313 314 316 315 313 313 317 315 311 308 307 314 308 309 311 312 311 311 310 308 306 305 304 304 304 304 303 302 299 298 297 296 295 295 294 294 294 294 293 293 292 292 293 294
312 313 312 314 313 312 314 316 312 310 308 310 309 310 314 313 312 310 309 306 305 303 303 301 301 302 302 300 298 297 296 295 295 294 294 294 294 294 294 293 292 292 293 294
311 314 313 313 312 312 312 312 313 312 311 312 311 308 309 313 312 310 308 305 304 304 302 301 300 300 300 298 297 296 295 295 294 294 294 294 294 294 294 293 292 292 293 294
311 312 310 315 312 311 313 310 309 311 311 311 311 311 307 310 308 308 307 306 304 303 302 301 301 301 300 297 296 295 294 294 294 294 293 293 294 294 293 292 292 292 293 293
310 308 305 306 308 306 306 308 309 309 309 309 311 309 310 310 310 309 306 305 304 303 301 301 300 300 297 297 295 294 294 294 293 293 293 293 294 293 292 292 292 292 292 291
308 305 299 303 302 304 308 309 309 310 310 308 311 311 310 310 308 306 304 304 303 302 301 300 300 297 296 295 294 294 293 293 293 293 293 294 293 292 292 292 291 290 291 291
306 302 303 303 304 305 307 308 311 311 311 310 311 310 309 306 306 307 303 302 302 302 301 300 298 295 295 294 293 293 293 293 293 293 293 293 292 292 292 290 290 289 290 288
305 301 302 298 301 301 305 308 309 310 311 309 309 308 307 306 308 310 303 301 300 301 299 296 294 294 294 293 293 293 293 292 292 292 292 292 292 291 290 289 289 288 287 288
305 302 301 293 298 303 304 309 309 311 309 309 308 307 305 307 308 305 302 301 303 298 295 294 293 293 293 293 293 292 292 292 292 292 291 291 291 290 289 289 288 287 287 286
310 310 303 300 298 308 305 311 311 309 306 309 307 306 307 305 303 303 303 299 293 293 293 293 293 292 292 292 291 291 292 292 291 291 290 290 290 289 289 288 287 287 286 284
310 307 307 306 308 305 305 309 307 306 307 309 308 307 307 304 304 304 298 293 292 292 292 292 292 292 291 291 291 291 291 289 289 290 289 289 289 289 288 287 286 285 284 284
308 306 305 308 308 306 305 305 306 307 307 308 307 306 305 305 305 299 294 293 291 291 292 292 291 290 291 290 291 290 289 289 289 289 288 288 288 288 288 286 286 285 284 284
307 307 308 306 307 307 307 307 306 306 307 307 306 306 306 305 301 296 294 291 291 291 291 291 290 290 290 290 290 290 289 288 288 289 288 288 288 288 286 285 285 284 284 284
307 308 307 308 307 307 307 308 308 308 308 307 306 304 298 299 295 294 292 291 291 291 290 290 290 289 289 289 289 288 288 288 288 288 288 288 287 287 286 285 285 285 284 283

GFSCGP_925_thetae_021.txt.gz
Theta_e
314 316 316 316 312 312 313 314 315 313 314 321 321 323 321 321 322 324 324 325 325 324 323 323 324 325 325 324 324 325 326 325 325 321 317 313 312 313 313 310 310 309 307 305
317 318 316 317 316 316 315 317 317 316 316 321 322 324 323 321 320 321 324 324 325 323 323 322 324 325 326 326 325 325 325 324 320 314 314 315 314 312 310 308 308 306 305 304
318 317 315 317 317 319 318 318 317 319 318 318 321 323 324 322 322 321 321 323 324 324 325 323 322 323 322 323 324 323 317 314 313 314 315 313 311 311 309 306 305 304 304 304
319 316 316 317 319 317 321 317 317 319 320 322 316 321 323 325 325 324 324 325 325 325 324 320 316 315 316 320 321 316 314 314 312 311 311 311 311 311 307 306 305 304 304 303
319 317 317 319 317 317 320 316 317 315 317 318 319 323 322 324 327 327 324 322 321 321 320 315 312 311 309 311 311 311 311 311 311 311 310 309 307 306 305 304 304 303 302 301
316 314 316 317 316 316 317 319 319 319 319 322 320 320 321 327 327 325 321 320 319 317 315 312 310 309 309 310 311 311 310 308 308 308 307 304 301 302 303 303 303 302 302 301
317 317 314 315 319 316 319 321 325 327 327 324 318 320 321 319 321 324 322 320 318 316 314 313 312 312 310 310 308 308 308 307 307 304 303 302 302 302 303 303 303 303 303 302
318 319 315 315 317 319 318 321 328 325 327 325 317 324 322 317 317 322 320 319 317 316 314 313 312 311 310 308 308 308 307 306 304 303 302 302 303 303 303 302 301 298 299 300
320 317 315 314 315 317 318 319 317 319 314 322 320 319 318 316 316 319 319 318 317 316 314 313 310 309 308 307 307 306 305 304 303 302 302 302 302 300 296 294 294 295 293 293
317 320 315 315 315 315 318 315 320 318 320 319 317 320 322 320 319 319 318 318 317 315 313 311 309 308 307 306 305 304 304 303 302 303 299 296 294 294 293 292 292 292 293 292
314 318 317 315 317 319 318 317 315 315 315 317 317 316 316 320 319 320 319 317 316 314 312 311 309 306 305 305 305 304 303 302 301 297 295 294 294 293 293 293 293 293 292 293
314 317 320 316 315 315 315 316 316 319 316 314 315 316 311 315 317 318 317 314 314 313 311 309 307 305 304 304 303 301 300 299 297 296 295 294 294 293 293 293 293 292 292 292
315 317 321 319 316 315 317 315 311 311 313 316 325 316 311 314 314 315 316 313 311 310 310 308 306 305 304 302 299 298 298 299 295 295 294 294 294 293 294 294 293 292 292 293
314 314 317 319 315 314 316 316 312 314 317 314 317 315 311 316 315 314 313 312 311 309 308 308 306 305 302 301 299 298 299 296 295 294 294 294 294 294 294 294 293 292 292 293
314 317 314 313 313 312 311 314 314 313 313 318 314 312 312 314 316 315 312 310 309 308 307 306 304 303 302 301 299 299 296 295 294 294 294 293 293 294 294 293 292 292 292 293
312 316 312 315 313 312 314 312 312 314 313 312 312 314 311 311 312 312 311 310 309 308 306 305 303 302 301 301 299 296 295 294 294 293 293 293 292 294 293 293 292 292 292 292
313 312 312 313 309 308 312 312 312 311 311 314 315 315 313 313 312 313 312 310 309 308 306 304 303 302 302 300 298 295 294 294 293 293 293 293 293 293 293 292 292 292 291 290
309 307 305 312 306 313 311 310 310 311 311 310 310 310 312 312 311 310 309 309 308 306 305 303 302 301 298 296 295 293 293 293 293 293 292 292 293 293 292 292 291 290 290 290
307 307 307 315 311 308 309 306 311 313 313 311 311 311 311 309 310 312 308 308 308 307 304 302 301 298 295 294 293 293 293 293 292 292 292 292 292 292 291 291 290 289 289 289
305 304 312 306 311 312 309 305 310 311 317 311 311 311 311 311 317 316 308 306 305 304 302 298 295 294 293 293 293 293 292 292 292 292 292 291 291 290 290 289 289 288 287 287
312 308 312 303 313 310 306 308 309 315 315 308 311 311 310 313 315 310 307 305 304 300 296 294 293 293 293 293 293 292 291 291 292 291 291 290 289 289 289 289 289 288 287 286
314 314 313 304 309 315 306 311 315 314 308 309 310 310 311 311 307 306 304 301 297 293 292 293 293 292 292 292 291 290 291 291 290 289 289 289 288 289 288 288 288 287 286 285
313 312 315 311 314 308 306 312 310 308 309 310 311 310 310 308 307 306 302 296 293 293 293 292 292 292 291 291 290 291 291 289 288 289 289 289 288 288 288 287 288 286 285 284
309 306 311 310 310 307 307 307 307 307 309 309 309 310 308 309 306 303 296 294 293 292 291 291 291 291 291 290 289 290 290 289 288 288 289 289 288 288 288 288 286 285 285 284
310 308 309 309 309 308 308 308 310 310 307 307 308 309 309 308 306 297 294 293 292 292 291 291 290 290 290 289 289 290 289 288 288 288 288 288 288 287 287 287 286 285 284 284
308 311 313 315 311 310 310 307 308 310 310 309 309 306 305 304 298 295 294 293 292 291 290 290 290 289 289 289 289 288 287 287 287 287 288 288 288 288 287 287 286 285 285 285

GFSCGP_925_thetae_027.txt.gz
Theta_e
321 320 321 320 320 319 319 319 317 319 321 319 317 321 322 326 326 328 329 331 332 332 331 330 330 330 331 333 331 331 329 327 327 326 324 323 321 319 318 316 315 314 313 312
321 321 321 321 319 319 318 318 319 319 319 321 319 320 324 327 327 328 328 330 331 332 333 331 331 331 332 332 331 331 329 329 328 327 325 323 321 318 316 314 314 313 312 311
324 323 321 320 318 319 319 319 320 320 321 321 322 324 327 326 329 329 329 329 330 331 333 332 332 331 330 330 330 330 330 330 327 323 321 321 320 317 315 314 314 312 310 309
323 322 321 320 320 321 321 322 322 322 323 322 323 321 325 328 328 328 330 331 332 332 332 333 333 330 330 330 330 330 328 325 322 320 319 318 318 317 316 315 312 311 309 307
323 322 322 321 322 323 324 322 323 323 323 325 324 322 326 328 328 328 329 329 331 331 332 332 331 331 330 330 328 326 323 321 320 318 318 318 317 315 312 310 308 306 306 305
323 321 323 323 323 323 322 324 324 324 322 324 321 322 324 329 328 329 330 331 332 332 329 328 327 327 328 327 323 321 319 318 317 317 316 314 312 308 307 306 305 305 304 303
322 322 322 322 323 323 322 323 326 326 325 325 323 323 321 320 326 328 332 332 332 328 325 324 323 323 323 322 320 318 317 316 315 313 310 308 307 306 305 305 304 302 301 300
322 324 322 322 323 323 323 323 325 323 322 321 324 320 321 324 324 327 331 330 330 326 323 322 320 320 319 319 318 316 316 315 312 309 307 306 304 305 304 303 301 300 299 298
322 322 321 321 322 321 323 322 323 325 328 325 319 318 324 324 323 327 330 329 329 325 323 321 320 319 319 318 317 316 316 313 309 308 307 305 303 301 301 301 300 299 298 297
322 323 321 321 321 322 323 322 322 321 323 322 319 319 321 325 323 325 329 328 327 325 323 321 320 319 319 318 317 316 314 310 308 305 305 303 301 300 300 300 299 298 298 297
322 321 323 321 322 320 324 322 321 322 324 324 319 319 319 319 322 324 327 327 327 325 323 322 320 319 318 317 317 314 312 309 306 304 301 300 300 300 300 300 299 298 298 297
322 321 324 323 322 322 322 323 323 323 321 322 326 321 318 319 320 322 324 326 325 325 323 322 321 319 318 317 315 313 310 307 304 302 300 301 301 300 300 299 298 298 297 297
323 321 324 324 323 322 320 320 320 320 321 321 328 320 319 318 319 319 321 324 325 324 323 323 321 319 318 316 314 312 309 305 303 301 301 301 300 300 300 299 298 298 297 297
318 321 323 325 323 322 323 321 320 320 321 320 319 318 317 318 318 318 319 320 323 324 323 323 322 320 317 315 313 310 306 305 302 301 301 300 300 300 299 298 297 297 297 296
323 324 322 322 321 320 320 319 320 320 319 320 319 316 315 315 316 317 317 319 319 322 323 322 322 320 317 314 312 308 305 304 302 301 301 300 299 299 298 297 297 297 296 295
322 323 323 324 322 320 320 319 318 318 318 317 317 317 317 317 317 317 317 318 318 319 321 321 321 319 317 314 311 306 305 303 302 301 300 299 299 298 296 296 296 296 295 294
324 323 322 319 318 318 322 321 319 318 318 318 320 318 317 317 317 316 316 317 318 318 319 319 319 318 316 314 310 305 304 303 301 300 299 298 298 296 295 295 295 294 294 294
324 323 323 322 318 326 315 315 315 316 317 317 316 316 316 315 317 317 317 317 317 317 317 318 317 316 315 312 308 305 304 302 300 299 298 297 296 295 295 294 294 294 294 294
319 321 322 329 319 316 315 313 314 315 315 315 315 314 315 316 317 317 317 316 315 315 316 316 316 315 313 310 306 304 302 299 299 298 297 295 294 294 294 293 293 293 294 293
316 318 320 319 329 329 319 314 314 315 316 314 314 314 315 315 316 316 316 315 315 315 315 315 315 313 310 306 304 301 300 299 298 297 295 294 294 293 293 293 293 293 293 293
324 323 327 323 327 323 316 314 315 317 319 316 315 315 316 316 315 318 316 315 315 315 315 314 314 311 307 303 300 299 299 298 296 294 293 293 292 292 293 292 292 293 293 292
323 327 326 326 325 325 314 315 317 319 315 315 316 316 316 317 317 317 316 315 315 315 313 310 307 305 300 298 299 298 297 295 294 293 292 292 292 293 292 292 292 292 292 292
323 322 323 321 321 317 314 314 314 315 315 315 315 315 316 315 316 316 315 314 314 312 308 304 301 297 296 295 296 295 294 293 292 292 292 292 292 292 292 292 291 291 291 291
319 317 319 318 315 314 314 314 314 314 315 315 315 316 316 316 316 316 316 312 309 306 302 299 298 296 295 294 293 293 293 292 292 292 292 292 292 292 291 291 291 290 289 290
319 317 317 318 316 315 315 315 315 315 316 316 316 316 316 316 316 316 314 308 303 299 297 297 295 295 294 294 292 292 292 292 291 291 291 292 291 291 291 291 291 290 289 289
317 318 320 320 317 317 317 317 315 316 315 313 313 313 310 311 312 310 304 300 298 295 294 293 293 294 293 292 292 292 291 291 290 291 291 291 291 290 291 290 289 289 289 289

GFSCGP_925_thetae_030.txt.gz
Theta_e
322 322 321 322 322 321 319 319 320 318 319 319 322 321 320 322 324 330 330 331 331 329 330 328 327 326 328 334 331 330 330 328 325 325 326 323 321 319 318 317 316 315 314 313
323 323 320 322 321 321 321 320 320 319 319 320 318 319 320 322 324 327 329 330 332 331 332 331 330 330 334 333 331 330 329 327 328 328 326 324 321 320 318 316 315 314 313 312
324 323 322 322 320 319 320 320 322 320 318 316 319 318 322 323 324 324 326 328 330 332 334 332 332 332 333 333 332 330 329 328 328 328 325 323 321 317 316 315 314 312 311 310
324 322 322 320 319 319 322 323 321 321 321 320 322 322 327 326 325 327 327 327 329 330 333 332 333 333 332 332 331 330 330 330 329 327 323 321 320 317 316 316 313 311 310 308
325 323 323 321 322 323 322 322 323 321 321 328 326 325 326 327 326 328 329 331 330 331 332 333 334 331 330 330 331 331 331 327 324 321 321 320 317 316 313 311 309 307 307 306
322 321 322 325 324 323 323 323 323 322 322 331 324 328 326 326 325 329 327 329 331 332 331 331 332 331 330 331 331 329 327 322 321 319 319 318 315 312 309 307 307 306 305 303
320 321 322 324 322 321 320 322 328 333 334 332 323 323 325 325 327 329 330 329 331 331 332 331 331 331 330 328 327 324 321 319 318 318 315 311 308 307 307 307 305 303 302 301
322 324 321 322 321 324 323 321 329 333 332 329 323 322 323 323 324 329 330 331 332 331 329 329 328 327 328 324 322 321 319 318 316 313 310 308 307 306 305 305 302 302 301 299
324 325 322 322 321 321 322 323 322 323 331 335 321 318 323 323 323 327 331 331 331 328 325 325 323 324 324 322 321 319 317 316 314 310 308 307 304 304 302 301 301 301 299 298
327 327 325 321 321 321 321 321 325 323 325 324 320 320 326 325 322 324 330 331 331 328 324 323 321 321 321 320 319 318 317 315 311 309 308 306 303 301 301 301 301 300 299 298
323 326 324 322 321 318 323 322 320 319 326 331 331 321 319 320 321 323 328 330 329 328 325 323 321 320 320 319 319 318 317 314 310 308 306 304 301 301 301 301 300 299 298 298
321 322 325 322 322 322 321 323 322 334 324 327 332 326 320 319 320 322 323 327 328 327 325 323 321 321 320 320 319 318 317 311 309 307 304 302 301 301 301 300 300 299 298 298
323 322 325 322 323 323 321 320 320 322 325 327 336 325 319 318 317 318 321 323 326 326 325 324 322 321 321 319 319 317 315 311 308 305 303 302 301 302 301 300 300 298 298 298
323 322 320 326 322 322 324 322 319 320 331 325 323 319 318 319 319 318 319 320 321 325 325 324 323 322 321 319 318 316 314 311 305 304 302 302 302 301 301 300 299 298 298 297
322 321 320 320 321 322 322 321 320 319 321 323 323 318 318 318 318 318 318 319 319 319 323 323 323 322 321 319 318 316 313 308 305 304 303 302 302 300 300 299 297 297 297 297
323 326 323 325 323 322 322 321 320 319 318 318 318 318 318 318 318 318 317 316 317 318 318 321 322 322 321 319 317 315 311 307 305 303 302 301 301 300 299 297 296 296 296 296
326 328 328 326 320 319 321 320 319 318 318 319 320 320 319 317 317 318 318 317 317 318 317 318 320 320 321 320 317 313 309 306 304 303 302 301 299 299 297 296 295 295 295 294
327 328 331 331 319 324 317 317 315 316 316 316 316 316 315 317 317 316 316 316 317 316 317 317 317 318 318 318 314 312 307 305 304 303 301 300 298 297 295 295 294 294 294 294
323 326 329 331 324 319 317 315 315 316 315 315 315 314 314 315 316 317 317 317 316 315 314 314 315 316 317 316 311 309 306 305 302 300 299 298 296 295 294 294 294 293 293 293
317 323 329 325 331 329 321 315 315 315 319 315 315 316 315 315 320 319 318 317 315 315 314 314 315 315 315 310 307 306 302 299 299 298 296 295 294 294 293 293 293 293 293 293
325 327 326 326 328 326 318 315 315 320 324 317 316 316 316 318 318 318 317 317 315 315 315 315 314 311 308 306 303 300 299 298 297 295 294 293 293 293 293 293 292 292 293 293
325 330 325 330 325 326 315 315 317 321 318 317 316 317 318 318 317 317 316 316 315 314 312 309 301 300 298 299 299 297 296 295 294 292 293 293 292 292 293 293 292 292 291 292
325 325 330 326 326 320 316 315 315 316 316 316 317 317 317 317 317 317 316 316 314 311 307 300 298 297 296 296 295 294 294 293 293 293 292 292 292 292 292 293 292 291 291 290
320 319 324 322 316 316 316 315 315 316 317 316 317 317 318 318 317 317 316 312 308 301 300 299 297 296 295 293 293 293 293 293 293 292 292 292 292 292 292 291 291 291 291 290
322 320 319 319 318 317 317 318 318 317 317 315 315 314 311 312 314 311 304 302 300 298 297 296 295 295 294 293 293 293 293 292 292 292 291 291 291 291 291 292 291 291 290 290
320 319 326 326 319 319 319 314 314 312 311 310 310 307 305 304 303 301 299 297 296 295 294 294 294 294 293 293 294 293 292 292 291 291 291 291 291 290 291 291 291 290 289 289

GFSCGP_925_thetae_033.txt.gz
Theta_e
322 319 320 322 321 322 321 318 318 317 316 322 322 318 317 317 324 325 324 326 325 323 322 325 325 328 328 326 327 331 330 327 322 321 323 323 320 319 317 316 316 315 314 313
322 323 321 321 323 322 322 320 319 318 318 318 318 318 316 317 320 325 326 327 326 325 325 326 326 330 329 329 330 331 330 328 323 323 325 324 320 318 317 316 315 313 312 312
324 323 322 321 321 322 321 323 320 318 317 316 315 315 319 319 320 324 327 327 327 326 328 328 331 332 331 329 330 330 330 328 327 324 326 323 320 318 316 315 313 312 311 310
322 322 323 322 322 321 321 322 323 322 318 317 320 323 325 323 324 322 323 324 327 329 330 329 331 332 331 330 330 330 328 327 326 326 327 323 319 315 315 314 313 312 311 308
322 323 323 324 323 322 322 321 321 322 323 324 322 320 320 324 322 324 323 322 322 330 330 329 330 332 332 331 330 329 329 328 327 327 325 321 317 316 316 314 312 310 308 307
320 320 323 323 322 322 322 321 323 323 322 325 322 322 325 325 323 325 324 325 326 329 328 329 330 330 331 331 330 330 329 329 328 327 324 320 316 312 311 308 307 307 304 302
322 321 322 322 322 321 322 321 324 324 326 327 325 325 322 323 322 325 326 324 324 327 327 330 328 328 330 330 329 330 330 328 322 319 319 316 314 311 308 307 306 304 301 300
322 325 322 322 322 324 321 321 325 330 329 327 326 327 324 321 322 324 325 322 325 325 327 330 328 328 329 330 330 329 327 320 318 317 314 310 308 307 307 305 303 302 301 300
324 325 323 323 322 321 323 324 322 327 326 324 321 317 322 320 323 325 322 325 327 325 324 325 328 328 327 327 327 323 319 318 317 315 311 308 307 305 305 303 302 301 300 299
324 325 323 323 322 319 320 319 321 321 321 322 320 321 324 322 327 325 327 328 326 322 321 321 322 324 326 324 322 320 318 317 315 312 308 307 306 304 302 301 301 301 300 298
322 325 327 324 323 319 321 320 320 319 322 323 323 319 317 320 320 324 327 327 326 322 320 319 318 322 323 322 321 320 317 316 313 309 307 306 304 301 301 301 300 300 299 298
322 324 326 327 321 320 320 321 323 318 320 321 317 319 316 317 318 318 321 326 325 322 319 318 317 319 320 320 320 319 317 315 310 309 307 306 302 300 301 301 301 300 299 298
323 320 319 318 321 322 321 319 318 321 319 321 316 318 315 316 316 318 318 318 324 323 320 318 317 318 318 318 318 318 317 312 309 307 306 303 301 301 301 301 301 300 298 298
322 321 319 318 319 321 323 321 319 318 317 318 318 319 316 315 314 314 315 316 318 322 322 319 318 318 318 318 317 317 317 311 308 306 304 302 302 301 301 302 299 299 298 297
320 320 319 318 320 322 322 321 320 318 319 318 318 319 317 316 314 313 314 316 317 316 319 319 318 317 318 318 317 316 314 309 307 304 303 303 302 303 302 299 298 298 297 297
320 322 321 322 322 319 319 319 318 318 318 317 317 317 315 314 313 313 313 313 314 314 313 313 318 318 318 317 317 315 311 308 306 304 303 303 301 301 300 300 298 295 295 296
322 322 318 321 315 315 313 315 316 318 318 316 316 315 313 313 313 313 313 313 313 313 313 313 313 317 319 318 318 313 308 306 305 304 303 302 302 301 297 297 296 295 295 294
323 322 315 315 313 310 315 314 313 313 313 312 312 311 312 312 311 312 310 311 311 311 311 310 311 314 317 318 315 311 307 305 304 303 301 300 298 296 296 296 294 294 294 293
323 317 317 314 315 316 316 315 316 314 314 313 313 312 311 311 310 314 313 312 311 311 311 312 313 314 314 313 308 306 305 304 301 299 297 296 296 295 294 294 293 293 293 293
318 318 311 315 315 311 316 314 314 313 315 314 314 313 313 312 311 314 314 314 312 311 305 302 304 305 305 303 304 301 298 297 296 296 295 294 294 293 294 293 292 293 292 292
313 313 312 309 311 315 319 314 314 312 313 314 313 314 314 313 313 313 313 313 310 303 300 298 298 298 298 298 298 296 295 294 293 293 293 293 294 294 292 292 293 292 292 292
316 317 311 315 317 319 315 314 312 316 314 313 313 314 314 314 314 314 313 311 305 299 298 297 296 296 295 295 295 294 293 293 295 295 294 294 293 292 292 292 293 293 292 291
319 320 317 317 316 316 313 312 313 312 313 314 314 314 315 315 314 313 305 301 299 297 296 295 295 294 294 295 296 295 295 298 297 293 293 292 292 292 292 292 292 291 291 291
319 318 317 316 317 315 313 316 315 315 314 313 308 308 310 310 303 301 300 299 297 296 296 296 295 294 294 294 294 294 293 293 293 292 292 292 292 292 292 291 291 291 291 291
317 316 317 316 316 317 315 314 312 310 310 306 304 303 303 302 301 299 298 297 297 296 296 295 295 294 294 293 293 293 293 293 292 292 292 291 291 291 291 290 291 290 290 290
316 317 312 313 317 314 312 309 308 307 305 305 303 300 300 299 298 297 296 295 295 294 294 294 294 293 293 294 293 293 293 292 292 291 291 290 290 290 290 290 290 291 290 289

GFSCGP_925_thetae_036.txt.gz
Theta_e
321 319 319 318 319 318 321 321 320 315 316 323 322 318 317 325 328 328 321 321 325 331 330 330 329 329 329 328 326 325 328 327 326 324 321 320 320 320 319 316 315 315 315 315
319 321 320 319 321 321 321 321 319 317 316 321 319 318 315 321 326 327 323 322 322 322 323 326 326 326 326 325 325 325 327 327 326 324 321 321 320 319 316 316 315 314 313 313
320 320 321 322 321 321 320 321 320 321 317 314 314 316 319 317 322 325 324 324 323 322 323 322 326 326 325 326 326 325 327 327 325 322 322 323 320 317 316 316 314 312 312 311
320 320 322 322 321 321 321 320 319 321 316 314 316 320 321 322 320 325 325 326 324 323 323 326 327 326 326 328 327 328 328 327 323 322 326 323 319 317 315 314 313 312 311 310
318 321 321 322 322 321 322 320 320 321 320 320 320 317 318 322 320 321 321 323 325 324 325 329 328 328 327 328 329 329 329 329 327 323 325 323 319 318 316 314 313 312 310 308
318 319 321 321 321 321 321 321 321 322 322 322 322 319 318 322 321 319 320 320 323 325 325 328 330 329 328 328 328 329 329 328 327 326 325 325 321 318 315 313 312 311 309 306
321 321 321 322 321 321 321 320 321 322 322 322 324 321 320 319 320 320 320 321 321 328 326 329 329 330 329 328 328 329 328 328 327 326 327 326 322 318 315 313 311 309 305 300
320 322 321 321 322 322 321 319 321 324 324 322 324 326 323 319 318 320 321 319 325 326 328 328 329 329 329 328 329 329 328 328 328 328 327 325 319 315 314 310 306 303 301 300
322 324 322 321 321 321 321 321 320 324 323 321 322 318 318 320 320 322 322 321 324 324 327 328 327 327 328 328 328 329 329 328 324 319 319 316 311 309 307 306 303 301 299 299
321 323 321 322 321 320 319 319 321 320 323 326 319 319 320 325 325 324 323 322 323 323 327 326 326 326 328 328 328 329 328 321 315 313 311 309 307 306 306 303 301 301 299 299
320 319 321 322 323 322 319 318 318 318 318 320 321 318 313 320 325 323 322 322 324 323 325 326 326 326 327 327 327 326 323 318 314 313 310 308 306 304 302 301 301 300 299 299
320 322 323 323 321 320 317 319 319 317 317 319 315 317 315 315 318 323 324 325 323 323 323 324 324 324 323 323 322 319 318 317 316 313 309 307 305 305 301 301 300 300 301 301
320 321 320 320 317 320 320 317 318 319 315 318 315 317 314 312 314 315 323 322 324 321 319 319 319 322 322 321 320 319 318 316 313 310 307 306 305 302 301 301 301 301 301 300
318 318 318 319 316 318 321 321 319 316 315 317 317 318 316 314 312 312 313 314 320 322 319 317 316 319 321 320 319 318 315 315 313 309 307 306 304 301 301 301 301 301 298 298
317 319 317 316 318 321 320 320 320 318 316 316 316 316 315 314 313 313 311 314 315 320 320 318 316 314 317 318 317 316 314 313 310 306 304 303 302 301 302 302 298 298 297 296
318 318 319 320 317 317 318 317 316 317 317 317 317 316 311 311 311 311 311 311 311 311 311 312 316 315 315 316 317 316 313 308 306 303 303 303 302 302 300 298 299 296 296 295
319 319 315 319 313 313 313 314 316 316 317 317 315 313 311 310 310 310 310 310 310 309 309 310 310 316 316 317 317 315 311 306 304 303 303 302 302 300 300 298 296 295 294 294
318 318 311 313 310 312 315 313 314 312 311 311 311 311 311 312 311 310 309 309 309 310 309 308 310 312 315 316 314 308 305 304 304 303 302 302 300 297 296 295 294 294 293 294
320 314 315 313 313 314 315 313 311 312 314 312 311 311 310 311 312 313 312 310 309 307 305 304 304 305 307 308 307 305 304 302 299 296 295 295 295 294 295 295 294 294 293 293
315 313 314 312 312 311 313 313 312 311 314 313 312 312 313 311 312 313 312 307 301 300 299 299 299 299 300 299 300 298 296 295 294 294 294 294 295 296 297 295 294 292 293 292
311 311 310 305 308 309 312 313 312 310 309 312 312 311 312 312 310 311 303 300 299 298 298 297 296 296 296 296 295 294 294 294 295 296 297 298 298 297 294 293 292 292 292 292
314 313 309 313 311 315 314 312 313 310 312 311 312 312 312 312 310 306 301 299 298 297 296 296 295 295 296 296 297 295 296 296 297 298 298 296 293 293 292 292 292 292 292 291
316 313 313 314 313 312 311 313 311 311 313 313 313 313 312 309 302 300 298 297 296 295 295 295 295 295 295 295 296 295 294 294 294 293 293 293 292 291 291 292 292 291 291 291
316 317 317 316 316 316 314 312 311 311 308 305 306 306 304 301 300 299 297 297 296 297 296 295 294 294 293 293 294 294 293 293 293 293 292 291 291 291 291 291 291 290 290 291
315 314 315 315 316 314 311 309 307 305 303 302 301 301 301 299 299 298 297 297 296 295 295 294 293 293 292 293 293 293 293 293 292 291 291 291 291 290 290 290 290 290 290 290
313 314 312 311 314 312 310 306 305 305 303 301 299 298 297 297 296 294 294 294 294 294 294 293 293 293 293 293 293 293 292 292 291 291 291 290 290 289 289 289 290 290 290 290

GFSCGP_925_thetae_039.txt.gz
Theta_e
319 317 319 317 316 317 320 320 320 316 316 322 321 318 325 325 329 332 329 325 330 333 331 331 330 330 329 329 330 330 329 327 326 326 324 324 322 320 319 320 320 319 317 314
317 319 318 318 318 320 320 320 319 318 318 319 318 319 316 325 331 331 329 322 326 331 331 331 331 331 331 330 330 328 327 326 327 327 325 323 320 319 319 318 317 315 315 313
318 318 320 321 320 320 319 320 320 320 318 314 316 317 316 317 325 327 326 321 323 330 330 330 330 328 329 327 328 327 326 327 327 326 322 320 319 319 316 315 314 313 314 313
318 318 320 321 321 319 320 318 319 319 319 313 315 316 318 316 322 324 326 322 322 327 327 327 327 327 327 327 327 326 326 327 326 325 322 321 320 317 316 316 315 313 312 311
317 320 321 321 320 319 320 320 320 320 319 319 318 316 315 319 318 323 324 323 322 322 324 324 326 326 325 325 326 326 325 325 326 325 322 322 321 318 317 316 314 312 310 309
316 318 319 319 320 319 320 320 318 319 320 320 321 318 317 319 320 318 322 323 323 321 321 322 325 325 325 325 326 326 325 325 325 325 322 324 321 319 316 314 312 310 308 307
319 320 320 321 320 319 319 319 320 321 321 321 321 321 319 317 316 318 318 320 322 322 322 326 325 326 325 326 326 326 326 326 326 325 322 324 322 320 318 315 312 310 308 304
319 319 319 321 320 321 320 318 319 322 322 320 322 324 321 319 317 316 315 318 317 323 324 328 327 327 326 326 326 326 327 327 327 326 326 325 324 320 317 316 313 310 307 302
320 321 321 320 321 320 321 321 318 321 320 320 319 319 315 317 320 320 319 323 323 323 325 327 328 327 327 326 326 326 327 328 327 327 326 325 325 324 317 314 312 310 304 300
318 318 320 321 320 319 320 318 320 318 322 325 319 318 317 320 321 322 321 322 323 323 325 325 326 327 327 326 326 327 328 328 328 327 327 326 325 320 314 313 308 304 300 299
319 316 317 321 321 319 318 317 316 316 315 318 319 319 311 318 319 322 320 318 321 323 325 326 325 326 327 328 329 329 328 328 328 326 324 320 316 313 310 307 305 302 302 303
318 316 318 319 319 318 318 318 316 316 317 317 315 316 313 313 314 320 320 319 320 322 325 325 325 325 325 326 327 327 327 327 327 317 314 312 309 308 308 306 304 303 301 299
319 318 318 318 317 318 320 317 318 316 313 317 315 316 312 311 312 313 320 320 321 321 321 322 323 324 324 323 322 323 323 320 315 312 309 308 308 307 304 301 301 300 299 301
316 317 317 319 317 317 320 319 317 317 315 316 315 316 316 314 313 311 310 314 319 320 319 318 319 321 323 322 320 319 318 316 313 309 307 306 303 301 301 301 300 300 301 300
317 318 316 316 315 318 318 319 317 316 315 316 316 315 315 313 312 310 309 311 317 320 317 316 315 314 318 320 320 318 316 314 311 308 305 304 302 301 301 301 301 299 298 297
316 316 317 318 316 315 318 317 316 316 316 315 315 315 312 310 310 309 309 309 310 309 310 312 315 314 314 317 318 318 315 313 310 307 304 302 301 301 301 299 297 297 295 295
316 316 313 316 312 313 313 313 315 315 315 315 315 312 310 310 309 309 308 308 308 308 309 309 309 313 314 314 315 315 312 310 307 304 303 303 301 300 298 297 296 296 297 298
316 314 310 312 310 314 314 313 312 313 311 310 310 310 311 310 309 308 308 308 308 308 308 307 307 309 311 312 313 311 307 305 304 303 303 301 299 297 296 295 297 297 297 296
316 312 312 313 313 314 315 311 311 311 313 311 310 310 311 311 311 311 310 307 305 303 300 299 300 303 305 306 305 304 302 300 299 297 296 295 295 295 296 297 298 297 295 293
312 311 314 309 313 314 314 312 310 310 312 311 310 310 311 310 310 311 308 301 299 298 297 297 297 297 298 297 299 297 294 294 294 294 295 296 296 296 297 297 294 294 292 293
312 310 313 305 309 311 310 312 309 311 310 310 310 310 309 309 307 304 299 298 297 296 296 296 295 294 294 295 296 294 294 295 296 296 297 298 298 299 297 294 292 292 292 292
316 313 308 307 306 315 311 311 310 308 310 310 309 310 310 307 302 300 298 297 296 295 295 295 295 295 295 295 296 295 296 296 297 298 298 298 297 294 292 292 291 291 291 291
315 314 314 313 313 311 311 310 310 309 310 311 311 310 307 302 300 298 297 296 295 294 294 295 294 295 295 295 296 295 295 296 296 294 293 292 292 291 291 291 291 291 291 290
315 313 313 314 315 315 312 309 308 309 309 307 308 306 301 299 298 297 296 296 295 295 294 294 293 293 293 293 293 293 293 293 292 292 291 291 291 290 290 290 290 290 290 289
313 314 314 314 314 312 309 306 304 303 302 301 300 300 299 298 298 297 296 294 294 294 294 293 293 292 292 293 292 292 292 292 291 291 291 290 290 290 290 289 289 289 289 289
312 314 314 313 313 311 310 305 303 302 301 300 299 298 297 297 296 295 293 293 293 293 293 293 293 292 291 291 290 290 290 291 290 290 290 290 290 290 290 289 289 290 290 290

GFSCGP_925_thetae_042.txt.gz
Theta_e
318 317 318 316 315 317 318 319 319 317 315 323 321 318 324 325 327 329 329 329 329 329 327 328 327 326 325 324 325 325 327 328 327 324 323 326 327 324 320 320 320 320 320 318
316 319 316 317 317 319 318 319 319 316 316 317 316 317 320 325 327 330 330 330 329 329 328 328 328 327 326 325 325 326 327 328 329 325 324 325 325 323 320 319 319 319 318 316
317 317 319 320 318 318 318 319 319 319 316 313 317 316 314 320 326 329 329 329 327 328 329 329 329 328 328 328 327 327 328 329 328 325 325 324 322 320 319 318 318 317 315 313
318 316 319 320 320 317 319 317 319 319 318 316 313 315 316 315 326 326 329 326 325 323 328 329 329 329 329 328 328 328 328 328 327 325 325 323 322 319 318 318 317 315 314 312
318 319 320 320 319 317 318 319 319 319 318 318 317 316 314 316 317 325 326 326 325 322 327 328 328 329 328 328 328 327 327 327 326 325 325 323 322 320 319 318 315 313 313 310
316 316 318 318 319 318 318 318 316 317 317 320 319 316 317 317 318 316 322 325 325 321 324 326 327 327 326 327 327 326 326 326 325 325 324 323 321 319 318 315 314 312 310 309
318 319 318 319 319 318 317 317 320 320 321 322 319 320 318 316 316 316 316 320 322 322 319 321 321 323 324 325 325 325 325 325 325 325 324 324 322 320 319 316 315 312 309 307
317 317 318 319 318 318 319 318 319 321 321 318 319 322 319 318 317 317 313 313 317 318 318 320 321 323 324 324 324 325 325 325 324 324 324 324 323 322 319 316 315 312 309 307
318 319 319 319 320 318 319 319 316 319 319 318 318 317 313 317 320 319 318 318 316 318 318 321 322 324 324 324 325 325 326 325 325 324 324 323 324 323 321 317 315 311 308 305
316 317 319 320 319 319 319 317 319 317 322 323 317 317 315 315 318 321 321 321 322 320 321 323 323 324 325 325 325 325 325 325 325 325 325 326 325 324 322 317 314 312 309 306
315 314 315 320 319 318 318 317 314 315 314 318 317 316 311 313 315 317 318 317 319 321 321 323 324 326 325 325 326 326 325 325 325 326 326 326 325 323 318 316 315 313 310 303
316 313 313 316 318 316 315 317 315 316 316 315 313 316 312 310 311 312 316 318 316 320 321 321 323 325 326 326 325 325 325 326 325 326 326 325 322 319 314 312 310 308 303 300
317 315 314 315 314 316 319 317 316 313 311 316 315 316 311 310 310 311 314 317 317 319 320 321 321 322 324 325 325 325 326 325 324 325 324 320 316 313 310 307 305 302 300 300
315 315 314 315 314 315 319 317 316 316 315 315 314 314 313 313 312 310 310 308 316 318 319 319 320 320 323 323 323 324 323 323 321 318 315 311 308 306 304 304 303 300 300 300
315 316 315 314 315 316 316 317 315 315 315 317 316 314 313 312 311 309 308 312 314 319 319 317 317 316 319 321 321 321 320 317 315 312 308 306 304 303 302 301 300 299 299 298
313 316 314 317 315 315 319 316 315 315 315 314 314 313 310 310 309 308 309 309 309 309 309 310 312 313 313 315 319 320 319 317 315 311 306 304 302 301 300 299 298 297 296 296
314 314 313 317 312 314 314 313 315 314 313 314 315 313 308 309 309 309 308 307 307 307 308 308 307 308 310 311 313 314 313 310 308 306 303 302 301 300 298 297 296 296 297 298
313 312 309 311 310 313 314 312 313 313 312 311 311 309 308 308 307 307 307 306 306 306 303 301 301 303 305 306 306 307 306 305 304 303 301 300 298 297 296 296 297 298 298 297
312 310 312 313 313 312 315 311 311 311 310 308 308 309 308 308 309 309 303 301 300 299 297 297 297 298 300 300 301 302 300 300 299 297 297 296 296 296 296 297 297 298 296 295
311 309 312 308 313 314 313 312 308 309 311 308 309 309 310 308 310 310 301 299 297 295 296 295 296 297 298 297 299 298 295 296 295 295 296 296 297 297 297 298 298 295 294 292
311 309 310 303 309 312 311 310 308 311 311 308 309 309 308 309 305 301 298 296 295 295 295 294 295 294 294 295 296 295 295 296 296 296 297 297 298 298 298 296 293 292 292 292
318 315 309 306 308 318 308 310 310 309 308 308 307 307 308 302 300 298 297 296 295 294 294 294 294 294 295 296 296 296 296 297 298 298 297 296 294 293 292 292 291 291 291 291
318 316 315 315 315 311 309 309 308 306 308 308 308 308 305 301 299 298 296 294 294 293 294 294 294 294 295 295 295 294 294 294 293 292 292 291 291 291 290 290 290 290 290 290
313 310 313 313 313 312 312 310 309 310 310 308 308 305 302 299 298 296 295 294 293 293 292 293 293 292 292 292 292 292 292 292 291 291 290 290 290 289 289 289 289 288 288 288
312 311 313 312 313 312 310 307 305 303 302 302 300 299 299 298 297 296 295 293 293 292 292 292 292 291 290 290 290 290 291 291 290 290 290 289 289 289 289 288 288 288 288 287
311 312 313 314 312 311 310 304 302 302 301 300 299 298 297 297 296 294 293 292 292 292 292 291 290 289 288 288 288 287 288 289 288 287 286 285 285 284 284 284 283 282 283 284

GFSCGP_925_thetae_045.txt.gz
Theta_e
319 321 322 319 317 317 319 320 320 319 316 324 326 325 325 331 331 332 331 331 331 330 327 327 326 327 324 324 324 324 324 326 327 325 321 321 323 325 327 326 325 324 323 321
319 322 319 317 317 319 319 320 320 318 317 319 318 319 319 328 332 332 332 332 331 331 329 328 327 326 326 324 324 324 325 326 327 325 321 321 323 325 325 322 320 320 320 319
320 318 318 319 319 320 320 320 320 321 318 315 317 318 317 323 327 328 330 331 330 331 331 330 328 327 326 326 324 325 325 326 327 326 323 322 323 325 323 320 319 319 319 318
319 317 318 320 320 319 320 317 319 320 321 321 315 319 316 318 327 328 329 331 331 330 330 331 330 329 327 327 326 324 325 325 326 327 324 322 323 323 321 320 318 318 316 315
320 319 320 320 320 318 320 318 320 320 321 320 319 320 319 317 319 328 329 330 331 331 329 331 331 331 329 328 326 325 325 325 326 327 326 323 323 323 320 319 317 316 315 313
317 316 319 320 318 317 318 319 318 318 320 324 320 320 322 320 320 319 322 328 330 330 328 328 330 331 330 329 327 327 326 326 325 326 326 323 322 321 320 318 316 314 313 312
318 319 318 319 320 319 318 321 324 325 326 326 320 322 323 320 317 318 319 319 326 329 328 327 329 330 330 328 327 326 326 326 325 324 325 324 322 321 321 319 317 315 312 311
319 318 319 319 320 322 320 321 327 323 325 322 320 324 321 319 317 319 319 317 316 324 325 326 328 329 328 328 327 326 326 326 325 324 325 323 323 322 322 320 318 316 314 312
319 319 317 318 319 319 320 322 318 323 320 325 321 320 318 318 321 321 322 320 319 319 322 323 325 326 327 326 326 326 325 326 325 324 323 323 322 323 322 321 320 319 315 313
319 319 319 320 320 319 319 318 323 321 325 325 320 319 318 318 318 320 322 322 322 322 321 321 323 324 325 326 326 326 326 326 326 325 324 323 322 323 321 321 320 318 314 313
316 318 317 320 321 321 320 320 317 318 319 322 321 320 317 317 317 319 320 320 321 324 324 324 325 324 324 325 325 325 326 326 326 325 324 323 322 322 321 321 319 317 312 307
317 319 319 319 317 316 318 321 320 325 321 318 319 320 314 315 314 314 316 319 320 321 324 325 326 326 326 325 325 325 325 325 325 324 324 324 323 322 321 318 316 314 309 306
318 317 318 317 316 317 320 318 316 316 316 320 328 322 313 314 314 313 315 316 320 321 324 325 326 326 327 326 326 325 325 325 324 323 323 320 319 317 315 312 311 312 309 305
316 317 319 319 318 318 320 319 317 320 322 322 320 320 318 318 316 316 314 312 312 320 322 324 326 326 325 325 326 325 324 323 323 321 316 313 311 310 309 309 308 307 303 302
318 319 317 315 313 316 318 319 318 319 320 323 322 317 318 317 316 314 311 314 317 320 320 320 321 323 324 324 324 323 322 322 321 319 314 311 310 306 304 302 300 299 299 298
315 319 316 316 315 316 319 317 317 316 316 316 316 317 315 313 311 312 312 314 313 313 313 314 314 313 313 316 318 318 316 314 312 310 308 306 303 301 301 300 299 298 298 296
316 318 318 320 313 315 319 317 317 317 316 318 319 319 313 312 312 312 312 311 312 311 309 309 309 308 307 308 311 310 309 309 307 305 303 301 300 299 298 297 297 297 297 299
317 316 314 319 313 322 319 312 314 317 316 314 313 313 312 312 310 309 309 311 309 307 306 305 305 303 302 303 304 304 305 304 303 302 301 299 298 296 296 297 298 298 298 298
314 314 315 321 319 317 315 314 315 315 316 313 314 311 310 310 312 309 304 305 304 302 301 300 299 299 299 299 300 300 300 300 299 298 297 297 297 297 297 297 298 298 298 297
310 312 322 313 321 323 319 313 310 311 317 312 311 311 311 312 317 315 304 301 300 299 298 298 297 297 297 297 298 298 298 298 297 297 297 297 297 297 298 298 298 297 294 293
316 314 319 314 321 319 314 311 310 318 319 311 311 312 313 314 311 308 301 299 298 297 296 296 297 296 296 297 298 298 298 297 297 298 298 298 298 298 298 295 293 292 292 291
321 320 319 314 320 323 311 309 316 318 310 311 311 312 312 306 302 302 300 298 297 297 296 296 296 296 296 297 297 297 297 297 297 297 296 294 293 292 291 291 290 290 290 290
322 319 321 320 322 317 311 315 311 309 312 310 312 310 307 304 302 300 298 297 297 296 296 296 296 295 295 295 296 295 293 293 292 291 290 290 290 289 289 289 289 289 289 289
313 312 319 318 317 315 313 311 311 310 310 309 310 309 306 304 301 299 297 297 296 295 295 295 294 293 292 291 291 291 291 290 290 290 289 289 289 289 288 288 288 287 287 287
316 314 316 316 313 313 314 312 311 308 307 306 305 305 304 301 299 298 297 296 295 294 293 293 292 291 290 289 288 289 290 290 289 288 287 286 285 284 284 283 283 282 283 282
313 315 317 319 316 317 316 314 307 307 307 305 303 301 300 300 298 297 296 294 293 293 292 291 290 288 287 285 285 285 286 286 286 285 283 281 281 281 281 281 280 280 279 279

GFSCGP_925_thetae_048.txt.gz
Theta_e
322 323 323 320 319 319 321 321 320 322 322 326 325 324 325 333 334 331 330 330 331 332 328 327 324 324 324 325 325 325 327 328 329 327 323 320 322 324 328 328 327 326 323 321
323 324 321 321 321 320 322 321 321 322 320 321 322 321 322 330 333 331 329 330 329 330 330 328 328 326 325 325 325 325 326 327 329 328 324 321 320 323 325 326 327 325 323 321
322 321 321 322 322 322 323 322 322 322 322 320 321 321 322 324 330 332 330 329 329 329 331 330 328 328 328 326 327 326 325 327 329 328 326 323 322 325 325 325 324 322 321 320
321 321 321 322 322 322 323 322 321 322 322 322 321 322 320 323 326 330 331 332 331 330 330 331 331 330 329 328 326 326 327 327 329 330 327 324 322 324 325 326 325 322 320 318
321 322 322 322 322 322 321 321 322 323 322 322 322 321 321 321 322 326 329 330 331 330 330 330 331 331 331 329 329 327 326 327 328 329 329 327 323 323 326 327 325 322 319 317
320 320 322 321 322 321 321 322 322 323 323 326 321 322 321 321 321 321 323 328 330 331 331 330 329 331 332 331 330 330 328 328 328 328 329 329 327 325 326 326 324 322 318 316
320 320 320 321 322 322 322 323 325 326 327 327 323 323 322 322 322 323 323 323 325 330 332 332 331 332 332 333 332 332 330 329 328 328 328 329 329 328 327 325 324 323 318 314
320 320 320 321 320 322 323 323 325 327 327 325 323 323 322 322 321 322 324 324 323 323 329 332 332 331 333 333 334 333 331 330 329 329 329 329 329 327 327 326 324 321 317 316
319 319 319 321 321 321 323 324 322 325 326 327 323 322 321 321 322 322 325 325 324 322 325 329 330 330 332 333 334 333 332 331 330 328 328 328 327 326 326 326 323 319 318 315
320 320 321 322 322 322 323 322 325 325 327 325 323 322 319 319 319 320 320 323 326 326 324 325 326 328 330 332 333 333 332 331 330 329 328 328 327 326 325 325 318 319 317 314
319 320 323 323 324 323 324 324 323 323 324 325 323 322 320 319 320 322 322 323 324 327 328 327 327 326 327 329 330 331 331 331 330 330 329 329 327 326 325 324 320 319 318 314
319 320 321 321 321 321 321 322 324 324 322 323 324 323 319 320 320 321 321 322 325 325 327 328 329 329 328 329 329 329 329 330 330 330 329 329 328 325 324 322 320 319 315 311
320 320 321 320 320 320 321 321 321 322 322 322 330 323 320 320 320 320 320 322 324 325 326 329 330 331 331 330 329 329 329 329 329 329 327 326 322 319 317 315 314 314 312 310
320 319 319 321 319 319 321 320 320 321 324 322 324 321 321 321 320 321 320 319 319 320 326 329 330 331 330 330 330 330 329 328 326 323 322 319 317 314 313 312 311 309 306 304
320 319 320 318 317 317 317 318 320 320 321 322 322 322 321 321 322 321 320 317 319 321 325 327 329 330 330 330 329 328 327 324 322 320 316 313 311 310 309 309 308 305 302 300
320 319 320 320 319 318 318 317 318 319 319 321 321 321 320 321 321 319 318 319 321 322 323 323 323 323 322 322 324 322 320 318 317 316 313 309 308 307 305 302 301 300 299 298
322 320 321 320 320 319 322 320 319 320 321 322 322 321 320 320 320 320 319 319 320 319 319 318 317 316 316 317 318 317 315 314 313 311 308 305 303 301 300 300 300 299 299 299
323 322 323 322 320 330 319 319 320 320 321 321 320 320 319 319 319 317 318 318 316 315 314 314 313 312 312 312 312 312 311 310 309 307 305 302 302 301 300 300 300 299 299 299
322 323 324 331 324 320 318 317 319 321 321 320 320 319 318 316 315 314 315 315 314 313 312 310 309 309 309 309 308 308 307 306 305 304 303 302 301 301 301 300 299 299 299 299
320 321 327 321 325 334 321 319 318 318 323 319 318 318 318 316 320 319 312 310 309 308 308 307 307 306 306 306 306 306 305 304 303 302 302 301 301 301 300 299 298 297 296 296
321 321 327 327 329 324 320 318 316 321 324 319 318 318 317 318 318 316 310 309 307 306 305 305 306 305 305 305 305 304 303 302 301 301 301 300 299 297 296 295 295 295 294 294
323 325 327 326 331 330 317 315 320 322 320 319 319 318 318 317 314 311 309 307 305 305 303 304 304 304 303 304 303 303 302 301 300 298 296 294 294 294 294 293 293 292 292 292
323 323 326 323 325 323 318 320 318 320 320 318 319 317 317 313 312 309 307 306 305 304 303 303 302 302 301 301 301 300 299 298 297 295 294 293 292 292 292 292 292 292 292 291
319 318 323 322 321 321 320 318 317 316 318 316 317 317 315 313 310 308 306 305 304 303 303 302 300 299 298 297 296 295 294 294 293 293 292 292 291 291 290 290 288 287 287 286
320 318 321 322 322 318 319 319 319 315 314 314 314 315 313 312 309 307 305 304 303 302 300 300 298 297 295 293 292 292 292 292 292 291 290 289 287 286 285 284 283 283 283 281
318 320 324 324 322 322 322 321 319 317 315 314 314 313 312 310 308 306 304 302 301 300 298 297 296 294 292 290 290 290 290 290 289 287 285 284 284 284 284 283 283 281 279 278

GFSCGP_925_thetae_051.txt.gz
Theta_e
321 322 323 323 322 320 319 320 319 321 324 324 326 325 328 331 331 331 330 330 329 330 329 327 326 325 324 325 325 325 325 325 325 325 323 319 322 323 323 325 328 328 328 327
323 323 322 322 321 321 320 321 320 322 322 322 323 324 323 329 331 329 330 330 329 329 330 327 327 327 326 325 325 326 325 326 327 326 324 321 319 321 322 324 327 327 327 326
323 323 322 321 321 320 320 322 322 323 324 321 321 320 321 322 327 329 327 328 328 329 330 330 326 326 326 326 326 327 327 328 328 328 326 323 321 321 323 324 327 327 327 327
322 322 322 322 322 320 321 321 322 321 321 321 323 321 324 323 325 329 328 327 327 328 330 330 330 328 326 326 326 327 327 327 327 327 327 325 323 321 322 324 325 327 326 325
321 321 322 322 323 321 322 322 321 321 322 323 324 323 324 322 323 325 329 329 328 328 329 330 330 329 329 327 327 327 327 326 326 328 328 328 325 323 324 325 326 327 326 324
320 321 322 322 322 322 321 323 322 323 323 325 324 324 323 324 321 322 324 327 329 328 328 329 329 329 330 329 329 328 327 327 327 328 329 329 327 325 323 326 328 327 326 325
320 322 322 322 322 323 322 323 326 327 326 328 324 323 322 325 323 322 322 323 326 328 329 329 329 330 331 331 331 331 329 327 327 328 329 329 329 328 326 325 328 327 326 324
322 322 322 321 321 325 323 323 327 331 331 328 325 323 322 324 322 322 322 324 324 326 329 329 329 329 331 332 333 332 331 330 328 329 330 330 330 330 330 329 328 327 327 325
322 322 320 320 321 321 324 324 323 325 328 328 326 323 325 323 320 321 322 324 326 326 326 328 330 330 330 333 334 334 333 333 331 330 327 324 330 332 331 330 329 328 327 324
320 322 320 320 321 321 322 324 325 326 329 330 324 323 322 321 320 319 320 322 326 327 325 326 329 329 330 332 334 335 336 334 333 331 330 330 331 332 330 329 328 328 322 320
320 320 321 323 323 323 324 326 325 325 325 331 328 325 322 321 320 320 321 321 321 326 328 327 327 327 329 330 333 336 336 336 334 333 333 332 330 329 328 327 327 325 321 319
320 321 324 324 322 321 323 324 325 327 328 325 326 326 322 321 321 321 321 321 321 322 327 329 329 328 329 330 332 334 335 334 333 333 333 332 329 328 326 326 325 323 321 319
320 320 323 323 323 323 324 324 324 325 325 326 332 326 321 321 320 320 320 320 322 323 325 329 331 331 330 331 331 332 332 332 332 332 332 330 327 325 323 323 322 320 319 317
321 321 321 324 322 321 322 321 321 323 329 325 323 322 322 321 321 321 321 321 322 324 325 325 329 331 331 331 331 331 332 331 332 331 330 324 321 318 316 315 314 312 311 309
322 321 320 319 319 320 320 320 320 321 322 324 323 321 322 321 321 321 321 321 320 321 323 326 327 329 330 331 332 332 330 329 326 322 319 316 316 314 312 311 309 307 304 303
321 322 322 320 319 319 318 318 318 318 319 320 320 320 321 320 320 321 322 321 321 322 322 325 328 331 332 332 331 329 326 325 324 321 318 315 314 314 311 309 307 306 304 303
322 324 322 323 320 320 324 319 318 318 318 319 320 320 320 320 320 320 320 320 321 323 324 326 327 327 326 326 324 322 321 319 317 315 313 311 309 307 305 305 304 304 303 303
323 322 323 327 324 329 321 319 319 319 319 319 320 320 320 319 319 320 320 321 322 323 323 322 321 320 320 319 318 317 316 315 313 311 309 307 306 305 305 305 303 303 302 302
321 325 327 329 327 320 319 320 320 320 320 319 319 320 320 319 320 320 319 321 321 320 318 317 316 316 316 315 315 314 313 311 310 308 307 306 305 305 304 303 302 302 301 300
319 323 328 327 327 328 322 320 320 320 324 320 320 320 319 318 322 320 319 319 318 317 315 314 314 314 313 312 312 311 310 309 308 307 306 305 305 304 302 301 299 299 299 299
324 326 330 330 329 323 320 319 320 325 325 321 320 319 319 319 320 320 318 316 315 313 313 312 312 312 311 311 310 309 308 307 306 305 304 303 302 301 299 298 298 298 297 296
325 325 330 329 331 331 321 321 322 323 324 322 321 320 320 319 320 318 316 314 313 312 311 311 311 310 310 310 309 308 307 305 304 302 301 299 298 297 298 297 295 294 294 294
324 324 326 325 325 324 321 323 321 322 322 324 322 321 320 321 318 316 315 313 312 310 310 310 310 309 308 308 307 306 304 302 301 300 299 297 295 294 294 294 294 294 293 293
319 319 325 323 322 322 323 321 321 322 322 322 322 320 320 320 318 315 313 312 311 310 310 309 308 307 306 305 304 303 301 300 298 297 296 295 294 293 292 292 289 289 288 288
317 318 320 320 319 320 321 322 323 321 320 320 318 319 319 319 316 314 312 311 311 309 308 307 306 305 303 301 299 298 297 296 296 294 293 292 290 290 288 287 286 285 283 281
316 319 322 323 317 323 323 322 321 322 321 319 318 318 318 317 315 313 311 310 309 308 306 305 303 301 298 297 296 296 295 294 293 291 290 289 288 287 287 286 285 282 282 280

GFSCGP_925_thetae_054.txt.gz
Theta_e
319 319 319 320 322 323 321 320 319 323 324 324 327 327 330 327 329 329 330 328 329 329 327 325 323 321 320 320 321 319 319 318 318 320 320 320 323 323 320 320 322 326 325 326
320 321 320 322 323 323 321 320 320 321 323 322 321 322 330 330 332 329 329 329 329 330 329 327 325 323 323 321 321 321 320 317 318 322 323 321 321 323 321 321 326 326 326 327
322 322 322 321 323 321 320 319 320 323 324 322 321 320 320 328 329 328 328 329 328 329 330 328 327 325 324 326 326 325 324 322 322 324 325 324 321 322 323 323 325 324 327 326
321 322 323 323 322 321 321 319 320 323 324 322 322 323 321 322 325 328 327 328 329 329 330 329 328 328 326 328 327 327 327 327 326 326 327 326 323 321 322 322 325 326 327 327
322 322 322 323 322 322 321 323 323 320 320 322 323 324 323 323 323 326 328 327 328 329 330 330 328 328 328 328 327 327 327 327 326 327 328 328 325 322 321 323 324 327 328 327
321 321 321 321 322 322 322 322 323 322 322 326 322 324 326 324 324 324 326 327 327 327 329 330 329 327 327 327 328 328 328 328 328 330 329 329 327 325 324 324 325 327 328 327
321 320 321 321 322 322 322 323 326 327 327 330 324 325 325 325 324 323 324 326 328 327 328 330 330 330 329 327 327 329 329 329 328 328 329 327 328 329 326 325 326 328 328 327
322 322 320 322 322 323 323 323 328 331 334 330 328 328 324 323 324 323 322 323 325 328 328 328 329 331 330 330 330 329 329 329 329 328 329 330 329 329 329 327 326 328 328 327
322 321 320 322 321 321 325 324 323 327 329 334 331 325 325 324 323 321 322 322 324 325 328 328 328 329 331 331 332 332 331 329 329 329 328 328 330 330 328 328 328 328 328 327
321 324 321 322 321 321 321 324 327 325 332 333 327 326 326 324 321 320 321 323 325 327 326 326 328 329 331 332 333 333 333 332 331 329 328 328 328 327 327 321 329 330 328 327
321 323 323 321 321 321 321 323 327 327 326 332 332 328 325 324 322 321 322 322 323 325 328 327 328 329 330 332 334 336 335 334 334 331 329 329 325 324 325 330 330 329 328 325
321 323 324 322 321 321 321 323 325 330 328 330 333 329 323 324 322 323 322 321 322 324 328 329 328 328 328 331 334 336 336 336 336 333 331 331 331 331 330 329 328 327 326 323
320 322 324 321 323 323 322 323 324 326 327 330 336 329 322 322 322 322 322 322 322 323 327 329 330 330 329 330 331 336 337 337 336 334 331 331 331 329 328 327 325 324 323 321
320 323 323 325 326 324 324 322 325 326 330 329 330 327 326 322 322 320 321 322 321 323 324 328 330 331 331 331 332 333 334 334 334 332 329 328 326 325 322 320 319 318 316 315
322 323 324 321 320 322 323 322 322 324 324 330 329 324 322 323 323 324 323 323 322 321 323 325 329 331 332 332 332 333 332 328 325 324 321 319 319 318 316 314 312 311 309 307
321 324 323 324 320 320 321 321 321 320 320 320 322 323 322 321 321 323 322 323 322 320 320 322 326 329 331 332 332 330 327 325 323 320 318 316 315 313 311 308 306 304 303 303
323 324 324 325 322 320 320 321 320 320 321 320 321 322 321 321 320 321 320 321 321 321 321 323 326 329 332 332 330 329 327 325 321 318 317 316 312 310 308 308 305 304 303 303
322 323 323 327 324 325 320 320 320 320 320 319 319 319 319 320 320 320 320 321 322 323 324 326 328 328 328 327 325 323 322 319 316 314 312 310 308 307 306 306 304 303 302 301
320 323 328 327 326 323 320 321 320 321 320 320 319 319 319 319 321 321 321 321 323 324 324 324 323 324 324 321 320 318 316 314 312 310 309 308 307 306 305 304 303 302 301 301
320 320 325 331 327 327 323 321 320 321 322 321 320 321 321 321 323 321 321 321 322 322 320 319 319 319 318 317 316 314 313 311 310 309 308 307 306 305 303 302 301 301 300 300
320 319 326 328 329 326 320 320 319 323 323 323 322 322 322 321 321 322 321 321 320 319 317 317 316 316 315 314 313 312 310 309 308 307 306 305 303 302 301 300 299 300 298 297
320 321 326 327 329 329 322 321 322 322 323 325 324 323 322 322 323 321 320 319 318 317 315 315 314 314 313 312 311 310 309 307 306 305 303 302 301 300 299 299 297 295 295 295
321 319 323 324 325 325 322 322 323 323 325 325 324 324 323 324 322 320 319 317 316 315 313 313 313 312 311 311 310 308 307 306 304 302 300 300 298 298 297 296 295 295 294 292
319 318 322 323 319 318 323 323 322 322 323 323 323 324 323 323 320 319 317 316 314 313 312 312 312 311 310 310 308 306 304 302 302 300 298 296 295 294 294 292 291 290 289 288
317 317 321 321 320 319 318 319 322 322 323 323 321 320 321 322 320 317 316 314 313 312 311 311 310 309 309 307 305 304 302 301 299 297 296 294 293 291 289 287 287 287 283 284
315 315 318 323 320 322 322 321 322 319 320 322 320 320 319 321 320 317 315 313 312 312 310 309 308 307 305 302 301 300 299 297 296 294 292 290 289 288 288 286 283 283 282 281

GFSCGP_925_thetae_057.txt.gz
Theta_e
316 315 316 314 315 317 318 321 318 317 323 322 327 328 324 323 328 329 327 327 326 327 324 320 319 318 317 318 318 318 317 317 317 316 315 315 315 315 317 317 317 321 319 320
316 317 317 317 317 319 322 320 318 318 323 322 320 329 325 325 328 327 327 327 326 326 325 322 320 320 318 318 318 317 316 314 314 313 315 316 316 316 316 316 317 317 320 324
318 319 318 318 319 321 321 320 317 318 322 321 320 319 329 327 326 327 325 325 327 326 325 323 320 320 319 319 319 315 316 315 314 314 316 317 318 319 318 321 320 322 324 325
318 319 320 320 321 321 320 319 319 319 321 322 318 320 320 329 327 331 329 326 327 327 325 323 321 320 319 319 320 318 319 318 316 319 321 320 321 320 322 322 320 319 325 325
319 320 320 321 322 321 321 322 322 322 320 318 319 320 319 326 329 330 329 326 326 327 326 325 322 322 321 320 320 320 320 318 317 318 321 322 324 320 320 321 322 321 323 324
318 318 319 320 321 321 321 322 322 322 320 321 321 320 320 321 321 326 325 325 325 327 326 325 325 323 323 324 323 323 322 321 318 319 321 324 326 323 321 320 322 322 326 325
319 320 319 320 320 320 320 321 323 324 323 322 324 325 322 321 322 322 324 324 324 326 327 326 325 325 324 324 326 325 325 325 325 324 325 326 326 327 324 321 321 323 325 326
320 322 320 319 319 321 320 320 324 327 329 326 327 327 324 322 321 320 319 321 322 324 327 327 326 326 326 326 326 326 326 326 326 326 326 326 326 327 327 324 324 324 324 325
320 320 319 318 320 320 324 322 321 323 329 327 328 328 323 321 320 320 317 318 319 321 325 328 326 325 325 327 326 327 327 326 327 327 328 328 328 327 328 327 325 325 326 326
318 322 319 320 319 319 320 322 324 322 328 330 327 326 324 323 322 318 319 318 318 320 320 323 328 327 326 326 326 326 327 327 327 327 327 327 328 328 327 328 328 324 324 326
317 318 321 321 321 321 320 320 322 325 326 327 326 324 322 322 321 319 317 317 320 322 321 320 321 326 328 328 327 326 326 327 328 327 327 327 328 329 329 329 329 327 326 328
317 319 319 320 320 320 320 320 320 327 328 326 324 325 321 320 319 320 317 317 317 321 321 322 323 324 325 329 329 329 329 328 328 328 328 328 327 328 327 324 327 324 329 327
317 318 322 322 319 320 320 319 321 322 326 327 327 327 321 321 321 319 317 316 317 322 323 323 324 325 326 329 330 331 331 331 331 330 329 328 328 325 326 327 328 327 325 323
318 318 319 321 321 321 322 321 320 322 322 324 326 326 325 323 321 318 318 318 315 317 324 324 325 325 327 329 332 334 335 334 330 330 330 329 328 327 326 324 325 324 322 321
320 319 318 319 320 322 322 323 321 321 323 326 325 324 323 321 318 318 320 320 319 318 323 325 325 325 327 330 330 326 328 330 330 329 328 323 321 322 321 321 319 316 315 313
320 320 318 319 319 321 322 323 321 320 324 324 324 324 322 320 318 318 319 319 319 317 318 323 327 328 328 330 327 324 321 321 322 321 320 320 318 316 314 313 311 310 308 306
322 320 322 321 319 320 321 320 320 321 319 320 320 318 317 320 318 319 318 319 317 316 315 316 326 329 329 329 326 324 322 321 320 318 317 315 313 311 310 307 305 304 303 302
319 322 320 319 318 324 320 318 318 319 320 318 317 316 316 316 316 315 316 316 316 316 319 327 326 327 330 329 327 324 321 318 318 315 312 311 310 308 307 305 304 302 302 301
318 321 320 322 323 321 321 319 319 319 318 317 317 316 315 315 317 319 317 317 318 319 320 321 325 325 325 324 322 318 316 314 312 310 309 308 307 305 304 303 303 302 301 301
313 320 319 319 323 323 320 319 319 319 319 319 319 317 318 315 316 315 316 319 319 318 319 320 321 320 321 320 317 314 312 311 309 309 307 306 305 304 303 303 302 302 301 301
314 314 319 320 323 321 319 319 319 320 318 319 319 319 319 317 316 315 316 318 316 315 316 318 317 317 317 316 314 311 310 309 309 308 306 306 305 304 303 302 302 300 300 298
317 317 317 319 322 324 320 320 319 317 317 319 319 318 317 318 317 316 317 316 315 314 314 315 314 314 314 313 311 309 308 308 307 306 305 304 303 302 302 300 299 299 297 296
319 317 319 319 318 320 318 322 319 318 319 321 321 320 320 319 318 317 315 314 313 311 311 313 312 312 312 311 310 307 306 305 304 303 302 302 302 301 299 298 296 295 295 294
316 316 317 319 318 315 315 317 318 319 319 319 319 320 321 321 318 316 314 313 311 309 309 311 311 309 309 309 308 306 304 303 303 302 301 300 299 298 295 294 293 291 290 289
314 315 316 318 317 317 317 315 316 317 318 317 318 317 318 321 320 315 313 311 309 310 310 310 309 309 308 307 305 304 303 302 300 299 297 295 293 290 289 289 289 288 286 287
312 312 314 318 317 317 319 319 318 318 316 315 316 317 317 316 315 313 311 309 308 308 309 308 308 305 303 303 302 302 302 300 296 293 292 291 288 287 287 286 283 282 282 281

GFSCGP_925_thetae_060.txt.gz
Theta_e
314 314 314 313 313 315 316 316 316 316 320 324 325 325 322 324 325 328 326 327 326 323 320 318 317 317 317 318 318 317 315 315 316 315 316 316 318 316 315 315 315 319 319 320
314 315 315 314 315 316 316 317 318 316 321 320 324 326 323 322 326 327 327 329 326 324 320 318 317 316 316 317 317 316 316 316 316 316 316 316 318 317 318 318 318 319 320 321
315 316 315 316 316 317 317 317 318 317 317 319 322 321 327 325 325 325 326 327 326 325 322 319 318 316 316 317 317 316 317 316 316 316 316 316 316 316 315 316 316 315 313 316
315 316 317 317 317 317 318 318 319 319 318 320 317 319 323 326 326 326 326 327 325 325 323 320 319 318 317 317 317 317 316 317 315 317 315 315 316 316 315 315 315 315 314 319
320 318 318 318 318 318 319 320 320 321 319 317 317 318 317 326 328 326 325 326 326 324 324 322 320 319 317 317 317 316 316 315 315 315 314 315 316 316 316 316 316 314 317 318
318 317 317 318 318 318 320 320 320 319 318 322 319 318 317 328 328 326 326 325 325 325 324 322 321 319 318 318 318 315 315 316 314 314 314 316 317 317 318 318 319 321 322 320
317 318 318 317 317 318 319 318 321 322 322 323 322 323 320 318 319 326 327 325 325 325 324 323 321 319 318 318 318 317 316 317 315 314 315 318 318 319 321 319 318 320 320 320
316 319 317 318 318 319 319 318 322 325 325 323 324 326 323 319 318 320 325 325 324 325 326 324 322 321 320 319 318 319 318 318 317 315 315 317 320 321 321 322 320 319 320 321
319 319 318 318 318 318 321 320 319 321 325 325 325 324 321 320 320 318 319 324 324 324 326 325 324 322 321 321 320 320 320 320 320 318 316 317 319 321 323 325 324 321 320 321
316 319 318 318 318 317 319 320 322 322 325 327 324 323 323 322 321 319 318 315 320 322 324 326 325 324 323 322 322 322 323 323 323 322 321 321 322 323 324 325 326 325 323 324
314 316 317 318 318 318 319 320 322 322 322 324 324 322 318 320 320 318 317 316 314 318 323 325 325 325 325 325 324 324 324 324 324 325 325 324 325 325 326 326 327 326 324 324
317 316 317 317 317 318 318 320 320 323 325 324 321 323 319 318 318 319 317 315 318 318 318 321 324 325 325 325 325 325 325 325 325 325 326 326 326 326 327 327 327 325 324 325
321 317 319 319 317 317 318 319 319 321 322 323 325 326 320 317 318 318 317 314 314 319 318 318 318 320 325 326 325 325 325 325 326 326 326 327 326 326 327 327 327 326 322 323
320 323 320 320 319 318 320 319 319 319 321 322 324 325 323 321 320 319 317 315 313 319 321 320 321 321 323 325 326 326 325 325 325 327 327 327 327 327 327 326 327 326 324 325
322 325 320 319 317 318 320 321 320 319 320 321 321 323 322 321 321 319 316 316 315 315 320 321 322 321 325 329 328 328 328 328 327 328 327 327 327 326 325 324 324 325 323 321
319 322 322 320 318 318 319 319 321 321 319 320 321 323 321 319 318 318 317 317 316 314 318 322 323 323 327 327 327 327 327 329 329 328 326 325 322 321 321 321 321 318 316 314
316 320 320 322 317 318 320 319 319 320 320 320 322 320 321 321 320 319 317 317 316 315 314 321 323 324 328 326 326 325 323 325 325 322 317 316 317 315 314 315 313 312 310 309
316 316 318 320 315 324 319 318 318 318 319 318 317 316 318 318 318 315 316 317 315 314 312 315 323 324 328 325 323 322 320 318 318 316 315 313 313 311 309 308 307 305 306 305
319 318 317 321 322 320 320 319 318 319 319 317 317 315 314 313 314 317 314 313 313 313 313 318 323 326 326 323 321 320 319 317 316 314 313 312 311 307 305 303 304 303 302 300
314 314 316 317 320 324 318 317 317 318 319 316 316 317 317 315 314 313 314 317 317 318 320 321 322 322 322 321 318 317 315 313 312 311 309 308 306 304 303 303 302 301 301 301
312 310 316 318 321 319 318 319 317 321 319 317 318 318 317 316 314 313 315 318 317 318 318 320 321 320 316 316 315 312 310 310 309 308 307 306 305 305 304 303 302 301 301 300
313 313 315 317 321 320 319 321 321 317 318 320 320 317 316 315 315 314 317 316 315 315 315 317 316 314 314 315 314 309 308 308 307 305 305 304 304 303 303 302 301 301 299 297
315 314 315 315 316 316 317 319 320 317 318 319 318 318 319 316 316 315 316 315 314 314 312 314 312 310 311 312 312 306 305 306 305 304 303 302 303 302 302 301 299 296 294 292
311 314 317 318 316 317 315 316 318 317 317 318 316 317 316 318 316 316 313 312 311 310 310 310 309 307 306 308 307 307 305 305 304 302 301 301 301 299 298 298 297 294 292 290
309 314 315 316 315 315 315 316 315 314 317 317 315 315 315 315 316 315 313 311 309 308 309 309 307 306 304 305 304 303 304 304 301 300 299 297 295 294 291 291 291 290 289 290
310 313 315 315 314 313 314 313 316 314 314 315 315 315 314 315 315 315 312 310 309 308 307 306 303 302 301 301 301 301 301 302 300 294 291 291 290 287 285 284 282 282 284 285

GFSCGP_925_thetae_063.txt.gz
Theta_e
312 313 314 314 313 313 314 315 314 313 314 322 322 320 321 321 324 324 326 326 324 322 319 317 318 318 318 319 319 319 318 317 317 316 317 320 320 320 319 322 320 321 322 322
314 315 314 313 313 314 314 315 315 314 315 319 319 322 321 322 324 323 325 327 326 323 319 317 316 317 317 318 318 317 317 317 316 317 318 318 318 316 316 317 318 317 321 321
316 316 314 314 314 315 314 315 315 315 315 316 321 321 323 322 321 325 325 326 325 324 321 318 316 315 316 318 317 316 316 316 316 316 316 316 317 316 316 315 315 316 317 319
314 315 315 315 315 315 315 315 316 317 316 318 317 320 315 321 324 324 325 325 325 325 322 319 317 315 315 316 316 316 316 315 315 315 316 316 315 316 316 315 315 315 317 318
318 316 315 316 316 315 316 316 317 318 317 316 316 315 314 323 326 325 323 325 326 325 323 320 317 316 315 316 316 316 316 316 315 315 315 315 315 316 316 316 316 317 317 317
316 316 315 316 317 316 317 318 318 317 317 320 318 316 316 324 323 324 323 324 325 324 323 321 319 317 316 316 316 316 316 315 316 315 315 315 315 315 315 315 315 315 315 315
316 317 316 316 316 316 317 318 320 320 320 322 318 318 319 315 320 321 322 322 324 324 324 322 320 318 317 316 316 316 316 316 315 315 315 315 315 315 315 315 315 315 315 315
315 316 316 316 317 318 317 317 320 324 323 321 320 324 321 317 316 316 318 322 323 324 323 323 321 319 318 316 316 316 315 316 316 315 315 314 314 315 315 316 315 315 316 315
315 314 316 315 316 317 318 318 318 319 321 324 323 322 318 318 318 317 316 321 321 323 323 323 322 320 319 317 317 316 315 315 316 315 315 315 315 316 316 316 318 318 316 316
316 318 317 317 316 315 317 318 321 319 323 325 321 323 320 319 319 319 317 318 321 322 323 323 322 321 320 318 317 317 317 315 315 316 314 314 314 315 317 318 319 320 320 321
314 315 317 316 317 317 317 318 320 320 319 323 323 321 316 318 318 318 316 314 319 319 322 323 323 322 321 320 318 317 318 317 316 316 316 314 314 315 316 319 320 322 324 325
318 316 317 317 315 316 316 318 320 323 324 322 320 322 317 317 316 316 314 313 312 315 320 321 323 323 323 321 320 320 319 319 319 319 319 318 316 317 319 320 322 323 323 325
321 321 319 318 316 315 315 316 317 319 319 323 324 322 319 316 316 315 315 315 314 316 315 317 321 323 323 323 322 321 321 321 321 322 322 322 322 323 323 324 324 325 325 325
320 322 323 323 319 316 318 316 316 318 320 320 321 320 321 321 318 316 316 315 314 312 316 315 318 322 323 323 324 324 323 322 323 323 324 324 324 324 324 324 325 325 324 326
319 322 321 319 320 320 319 319 317 318 318 320 319 320 319 319 319 317 316 316 315 313 316 317 318 317 319 323 323 323 323 324 324 324 324 325 325 325 325 325 325 325 325 325
318 318 319 318 319 318 320 317 317 317 317 317 318 318 317 318 317 317 317 316 315 314 313 317 319 319 321 324 324 323 324 323 324 325 325 325 325 325 325 324 322 323 322 321
317 317 317 318 318 317 319 319 318 316 318 318 319 318 318 319 318 318 317 316 315 314 312 315 318 320 322 327 327 325 325 324 324 324 325 325 324 322 321 321 321 320 317 315
315 315 315 315 316 320 319 314 316 317 317 317 317 317 317 317 317 317 315 315 315 315 313 313 316 319 323 326 325 324 325 326 325 325 324 322 320 316 316 316 314 310 310 310
314 314 316 315 317 316 313 316 317 318 318 316 317 316 316 314 312 311 311 310 312 313 313 311 315 320 323 323 323 321 322 322 321 319 318 317 316 314 312 309 308 307 307 306
317 315 314 317 318 316 311 313 312 317 319 315 316 317 317 315 313 312 311 312 311 309 312 315 320 323 322 321 321 318 318 319 317 315 315 314 312 310 307 307 305 305 305 303
314 313 317 316 316 315 314 316 318 324 320 319 319 318 315 315 315 313 311 314 316 316 318 319 321 321 320 319 319 315 314 314 313 313 312 310 308 307 307 305 303 301 299 299
312 312 310 312 315 317 316 315 317 316 316 319 318 318 317 316 313 312 312 314 316 317 317 318 316 314 316 317 317 311 309 309 311 310 308 307 306 305 303 301 299 299 299 297
312 310 311 312 314 313 313 313 313 314 318 316 317 317 315 315 315 314 313 314 314 316 314 315 312 310 312 313 313 309 306 309 307 305 303 303 302 301 301 301 299 297 297 293
307 310 312 313 312 312 312 314 315 318 318 316 315 315 315 315 314 314 313 313 312 310 310 310 310 308 306 310 309 308 306 306 305 302 300 299 300 299 298 297 298 296 292 289
306 308 309 309 312 312 314 313 313 314 315 316 316 315 315 315 314 315 314 312 310 309 309 310 308 305 303 306 306 305 304 304 301 298 296 295 296 296 293 291 290 291 290 291
309 310 311 310 312 311 313 312 312 315 314 314 314 313 313 315 315 314 313 310 308 307 306 304 303 302 301 301 301 302 302 302 298 293 292 291 290 288 287 286 284 287 288 289

GFSCGP_925_thetae_066.txt.gz
Theta_e
313 314 315 312 312 311 312 314 314 312 312 315 316 318 317 320 323 324 325 325 326 322 318 318 318 318 319 319 319 320 320 320 319 319 320 320 321 321 323 323 322 321 316 316
311 316 314 312 312 313 314 314 314 312 312 314 314 316 316 319 323 324 323 325 325 322 318 316 317 317 318 319 319 319 319 319 319 318 320 320 318 320 322 319 319 319 317 316
315 315 314 313 313 314 313 314 313 312 313 313 316 317 317 319 321 322 321 323 325 324 321 318 316 316 316 318 318 318 318 318 318 318 317 318 319 319 319 320 320 321 321 320
313 314 314 313 314 313 314 312 313 314 315 317 316 318 314 314 319 321 322 323 324 324 321 318 316 315 315 316 318 318 317 317 317 316 316 317 319 319 318 317 317 318 319 319
314 315 315 315 314 313 314 314 314 315 316 315 316 315 314 321 319 320 321 322 323 323 322 319 317 315 315 315 317 316 317 316 316 316 316 317 317 318 317 316 315 316 316 316
313 314 313 315 315 313 316 316 317 316 316 319 317 315 315 314 320 318 320 320 321 323 323 320 318 316 314 315 316 315 315 316 316 316 315 316 316 317 316 316 316 315 315 315
314 315 316 315 316 314 315 316 319 321 321 322 316 315 318 315 314 317 317 318 320 322 323 321 318 316 315 314 315 315 315 315 316 315 315 315 315 316 316 315 315 315 315 315
314 315 315 316 316 317 316 317 319 324 323 321 318 320 319 316 314 313 314 316 318 322 322 322 319 317 316 315 315 315 315 315 315 315 315 314 314 314 314 315 315 315 315 315
315 314 313 315 316 317 317 317 316 318 319 321 320 321 318 317 316 315 315 314 316 320 321 322 321 319 317 316 315 315 315 315 315 314 314 314 314 314 314 315 315 315 315 315
315 316 316 316 314 315 317 316 320 317 323 324 320 322 320 319 317 316 316 314 317 319 320 322 322 320 319 318 316 315 316 315 315 315 314 314 314 314 314 315 315 315 315 316
313 314 315 315 316 316 317 317 318 318 317 321 321 319 316 317 316 316 316 314 313 318 320 321 321 322 321 319 317 316 315 315 315 315 315 315 315 314 314 315 316 316 316 316
319 316 315 315 315 314 315 316 318 320 319 319 318 321 316 315 315 315 314 312 312 316 318 319 321 321 321 320 318 317 316 316 315 315 315 315 315 315 315 315 315 315 316 316
319 321 321 318 316 315 315 315 315 318 318 320 323 321 318 316 316 315 314 313 311 312 311 316 319 321 320 320 319 318 317 317 316 315 315 316 314 314 314 314 315 314 316 316
319 322 324 326 324 320 321 319 317 316 318 317 319 318 317 318 318 316 315 313 312 310 312 312 316 320 321 321 320 320 319 317 317 317 317 317 316 315 315 315 316 318 320 321
317 318 321 322 319 319 319 317 317 320 315 318 318 317 316 316 317 316 315 315 314 313 311 312 314 318 320 321 322 321 320 319 318 318 319 318 318 318 318 318 319 320 320 322
317 316 318 317 317 317 317 315 317 318 316 316 315 316 315 315 315 315 315 315 314 314 313 312 314 314 316 320 321 322 322 321 320 320 320 321 321 321 321 321 322 322 322 322
315 316 315 315 315 315 314 317 313 313 315 316 317 316 315 316 316 315 315 314 315 314 314 312 313 316 316 317 320 321 321 321 321 321 321 322 322 322 322 323 323 323 321 321
312 314 312 312 312 317 310 316 313 316 313 311 312 314 315 315 315 315 314 314 314 313 313 313 311 314 318 319 320 321 321 321 321 322 322 323 323 323 322 322 322 319 318 317
312 312 311 311 314 312 311 309 313 314 312 311 315 315 314 314 312 310 310 311 313 313 313 312 312 313 317 321 323 324 324 322 321 321 322 323 322 321 319 316 315 314 311 309
312 312 314 313 314 311 308 314 317 318 315 317 318 319 317 315 316 316 312 310 309 308 307 307 309 315 319 321 322 323 323 324 323 322 320 319 320 318 316 313 309 308 307 304
314 313 316 316 317 313 310 314 317 323 312 313 316 316 316 316 313 312 310 310 310 314 315 316 316 317 319 318 320 321 320 320 319 318 317 316 314 313 310 308 306 303 301 299
312 312 313 313 316 314 313 313 316 315 311 311 313 315 315 315 313 313 311 312 313 315 317 317 316 315 316 318 318 317 315 312 313 314 313 311 310 307 305 304 300 299 297 293
310 309 309 310 310 309 311 310 312 311 311 312 315 314 313 313 313 311 313 311 312 314 313 312 311 310 313 315 314 309 307 311 311 309 305 303 303 301 300 299 296 294 293 291
306 308 310 310 309 309 308 308 310 311 312 313 315 313 315 314 313 312 312 311 310 311 310 311 310 307 306 310 310 308 309 309 306 302 300 300 298 297 296 296 296 294 292 290
304 305 308 308 307 309 308 310 310 310 312 315 316 314 313 313 313 313 313 311 309 308 307 308 306 303 303 305 304 304 305 305 301 298 296 295 295 294 293 293 293 294 294 296
308 308 308 308 309 308 309 308 308 309 310 309 311 313 307 304 305 309 310 309 307 305 303 301 300 300 300 301 301 301 303 304 300 294 293 293 293 292 291 290 287 288 289 289

GFSCGP_925_thetae_069.txt.gz
Theta_e
316 315 319 316 315 313 314 314 315 314 313 314 315 317 319 318 324 326 326 328 330 327 325 320 319 319 318 319 320 321 322 323 324 323 322 324 323 324 323 320 322 322 317 314
314 317 316 315 313 314 314 315 316 315 314 315 316 317 318 319 322 324 325 327 329 328 324 320 320 319 319 318 319 319 321 321 322 321 319 319 320 321 321 319 322 321 317 315
312 314 315 315 314 315 315 316 316 315 314 314 316 319 319 319 321 322 325 325 327 328 325 321 320 319 318 318 317 319 319 320 320 320 319 319 319 318 319 318 320 320 319 317
313 311 315 315 316 315 316 314 315 315 315 314 317 322 319 320 318 320 322 325 326 328 326 323 320 318 318 318 317 319 319 319 319 319 319 319 319 317 318 319 320 319 319 317
315 315 315 315 315 314 315 315 315 315 315 316 316 320 319 317 320 320 321 322 324 325 327 325 321 319 317 317 317 319 319 319 318 318 318 318 319 319 319 318 317 316 317 317
314 314 314 314 314 314 315 316 316 317 318 321 319 320 321 320 321 321 320 321 322 324 326 325 322 319 317 317 316 318 317 317 318 317 317 318 319 320 318 317 317 317 319 319
315 315 315 315 316 314 315 317 319 323 323 322 319 320 322 319 318 319 320 320 320 323 325 325 323 320 318 317 315 317 317 317 317 317 316 316 317 318 319 317 316 316 316 316
315 315 316 316 317 317 317 317 321 321 325 323 317 322 321 319 318 317 316 318 318 321 325 325 324 321 319 316 316 317 316 316 316 317 317 316 316 317 317 318 317 316 316 316
315 312 313 315 317 318 318 319 318 320 320 323 321 321 321 320 321 319 319 318 320 319 323 325 324 322 320 318 317 316 315 315 316 317 317 316 315 316 316 316 316 316 316 315
315 317 315 315 315 317 319 317 321 320 322 322 321 322 322 320 320 320 319 319 319 319 321 324 325 322 321 319 318 317 316 316 316 317 316 316 315 315 315 316 316 316 316 316
313 316 316 315 316 317 318 319 319 319 321 322 322 322 320 322 321 320 321 319 319 318 321 324 324 323 322 320 319 318 317 317 317 316 316 315 315 314 314 314 314 315 315 315
319 316 317 314 314 315 316 318 319 322 321 322 322 322 318 319 319 319 320 319 318 316 318 321 323 323 323 321 320 319 318 317 317 316 316 315 315 315 314 314 314 315 315 316
318 321 323 319 317 319 319 317 318 318 319 320 325 322 319 318 317 319 319 320 318 315 316 319 322 323 324 323 321 320 319 318 317 317 317 316 315 315 315 315 315 316 316 317
319 320 322 325 323 321 321 319 318 318 321 319 319 318 318 319 318 319 320 320 319 318 315 317 319 323 323 323 322 321 319 318 318 317 317 317 316 315 316 316 316 316 316 316
318 318 319 318 318 320 318 318 316 315 318 322 320 318 317 317 318 319 319 319 317 317 317 315 317 319 322 323 322 322 320 318 318 317 317 317 317 316 316 316 315 315 315 316
310 317 319 319 318 318 318 317 316 315 317 317 316 318 316 317 316 316 317 317 317 318 317 317 315 316 319 322 323 322 321 319 318 318 318 318 317 317 316 316 316 316 316 318
309 317 317 317 316 316 315 315 315 317 315 317 317 315 312 314 315 317 318 319 318 318 317 318 317 317 317 318 321 322 322 321 319 319 319 319 318 318 318 317 317 317 318 319
308 312 314 316 314 316 310 311 313 315 315 315 313 314 318 318 317 316 316 317 318 317 317 317 317 316 316 317 318 321 322 322 321 321 320 320 320 320 320 320 320 320 321 321
307 310 315 317 316 313 311 310 311 314 314 316 319 319 318 317 316 316 315 314 315 315 316 316 315 315 314 316 317 319 321 322 322 322 321 321 321 322 322 322 321 321 320 320
309 311 314 316 316 315 310 312 317 315 315 316 316 316 318 317 321 319 317 315 314 313 311 311 311 311 312 314 318 320 321 321 322 322 322 322 322 322 320 319 318 317 316 313
312 312 312 315 315 315 312 312 318 317 316 315 314 314 316 317 316 316 315 315 314 314 315 318 317 314 316 318 320 323 323 322 321 319 319 319 319 318 317 316 314 311 307 304
311 313 314 313 315 314 311 314 316 312 314 313 314 314 316 315 315 315 314 315 314 315 317 317 317 316 315 318 321 321 318 315 317 317 316 315 315 314 311 310 305 303 301 296
311 312 314 314 314 311 312 314 311 311 313 313 313 314 314 315 315 314 314 314 313 313 315 313 314 312 312 314 316 310 309 313 312 311 309 308 307 305 304 302 297 294 293 291
308 307 311 310 309 309 309 309 311 310 311 312 313 313 314 316 314 314 313 314 312 312 312 311 310 309 307 308 310 310 310 309 307 302 300 300 299 298 297 296 295 293 292 290
307 307 309 309 308 309 309 309 308 308 309 307 305 307 310 308 309 309 310 308 308 307 306 305 304 303 301 302 303 305 306 306 302 298 296 295 294 294 292 292 292 292 292 294
308 308 310 310 308 307 307 308 305 304 304 301 299 299 298 297 299 305 298 297 296 297 297 298 296 294 292 292 293 296 300 301 297 294 292 292 291 290 288 287 286 288 290 291

GFSCGP_925_thetae_072.txt.gz
Theta_e
318 319 320 320 319 319 319 317 317 317 317 317 318 319 319 322 323 326 328 329 331 332 330 328 326 323 323 322 323 324 323 324 323 323 322 322 323 322 323 321 321 315 317 317
319 319 318 319 319 318 318 317 317 317 317 317 316 317 317 321 322 323 324 328 329 332 331 329 327 325 323 322 322 323 322 323 323 322 323 323 322 324 323 322 318 319 320 318
315 316 316 318 319 318 318 318 318 317 317 317 317 317 317 320 322 323 325 326 328 331 332 331 328 326 324 321 322 323 322 322 323 324 325 323 322 322 322 322 319 318 321 318
315 314 314 317 318 318 319 318 317 317 318 318 318 317 319 322 322 322 322 326 328 329 331 331 329 327 324 323 321 322 321 323 321 322 321 322 323 321 322 321 321 321 322 318
316 315 313 313 316 315 317 317 317 318 319 319 318 317 318 320 322 322 321 322 326 329 331 331 330 327 325 323 321 321 322 323 321 320 322 321 322 319 319 320 319 318 320 318
314 315 316 313 316 317 317 317 317 318 319 321 318 318 319 321 323 322 321 321 322 327 329 330 329 327 325 323 322 321 322 322 322 322 321 320 320 320 319 319 319 319 319 319
311 312 315 316 315 315 317 318 322 324 324 323 319 319 319 322 322 322 322 322 322 325 328 330 330 329 326 324 322 322 322 322 322 322 322 321 322 321 320 318 319 319 319 319
312 315 313 316 317 317 317 319 323 324 326 325 321 322 322 322 322 323 323 322 322 323 327 329 330 329 327 325 323 321 322 322 322 322 322 322 322 322 321 321 319 320 319 318
312 313 314 314 316 317 318 321 319 321 322 325 324 323 322 322 322 322 323 324 323 323 325 328 329 329 327 326 324 322 322 322 322 322 322 322 321 322 323 322 320 320 319 319
315 313 313 315 315 317 319 319 321 322 325 326 322 323 323 322 321 322 322 322 322 324 323 327 329 328 327 326 325 323 322 321 321 321 322 321 321 321 321 321 322 321 320 319
314 316 318 316 316 318 319 321 320 321 322 324 325 324 322 321 321 322 323 323 323 324 323 326 327 327 327 326 325 324 323 321 320 321 322 321 321 320 320 321 321 321 321 320
319 318 318 318 316 316 318 319 320 323 323 322 324 324 321 322 322 321 322 322 324 323 322 323 327 328 327 327 326 325 324 323 321 321 322 321 321 320 320 320 321 321 321 321
316 320 316 314 315 318 317 319 319 320 321 324 329 324 320 320 321 321 322 323 323 322 323 322 326 328 328 327 326 326 325 324 323 322 322 322 321 321 320 320 320 320 321 321
314 317 322 320 320 320 322 320 320 321 323 321 321 321 320 319 319 319 319 320 321 322 322 322 322 325 327 327 327 326 325 325 324 323 322 322 321 321 321 320 319 319 319 319
319 316 315 316 314 315 316 317 316 318 318 321 321 321 320 320 320 320 320 319 319 320 321 322 322 323 326 327 327 326 326 325 324 324 323 323 322 321 321 320 320 319 319 319
312 314 317 314 313 314 315 315 315 315 315 319 320 319 319 319 318 317 318 319 319 320 320 321 322 321 321 324 326 326 326 325 324 324 324 323 323 323 322 320 320 320 320 320
310 315 315 315 315 315 316 315 314 315 315 318 319 316 317 317 317 319 320 320 319 319 320 321 321 321 321 320 322 325 326 326 325 324 324 323 323 323 322 322 321 320 320 320
309 314 315 316 316 315 312 312 313 315 314 315 314 316 317 319 320 320 319 319 319 319 319 319 319 320 319 320 320 322 324 325 325 324 324 323 323 323 322 322 321 321 321 320
309 310 314 314 313 311 310 311 311 311 311 315 315 317 318 318 319 320 320 318 318 319 319 319 317 316 316 317 318 320 323 324 325 325 324 324 324 323 323 323 323 322 321 321
310 310 313 314 313 314 312 314 315 315 313 314 315 314 315 316 320 320 318 318 317 318 317 320 319 319 317 317 317 318 320 322 324 325 325 324 324 324 324 324 324 321 321 320
311 311 314 314 315 314 312 311 317 316 317 313 313 314 314 315 317 317 317 317 317 317 317 319 321 322 321 321 320 320 320 321 322 324 325 325 325 325 324 320 320 318 316 313
312 311 313 314 313 315 313 314 316 316 313 313 314 314 315 315 316 317 316 317 317 317 318 319 320 316 315 318 322 323 324 321 320 320 319 318 317 319 319 318 311 308 308 304
314 312 314 312 313 313 314 314 312 314 314 314 315 315 316 317 317 317 316 317 316 315 315 316 313 309 306 308 315 317 313 313 313 312 310 311 310 308 306 306 301 300 297 293
308 309 312 311 310 311 310 311 312 312 313 312 311 311 312 313 316 316 315 313 312 310 309 307 308 304 300 299 301 305 306 307 306 303 302 300 300 299 299 298 298 295 293 290
308 308 309 309 309 310 309 311 311 311 311 309 307 306 305 305 308 308 310 305 303 302 299 300 299 298 296 295 294 296 299 302 299 297 296 294 293 291 290 290 291 291 292 292
308 307 310 309 311 311 310 310 309 309 309 306 304 303 301 300 301 302 300 296 297 295 293 293 292 292 293 292 292 294 295 295 295 293 292 291 290 288 287 286 285 289 290 289

GFSCGP_925_thetae_075.txt.gz
Theta_e
310 314 316 317 317 320 322 322 322 322 321 319 320 320 321 322 322 324 325 327 330 332 331 330 330 328 326 327 326 327 325 325 324 324 324 323 324 321 320 321 321 319 319 319
310 316 317 318 319 321 322 322 323 321 320 319 319 320 320 320 320 322 324 326 328 330 332 331 331 329 326 326 325 326 326 326 324 323 324 324 322 322 322 322 321 316 319 319
316 314 318 318 320 321 323 323 323 322 321 320 319 320 320 320 320 321 322 323 325 328 332 332 332 330 328 326 325 326 325 324 324 325 325 324 323 322 322 323 322 316 316 318
317 318 316 319 320 321 323 321 321 321 321 322 321 322 321 321 321 322 323 324 324 326 329 332 332 331 330 326 325 324 325 324 324 324 324 323 323 323 322 322 322 321 317 317
316 317 318 317 318 319 320 320 320 321 321 322 322 321 321 321 321 321 323 323 323 326 328 332 332 331 330 327 325 325 324 325 324 325 324 323 323 322 323 322 321 320 319 320
315 315 317 317 316 316 318 319 319 320 321 324 323 324 323 322 323 324 323 322 322 325 328 331 331 331 330 328 325 325 324 325 325 324 325 325 325 323 323 322 321 319 318 318
312 314 315 316 316 314 317 320 323 324 325 326 323 324 323 322 323 323 323 323 322 324 327 330 332 332 330 329 326 325 325 325 324 324 325 325 325 324 322 323 321 320 318 318
310 313 313 314 316 316 318 320 324 328 330 328 325 324 322 322 321 323 323 323 323 324 327 328 331 332 330 329 327 325 324 325 325 324 324 324 324 324 324 323 322 322 320 319
313 315 315 315 316 316 318 319 318 322 325 328 327 324 324 323 323 323 323 324 323 324 325 328 329 331 331 330 329 326 325 325 325 325 325 324 324 324 323 323 323 322 321 321
314 314 313 315 316 316 317 319 320 322 326 328 325 325 327 324 323 322 323 324 324 324 325 326 329 331 330 330 329 328 325 324 325 325 325 325 325 325 325 324 324 323 323 322
312 316 317 315 317 318 317 317 320 322 322 327 329 327 324 324 323 322 324 323 324 324 325 326 329 329 330 330 330 329 327 325 324 325 325 325 325 324 325 325 325 324 323 323
314 320 319 316 315 316 317 317 320 325 325 325 325 327 322 323 323 322 323 322 323 324 324 324 326 329 330 330 330 329 328 327 325 325 325 325 325 324 324 325 326 325 324 324
313 318 320 320 318 317 318 319 319 321 323 326 334 326 322 322 322 320 321 321 321 323 323 323 325 328 330 329 329 329 329 328 327 325 325 326 326 325 324 325 325 325 326 324
312 319 319 317 319 319 318 319 321 321 324 323 323 323 322 322 321 320 320 320 321 321 321 322 323 324 328 329 329 329 329 329 328 326 325 325 326 326 325 324 324 324 324 325
314 321 320 320 319 316 319 320 320 321 321 323 323 323 321 321 321 320 320 320 320 320 321 321 323 323 324 328 329 329 329 329 329 328 327 326 326 326 325 325 324 324 324 324
312 313 313 318 316 315 315 317 317 317 318 318 318 319 320 319 319 317 317 319 321 321 321 321 321 322 323 323 327 328 329 329 329 329 329 327 327 326 326 325 325 324 324 323
311 313 312 316 312 315 317 315 315 316 317 317 319 321 318 318 317 318 319 320 321 321 321 321 321 321 322 322 322 324 327 328 329 329 329 328 328 327 327 326 325 324 324 323
311 313 314 316 316 317 313 313 313 315 316 316 316 316 317 317 317 318 319 321 321 320 321 321 321 322 321 320 319 320 322 326 328 329 328 328 328 328 327 327 326 325 324 324
310 312 315 316 315 313 312 311 311 312 313 315 315 316 317 316 317 318 320 319 319 319 320 320 319 321 322 321 319 318 319 322 326 329 328 327 327 327 327 327 327 326 325 325
310 311 314 314 314 312 311 314 315 314 315 315 315 315 315 315 318 318 318 318 318 318 319 319 320 322 322 323 323 323 320 320 323 327 328 327 327 327 326 326 327 326 325 325
313 314 314 314 314 313 313 313 314 316 317 314 314 314 315 316 316 316 315 317 317 317 317 318 319 317 314 312 316 322 323 322 321 322 325 327 326 327 326 326 326 326 321 319
314 314 314 314 316 315 311 313 315 318 316 315 315 315 315 315 315 316 316 317 317 317 316 314 314 309 305 302 305 315 321 319 323 323 324 326 326 325 326 325 319 313 314 308
314 312 313 311 312 313 315 315 314 314 314 314 314 313 313 314 314 316 317 317 315 313 311 310 307 302 299 297 298 300 302 306 311 317 312 309 311 310 311 309 309 305 301 297
311 312 315 315 314 314 314 311 314 313 313 313 312 311 311 311 312 313 313 315 311 308 306 304 302 297 295 293 293 294 297 299 300 299 298 298 298 298 299 298 297 297 295 293
309 310 310 310 310 310 310 312 312 311 311 311 309 309 308 308 308 308 310 307 305 303 299 297 296 292 291 291 290 291 293 296 294 293 292 291 290 290 290 290 291 292 292 291
309 309 310 310 313 313 312 310 309 309 308 307 306 305 304 304 303 304 304 300 298 297 294 292 290 290 289 289 287 288 290 291 294 290 289 289 288 287 286 285 284 285 287 287

GFSCGP_925_thetae_078.txt.gz
Theta_e
311 310 311 313 319 319 320 321 322 324 323 323 323 321 321 322 323 325 326 326 328 331 331 331 329 328 327 329 329 328 326 325 325 325 324 323 322 323 323 322 322 321 321 321
314 314 312 313 313 315 317 318 321 324 323 321 321 320 320 321 321 322 323 325 326 329 331 332 331 329 327 328 329 327 327 325 324 324 324 324 323 323 323 322 320 320 321 321
320 318 316 313 315 316 319 321 323 323 323 323 322 321 321 321 321 321 321 321 324 328 330 332 333 331 328 328 327 327 326 326 324 325 325 324 323 322 322 322 320 321 321 322
318 318 316 315 318 320 323 321 323 323 324 326 323 323 322 322 322 322 321 322 323 324 329 332 333 332 330 328 327 327 325 326 324 324 325 324 323 323 322 321 321 320 319 320
316 316 317 318 320 319 324 322 323 324 323 324 323 323 323 322 321 322 322 323 324 325 327 331 333 332 331 329 328 326 326 324 325 324 325 325 324 323 322 323 322 321 318 319
315 315 317 319 319 319 319 322 322 323 323 326 323 324 325 324 324 323 323 324 324 325 326 329 332 332 331 329 327 326 325 326 324 325 324 324 324 323 323 322 322 322 320 316
313 314 315 317 319 318 319 319 326 327 327 327 322 323 325 324 324 324 324 324 324 325 326 329 332 332 332 330 327 327 326 325 326 325 325 324 324 324 323 322 322 321 320 319
310 312 312 313 316 317 319 319 327 330 331 327 323 324 325 324 324 323 323 323 324 326 329 329 331 333 332 331 328 326 326 325 326 325 326 325 324 324 324 323 322 321 319 319
312 310 311 314 313 315 320 322 320 326 324 332 331 325 324 323 323 322 323 324 324 325 326 327 329 332 332 332 329 327 326 326 326 325 324 325 326 326 323 323 323 323 321 319
314 314 314 314 315 316 319 319 322 322 327 333 330 331 326 325 324 323 323 325 325 325 326 327 328 332 332 332 331 328 325 326 327 325 324 324 324 325 325 324 323 323 322 320
316 314 315 315 316 318 318 320 321 323 324 330 332 330 327 327 324 326 326 325 325 326 326 326 328 331 332 332 331 330 327 326 326 327 326 325 325 325 324 324 325 323 324 322
318 316 317 316 316 315 318 319 319 325 330 327 329 331 326 326 324 324 324 323 323 324 324 326 327 329 331 332 332 331 330 327 326 327 327 327 327 326 325 326 325 325 324 323
311 316 319 320 321 317 317 318 320 320 324 329 334 328 324 324 324 322 322 321 322 322 322 323 322 327 329 331 331 332 331 329 327 326 327 327 327 327 327 326 327 325 325 324
309 314 319 324 324 321 322 320 320 322 324 326 329 328 325 324 323 323 321 321 321 321 321 321 322 323 328 329 331 331 332 331 329 328 327 327 327 327 327 326 326 327 326 326
311 316 318 315 320 320 322 323 322 325 325 326 324 325 324 323 322 322 320 320 320 321 322 322 322 322 322 324 330 330 331 331 330 329 328 327 327 327 327 326 326 326 327 327
310 315 313 314 314 319 317 316 317 320 321 319 321 324 322 321 320 318 319 319 322 322 321 321 321 322 322 322 322 326 330 331 331 330 330 328 327 326 327 327 326 326 326 326
312 312 313 314 313 315 318 316 316 316 317 317 318 318 320 319 319 318 318 321 321 320 320 321 320 321 322 323 324 322 320 326 330 331 330 330 329 327 327 327 327 326 326 325
310 311 314 317 315 318 315 314 314 315 315 316 317 318 318 317 317 317 318 320 319 318 319 320 320 322 323 323 320 321 323 321 322 330 330 330 330 329 328 328 327 327 326 325
310 311 315 317 315 313 312 312 311 312 313 314 315 316 316 315 316 318 317 318 318 318 318 320 320 319 316 313 312 315 319 323 324 320 329 330 330 329 329 329 328 327 327 326
310 313 314 316 315 314 312 311 314 314 314 316 316 316 315 315 319 318 316 316 317 318 317 317 316 313 308 305 306 310 316 316 314 316 323 326 329 329 329 328 328 328 327 326
313 314 315 315 315 313 311 315 315 317 319 315 315 316 316 317 316 315 315 316 317 316 314 313 312 308 302 300 302 304 305 304 306 310 318 317 323 328 328 328 328 328 328 327
313 314 315 314 314 315 312 313 316 319 317 315 315 314 315 314 314 314 315 317 315 312 311 309 308 304 298 297 298 299 299 299 301 303 305 305 307 312 323 327 326 325 322 313
316 312 313 312 312 312 315 317 315 314 315 314 313 312 312 312 312 312 312 314 311 309 305 303 303 300 296 295 294 295 295 297 297 297 295 294 298 298 302 308 311 310 311 306
312 312 315 315 312 314 315 314 313 312 312 311 310 310 309 309 309 309 310 307 305 303 300 298 297 295 294 292 292 291 291 294 294 293 292 291 289 289 291 293 296 298 297 294
311 313 313 314 313 313 312 311 310 310 309 308 307 306 305 304 303 303 304 300 298 296 294 293 291 290 289 288 288 288 289 291 292 290 290 289 287 287 286 285 287 289 291 293
311 311 313 316 311 313 310 307 306 306 305 305 305 303 301 299 298 296 294 291 290 289 288 287 286 286 285 285 285 286 287 289 290 289 287 287 286 286 285 285 284 284 285 286

GFSCGP_925_thetae_081.txt.gz
Theta_e
308 306 308 310 315 317 317 317 318 318 318 320 321 317 316 315 317 317 317 318 322 325 325 327 328 327 330 329 328 327 325 326 326 326 324 323 323 323 323 324 324 324 323 324
309 308 309 310 311 311 312 313 315 316 318 318 319 321 317 315 316 316 319 319 320 326 325 326 327 326 329 329 328 327 324 324 325 325 324 322 322 323 323 323 323 322 322 323
313 314 313 315 312 313 315 315 316 317 317 319 321 322 319 317 317 317 316 319 319 326 327 328 326 325 328 328 328 327 324 323 323 325 324 323 322 323 323 321 320 319 321 317
315 316 318 317 316 314 315 315 319 322 327 329 324 327 323 317 318 318 318 315 314 321 328 329 328 325 326 327 328 326 326 324 323 324 324 323 323 323 323 322 319 319 320 317
313 316 316 316 316 315 316 318 321 323 327 327 327 327 323 319 319 318 318 317 315 315 327 329 329 326 326 326 327 326 325 325 324 325 324 324 323 323 322 322 320 321 321 321
309 312 314 315 317 318 320 322 321 322 326 332 327 325 322 320 320 320 319 317 316 316 326 329 329 328 326 326 326 326 325 324 324 324 324 324 323 323 322 322 321 319 319 320
310 311 315 318 320 319 319 323 329 330 330 329 323 324 322 321 321 321 321 318 318 318 324 329 330 329 327 326 325 326 325 323 325 324 324 324 323 323 322 322 321 320 319 319
310 311 312 317 316 317 319 321 328 330 330 329 322 323 320 320 320 320 319 319 318 319 323 330 330 329 328 326 325 325 324 324 323 324 325 324 324 323 323 322 322 321 320 320
310 311 310 311 313 315 317 319 319 324 326 330 330 325 321 320 321 319 319 319 320 321 323 330 329 328 329 326 326 326 324 324 324 323 323 323 324 323 323 322 322 322 320 320
312 316 313 312 312 314 314 317 324 323 329 331 327 331 330 322 321 320 320 319 319 320 321 322 329 328 329 327 326 326 325 324 325 324 324 324 323 323 323 323 322 322 321 320
316 316 315 313 315 317 318 318 321 324 324 334 335 334 328 328 323 323 321 319 320 319 319 321 323 329 329 328 326 325 325 324 324 325 324 324 325 325 325 324 323 323 322 321
313 314 315 313 313 314 317 319 320 327 329 326 330 330 328 328 325 320 319 319 319 317 317 317 319 328 329 329 327 326 325 325 325 325 324 324 323 324 324 324 323 323 323 322
310 313 318 319 320 319 318 319 320 322 323 327 330 332 326 325 323 322 321 318 319 320 319 318 319 320 323 329 329 327 326 324 324 325 325 324 323 323 323 324 324 324 323 323
308 312 316 321 324 320 323 320 320 322 327 324 328 326 324 325 324 322 321 320 320 319 319 319 318 320 320 321 326 329 328 326 325 325 326 325 324 324 324 324 323 323 323 323
309 313 315 315 315 316 322 321 322 324 323 326 325 327 325 325 325 324 321 320 320 320 320 319 319 320 321 322 323 323 324 329 328 326 326 326 326 326 326 325 324 324 325 324
311 311 313 314 313 313 316 319 320 319 322 322 322 323 322 320 320 321 321 320 320 319 319 319 321 322 321 318 317 318 320 321 328 328 327 326 326 326 326 326 325 325 325 325
313 313 312 313 313 317 317 315 316 318 322 321 322 320 320 320 321 317 319 318 317 317 319 321 319 317 315 312 311 312 315 320 322 324 328 328 327 326 326 326 326 325 325 325
311 311 311 312 313 317 317 315 315 316 316 315 315 318 318 317 316 315 315 316 317 319 319 317 314 311 308 307 307 308 313 311 313 314 316 320 327 327 326 325 326 326 326 325
309 310 308 312 313 314 312 313 312 312 313 315 313 317 315 315 314 314 314 314 316 316 315 312 308 305 303 302 302 306 307 307 307 308 310 315 313 316 324 326 325 326 326 325
309 308 309 309 316 313 312 313 314 314 316 316 316 316 315 315 316 315 315 314 312 311 310 308 304 301 299 298 299 301 302 302 303 305 306 307 305 306 310 318 327 326 326 325
309 308 311 310 313 314 312 315 315 316 319 315 314 314 313 314 313 313 313 310 307 305 304 304 301 298 297 296 296 297 297 296 298 299 300 300 300 299 301 307 316 326 326 326
311 310 310 310 310 312 312 314 317 316 314 313 312 312 312 311 310 310 308 305 302 300 298 298 296 296 294 293 293 294 294 293 295 295 294 294 295 298 295 297 303 307 319 325
314 311 311 310 310 313 314 316 314 313 313 312 310 309 309 308 307 306 303 301 298 295 294 293 294 293 290 289 289 290 290 291 293 292 291 290 289 291 295 291 291 295 298 300
313 311 314 312 314 313 312 310 309 309 308 308 306 305 305 303 302 300 297 296 294 291 291 290 289 288 287 286 287 287 288 290 291 290 289 287 286 286 286 288 287 287 289 292
312 312 312 313 312 311 308 307 306 306 305 305 303 301 300 299 297 295 292 291 290 288 287 286 286 285 285 285 285 285 287 288 289 287 287 286 285 285 285 284 285 285 285 287
309 309 314 311 306 308 305 304 303 303 302 299 299 295 293 293 292 291 289 287 286 285 284 284 284 284 285 284 284 284 285 285 286 285 285 284 284 284 284 284 283 284 284 284

GFSCGP_925_thetae_084.txt.gz
Theta_e
308 306 306 307 312 315 316 316 316 314 314 318 316 316 315 316 317 315 312 313 316 322 324 324 328 330 331 331 331 330 328 327 326 323 323 320 322 324 325 325 325 326 327 326
308 306 306 308 309 311 313 313 311 312 314 320 321 320 317 318 317 313 315 314 315 322 323 324 327 328 328 328 328 327 326 328 326 324 323 323 323 323 324 324 324 325 326 326
308 309 308 308 308 309 309 312 312 314 319 319 321 321 319 319 320 317 313 315 316 322 325 325 326 327 327 327 327 326 325 325 326 325 323 323 322 322 323 323 323 323 324 323
314 313 313 314 316 315 315 313 315 318 324 324 324 328 323 322 322 321 316 313 316 319 325 325 324 326 326 326 326 325 324 323 324 325 324 323 323 321 321 322 322 323 323 323
312 315 315 316 315 314 316 320 320 321 323 324 323 330 324 322 323 321 319 314 312 316 325 326 325 326 326 326 325 324 323 323 323 324 324 323 323 322 323 322 322 322 322 322
307 309 313 314 316 316 319 321 321 322 323 324 321 328 325 323 322 321 318 315 314 312 325 326 325 326 326 326 325 324 323 323 323 323 324 323 323 323 323 322 321 321 321 321
308 308 314 316 319 318 319 319 324 328 327 322 321 327 324 322 320 320 320 317 316 314 325 327 325 324 324 325 324 324 324 324 324 324 324 324 323 322 323 322 321 319 319 321
309 310 315 316 315 318 319 319 323 328 327 326 321 324 322 321 321 321 320 317 317 318 327 328 326 324 325 324 324 324 324 324 324 324 324 323 323 322 322 322 322 320 319 319
308 309 308 314 313 314 319 319 318 324 326 326 325 326 322 327 325 322 319 316 316 320 327 328 327 325 325 324 324 324 323 323 323 323 323 324 323 323 322 322 322 321 320 319
312 315 313 311 312 313 316 318 325 324 326 330 325 329 334 330 327 323 320 318 317 322 327 329 329 327 326 325 324 324 323 322 323 323 323 323 324 323 323 322 322 321 321 319
314 316 316 314 314 314 315 319 320 322 322 327 332 334 329 329 327 324 322 318 318 317 318 325 329 328 327 325 324 323 323 323 322 323 323 323 323 323 323 322 322 322 322 321
310 312 316 314 312 312 315 319 320 326 328 325 328 328 326 325 325 323 321 320 318 318 318 320 325 325 326 325 325 324 323 323 323 323 322 322 322 322 323 323 322 322 322 322
308 315 316 318 318 319 320 319 319 320 321 324 327 329 324 323 324 323 322 320 320 319 320 321 321 321 323 326 326 324 324 323 323 324 323 323 323 324 323 324 323 323 323 322
308 310 315 318 319 320 320 319 320 323 326 323 323 324 323 324 323 323 324 319 319 320 321 321 321 320 319 319 321 323 324 325 324 323 323 323 323 323 323 324 324 323 323 322
308 309 312 314 315 315 316 318 320 321 323 326 323 324 324 324 323 323 322 321 319 322 322 322 319 316 314 314 314 315 317 322 325 323 324 323 323 323 322 322 322 323 323 323
310 311 311 311 312 312 315 313 321 320 320 321 322 321 321 323 322 322 322 322 321 322 320 317 314 312 310 310 309 312 313 315 318 322 325 324 324 323 323 323 322 322 322 322
311 312 310 313 312 312 315 315 317 320 319 319 323 320 322 323 321 321 321 320 321 319 316 312 310 307 305 304 305 308 308 309 310 311 313 318 317 322 324 324 323 323 323 322
310 311 312 312 311 313 312 309 311 317 317 319 319 320 321 318 316 315 317 319 317 313 310 307 305 302 300 300 301 303 303 304 304 305 308 309 309 310 313 316 324 324 324 323
309 308 307 309 311 310 306 308 313 312 317 316 318 319 318 316 315 313 312 312 311 309 306 302 300 299 297 297 298 299 298 298 299 299 300 301 302 304 306 306 310 316 324 324
309 308 307 306 312 311 310 311 313 314 319 314 315 316 314 315 318 313 307 304 303 303 301 298 296 295 294 294 296 297 297 296 296 296 296 295 296 296 299 299 304 306 311 322
307 305 309 307 307 310 310 314 314 317 317 313 312 312 313 313 311 306 303 300 298 297 297 296 294 292 291 291 293 294 294 294 294 293 292 291 290 291 292 293 295 300 304 310
311 311 308 307 309 310 313 314 315 314 310 310 310 310 309 307 305 301 299 296 295 294 293 293 293 290 289 289 290 291 291 291 293 291 289 288 287 287 288 289 290 293 297 299
312 311 310 308 307 311 311 313 311 310 310 309 308 307 306 304 301 299 296 293 291 290 289 289 289 288 287 287 287 288 288 289 291 289 287 286 286 285 286 286 287 288 291 292
308 307 312 312 311 310 309 307 307 306 306 304 304 303 301 301 297 294 293 290 289 288 287 286 286 286 285 285 286 286 287 288 288 287 286 285 285 284 285 285 286 285 286 288
309 311 310 311 309 308 306 304 303 301 302 298 296 296 296 295 292 291 289 288 286 285 285 284 284 284 285 285 284 285 285 286 286 286 285 285 284 284 283 284 284 285 285 285
304 305 308 307 302 305 302 301 300 298 295 294 293 290 289 290 289 288 286 285 284 283 283 283 283 283 283 283 284 283 284 284 284 284 283 283 283 283 282 283 283 282 282 284

GFSCGP_925_thetae_087.txt.gz
Theta_e
307 306 305 305 312 315 316 316 315 313 313 317 317 317 316 314 313 314 313 310 311 310 315 321 330 331 331 330 330 330 328 327 326 324 323 323 325 326 326 326 327 328 327 327
307 306 307 306 307 311 313 314 313 310 311 317 317 317 316 315 316 314 315 315 314 314 320 324 328 330 330 330 328 329 327 327 326 323 322 322 323 324 325 326 326 327 326 325
307 308 307 307 307 309 308 308 309 311 317 317 319 317 315 315 315 316 317 314 312 315 321 325 328 329 329 328 327 327 327 326 325 324 324 324 322 322 324 325 325 326 326 325
311 310 309 307 308 308 311 312 314 317 319 318 321 320 317 317 319 319 318 317 313 313 322 324 327 327 328 328 327 327 326 325 324 324 323 323 322 323 323 323 324 324 326 326
313 315 313 314 314 313 315 318 319 320 321 322 321 323 315 319 320 320 318 317 314 310 322 324 327 327 327 327 325 325 326 325 327 325 323 323 323 322 322 323 323 324 324 326
309 307 311 314 317 315 318 318 317 321 321 321 316 321 317 315 316 319 320 319 314 310 320 324 324 326 325 325 324 324 324 324 325 325 324 323 323 322 321 321 322 322 323 323
307 306 313 316 318 317 317 315 312 316 323 319 317 320 318 317 318 320 320 319 316 311 317 323 323 325 325 324 323 323 323 322 322 323 324 323 323 323 321 320 320 321 321 322
306 308 313 315 315 317 318 314 313 321 325 326 319 322 320 322 321 319 319 318 317 315 313 323 324 325 325 324 323 323 322 321 321 322 322 324 323 322 322 322 321 321 320 321
308 308 308 314 313 314 319 318 316 319 318 323 323 322 319 325 325 323 321 317 316 315 312 323 324 324 325 324 324 323 322 321 321 321 322 323 323 323 323 322 322 322 322 320
312 312 312 311 312 312 315 316 319 323 324 325 324 324 331 329 327 324 320 319 318 317 320 324 324 324 325 324 324 324 323 322 322 321 323 323 323 323 322 322 322 322 321 320
314 315 315 312 312 314 316 318 318 319 323 328 325 329 328 327 324 324 322 319 319 319 323 326 324 323 324 323 323 323 323 323 322 323 323 323 323 323 322 322 322 322 322 321
309 313 315 315 313 312 312 316 318 321 323 326 325 326 326 321 320 321 322 320 320 322 323 325 325 324 323 323 323 323 322 322 322 322 322 322 323 322 322 322 322 322 322 321
308 313 314 315 317 317 318 319 318 320 321 324 323 324 320 320 320 320 320 321 322 321 319 319 320 322 323 323 323 323 323 323 323 322 322 322 322 323 322 322 322 322 322 322
307 310 312 311 313 318 319 319 318 320 323 324 324 322 324 320 320 320 321 321 322 320 317 316 315 315 315 316 317 319 320 323 323 323 322 322 322 322 322 321 321 322 322 322
307 308 310 311 312 313 314 315 315 319 320 324 322 323 322 323 322 321 321 321 320 316 314 313 311 311 310 310 312 311 311 313 321 322 323 323 322 322 322 322 322 322 322 322
309 310 309 310 310 310 312 311 313 316 320 321 320 322 318 320 323 322 321 322 318 314 311 309 307 306 305 305 306 306 307 308 310 312 315 320 322 322 322 322 322 323 323 323
309 310 310 312 309 310 311 311 308 319 319 318 321 320 320 322 320 320 321 320 315 311 308 306 303 302 301 301 302 301 301 301 302 303 304 305 307 310 312 316 321 322 322 321
308 310 309 311 309 310 308 306 308 311 318 317 317 318 321 318 317 318 319 314 310 307 305 302 300 298 298 298 298 298 298 298 298 298 297 299 300 302 304 306 307 310 314 320
306 307 306 309 310 307 307 306 311 314 313 315 314 317 318 314 311 309 308 306 304 302 300 298 296 295 294 296 297 297 296 297 296 295 294 294 294 296 298 298 298 301 303 307
306 305 306 305 310 306 306 310 312 313 315 313 316 317 317 316 317 309 302 301 299 298 296 295 293 291 291 292 295 296 295 295 294 292 291 290 290 291 292 292 294 296 298 300
307 306 309 308 309 307 307 312 312 315 314 312 312 312 314 310 309 302 299 297 296 295 294 294 291 289 288 289 291 292 292 293 292 289 288 288 288 288 288 289 291 292 294 296
307 307 306 308 310 309 311 312 312 311 309 309 309 307 305 302 300 298 295 294 292 291 290 289 289 287 286 287 288 289 289 290 290 288 286 286 285 286 286 286 287 289 291 291
304 307 311 308 307 310 308 309 308 309 308 308 307 305 303 300 298 295 293 290 289 288 287 286 286 286 285 285 286 287 287 289 288 287 285 285 284 285 285 285 285 286 287 288
306 305 307 310 311 309 307 303 303 301 299 299 300 300 299 297 295 293 290 288 287 285 285 285 286 285 285 284 285 285 286 287 286 286 285 284 284 283 283 284 285 285 285 285
307 305 308 307 306 305 304 303 300 298 297 295 292 292 293 292 291 289 288 286 284 284 284 284 284 283 283 284 283 283 284 285 285 284 284 284 283 283 282 281 281 282 283 284
302 301 303 305 300 301 299 299 297 295 293 291 290 288 287 288 288 286 284 283 283 282 282 282 282 282 281 281 281 281 282 283 283 283 282 281 281 281 281 281 280 279 279 280

GFSCGP_925_thetae_090.txt.gz
Theta_e
305 305 305 307 309 312 315 315 315 313 312 311 312 313 314 312 311 311 311 311 311 310 309 310 316 327 329 330 331 330 330 330 326 325 322 321 323 325 326 327 328 327 327 327
306 306 306 306 307 311 313 315 314 311 309 316 314 314 312 311 313 312 312 311 312 312 313 320 326 328 329 330 330 328 327 326 324 324 323 323 323 325 326 326 325 327 325 327
308 308 307 307 306 308 308 310 309 310 314 313 317 312 312 312 311 312 312 312 313 312 311 322 326 328 329 330 329 327 326 324 325 322 321 322 323 324 324 323 325 326 326 326
308 308 307 306 307 306 307 307 310 316 315 314 317 317 313 312 312 312 314 314 315 314 313 321 326 328 329 329 328 327 325 325 324 323 321 321 322 322 323 324 325 326 325 326
313 313 311 309 308 307 312 315 316 319 318 320 320 316 310 311 311 310 310 315 314 313 311 321 326 327 328 329 327 326 325 323 322 322 322 321 321 322 322 323 324 326 325 324
310 306 310 313 317 314 318 316 318 319 318 317 316 316 312 310 311 318 319 315 315 314 310 318 323 327 328 328 325 325 324 323 322 322 321 323 322 322 322 322 323 324 324 322
306 306 311 316 318 316 314 314 312 311 319 316 314 317 314 312 314 323 320 316 314 313 309 316 324 325 326 327 323 323 323 323 323 322 321 322 322 322 322 322 321 322 323 322
305 305 310 314 314 317 316 314 315 317 323 321 316 322 317 320 322 322 321 318 316 313 309 318 323 325 325 326 323 322 324 323 323 321 321 321 323 322 322 322 321 319 322 322
305 307 309 314 314 313 318 316 314 316 316 316 315 319 317 323 321 320 321 320 319 319 315 313 321 325 324 325 324 323 323 322 322 322 323 323 321 323 322 322 320 319 321 322
310 311 312 312 312 314 314 315 315 318 323 323 320 321 323 323 324 321 321 320 321 322 319 313 321 324 324 324 323 323 323 322 321 321 321 321 320 322 321 320 320 321 321 321
313 313 315 311 313 316 316 317 316 317 318 322 322 321 322 322 323 322 320 320 321 320 325 323 323 324 324 324 323 322 321 321 321 320 320 320 321 322 323 322 322 322 321 321
310 313 316 315 314 312 312 316 316 315 317 322 323 319 322 322 322 321 319 320 320 317 320 324 323 322 322 322 322 322 321 320 320 321 320 320 320 321 322 322 322 322 322 321
307 313 311 318 316 313 317 318 318 319 317 321 322 318 320 320 320 319 319 321 317 316 315 316 318 322 322 322 322 322 322 322 321 321 320 320 321 322 322 321 320 321 321 321
309 310 309 311 310 315 317 316 317 318 319 321 321 320 319 321 321 319 321 320 315 312 311 311 311 312 313 314 315 316 316 322 322 322 322 321 322 322 322 322 320 320 320 321
307 308 309 310 310 312 312 312 314 318 317 318 315 319 318 318 321 320 320 316 313 310 308 306 305 306 307 307 308 308 309 314 322 322 322 321 322 322 322 322 322 321 320 320
308 310 309 310 309 308 309 309 309 310 312 316 317 318 318 319 320 321 320 316 312 309 306 304 302 302 302 301 302 302 302 303 307 309 309 311 314 320 320 322 321 321 321 321
308 308 308 309 309 307 308 308 306 305 316 317 319 318 319 319 320 320 316 313 310 308 304 302 300 299 299 299 298 298 299 298 299 300 300 302 304 305 307 310 315 315 316 321
308 308 308 310 309 307 306 304 305 310 311 316 316 315 319 315 311 311 311 308 305 303 300 299 297 296 295 297 297 297 296 296 295 294 294 294 297 298 300 302 302 304 307 310
305 306 306 307 309 306 305 307 311 310 309 312 313 315 317 311 308 306 303 302 300 299 297 294 293 292 292 292 296 296 296 294 292 291 290 290 291 292 294 295 296 298 300 302
304 304 305 305 309 305 304 307 310 310 305 311 312 315 315 315 317 307 301 299 298 296 294 292 290 289 289 289 292 294 294 293 290 289 288 288 289 289 289 289 291 293 295 296
306 306 308 307 307 307 306 310 310 310 308 309 308 312 311 307 306 300 297 294 292 291 290 290 288 287 287 287 290 290 291 291 289 287 287 287 287 287 287 287 287 289 291 291
306 306 305 307 308 308 308 310 310 310 308 307 305 303 301 298 296 294 292 291 289 288 287 287 286 286 286 286 287 288 288 289 288 286 285 285 285 286 286 286 286 287 288 288
302 307 310 308 307 308 305 305 303 304 303 304 303 301 298 297 295 293 291 288 287 286 285 286 286 286 285 285 285 285 285 287 286 285 284 283 282 283 284 284 285 285 285 285
302 304 306 307 305 305 304 302 299 297 297 297 297 296 297 295 293 290 288 287 285 285 284 284 284 284 284 283 283 283 285 285 285 284 283 283 282 281 281 282 282 283 284 284
302 303 302 307 303 303 300 298 298 296 294 291 290 290 291 290 288 287 286 285 283 283 283 283 282 282 281 281 281 281 282 284 283 283 283 282 281 281 280 280 280 281 281 282
299 299 299 303 298 300 296 294 293 291 290 290 289 287 286 286 286 284 283 282 282 281 281 281 281 280 279 279 279 280 281 282 282 282 280 280 280 279 279 279 278 278 279 280

GFSCGP_925_thetae_093.txt.gz
Theta_e
306 308 309 309 311 311 314 316 317 315 314 315 317 317 316 315 316 315 316 316 316 316 317 315 314 314 323 329 331 332 329 330 331 331 327 325 327 328 329 329 328 327 326 325
306 309 308 308 309 311 313 314 314 315 314 314 315 316 314 314 314 315 316 316 316 316 316 316 317 320 325 328 331 330 328 328 329 327 325 324 324 324 326 327 328 327 326 327
306 307 307 307 308 310 311 312 313 313 313 314 317 314 314 314 314 314 314 315 315 316 317 317 322 326 327 328 330 329 327 327 327 325 323 323 323 322 323 326 325 326 326 327
309 308 307 308 308 308 309 309 310 310 313 313 318 316 314 313 313 313 313 317 317 316 316 317 321 328 328 329 330 329 326 325 325 325 322 324 323 323 325 324 325 325 326 325
313 313 309 308 308 308 308 309 310 317 317 319 318 319 313 311 311 319 323 322 320 319 317 317 319 325 328 329 330 328 326 324 323 323 322 322 323 323 324 324 323 325 324 324
311 308 311 310 316 308 316 318 319 319 319 318 315 315 313 314 314 320 323 322 321 320 319 317 318 324 328 329 329 327 326 325 322 322 321 322 321 321 324 323 324 324 324 324
307 307 314 317 318 317 315 316 319 316 319 314 315 318 316 318 323 322 322 322 321 322 323 321 316 326 328 329 328 327 326 324 323 321 321 321 321 323 324 323 323 323 322 322
308 308 313 315 317 319 315 316 317 315 319 320 317 314 318 323 321 321 321 320 320 322 322 324 319 323 328 329 327 326 326 324 322 322 321 320 320 323 324 323 322 322 323 322
307 307 312 314 315 315 317 317 314 317 317 318 315 314 317 321 322 322 321 319 319 321 321 324 324 323 327 328 327 326 324 324 322 321 321 320 320 323 323 322 321 321 322 322
308 315 312 314 314 315 315 316 318 318 321 321 318 320 322 324 323 322 321 320 320 319 319 324 324 321 326 327 325 324 323 323 322 322 321 320 321 321 322 322 321 321 320 321
313 315 315 313 313 317 316 317 317 317 318 319 320 319 325 324 323 323 322 319 317 316 316 324 325 324 325 326 324 323 323 323 324 322 321 323 321 320 321 321 321 321 320 320
312 315 317 316 314 314 315 317 316 317 318 318 319 318 322 322 321 321 320 319 314 313 313 315 323 325 325 324 323 323 323 322 322 322 321 321 321 320 321 322 320 320 321 320
311 313 321 318 315 312 315 317 319 318 317 317 320 318 321 319 319 320 320 315 312 311 309 309 311 312 320 322 322 322 321 321 321 321 320 320 320 320 321 323 321 321 321 321
313 311 311 315 314 314 313 312 315 317 317 315 316 315 315 316 319 319 317 314 311 309 307 306 306 306 306 306 308 312 318 321 321 321 321 320 320 320 322 323 321 320 320 320
310 312 311 310 311 313 312 311 311 314 315 316 313 313 314 316 320 320 317 313 311 308 305 304 303 302 302 302 302 303 305 310 320 320 320 321 321 321 322 322 322 321 320 321
309 312 310 308 309 308 309 308 309 310 311 312 313 316 316 318 316 319 315 312 309 306 304 301 299 300 300 299 299 299 299 299 301 303 305 308 314 316 316 318 321 321 321 321
309 309 307 308 309 307 305 307 305 306 307 314 315 316 317 315 312 314 312 308 305 302 300 298 297 296 296 298 298 297 296 296 295 294 296 299 301 303 304 307 310 312 314 316
309 308 309 308 309 306 305 306 306 308 309 313 315 316 318 313 307 304 305 304 302 299 297 295 294 293 293 296 297 296 294 293 292 292 292 293 294 296 297 298 299 301 303 305
307 308 309 308 307 306 305 310 309 309 308 312 313 315 316 309 306 301 300 299 298 296 294 292 291 290 291 293 294 295 294 291 290 290 290 291 291 292 293 294 294 295 298 298
306 306 308 308 306 306 306 308 310 311 306 309 310 317 316 313 316 303 296 294 293 292 291 290 289 288 289 290 292 292 292 290 289 288 289 289 289 289 290 290 291 293 294 293
308 307 307 306 306 306 308 309 309 308 309 307 306 305 307 303 302 296 292 291 289 289 289 288 288 287 287 288 289 290 290 289 288 287 287 287 288 288 288 288 288 290 290 290
307 308 307 307 308 308 307 309 311 309 306 305 303 300 298 297 295 292 290 289 288 287 287 287 287 286 285 285 287 287 288 287 286 286 284 284 285 285 286 286 287 287 287 287
309 308 308 309 310 304 303 302 300 301 301 301 300 298 297 294 292 290 289 287 286 286 286 285 285 284 284 284 284 285 286 286 285 285 283 283 283 283 284 284 285 285 285 285
305 303 306 307 304 300 300 299 297 295 293 294 295 295 294 292 290 288 287 286 285 284 284 284 284 283 282 282 282 283 284 285 284 284 284 283 282 282 282 282 282 283 283 283
302 301 300 305 301 301 296 296 295 293 292 291 289 290 290 289 287 287 286 284 283 283 282 282 282 281 281 280 280 280 282 284 283 283 282 282 281 281 280 280 280 281 281 281
298 299 300 302 297 297 294 292 291 290 288 287 288 287 286 286 285 284 283 281 281 281 281 281 280 280 279 279 278 278 279 281 283 282 281 280 280 280 280 279 278 278 278 279

GFSCGP_925_thetae_096.txt.gz
Theta_e
307 308 311 312 314 315 315 316 318 318 318 318 320 320 320 320 319 319 320 320 320 321 321 320 320 320 319 323 329 334 337 335 332 331 330 330 330 329 329 330 328 330 328 327
307 307 309 310 311 312 313 316 316 316 318 318 318 319 319 319 319 319 320 320 321 321 321 321 320 320 321 323 328 332 336 333 333 332 332 331 329 329 330 329 328 329 327 326
308 308 308 310 310 312 314 314 314 315 316 316 317 318 319 319 319 318 318 318 317 318 319 319 320 320 322 326 328 331 335 331 332 333 331 330 329 327 328 328 327 327 327 324
308 307 309 310 311 312 313 312 312 313 314 317 317 319 317 317 316 316 316 322 324 324 324 322 321 320 320 326 328 331 334 328 331 331 331 330 328 327 326 326 327 327 325 325
312 309 309 309 309 309 310 310 310 311 312 314 316 320 316 314 314 317 320 324 325 325 325 325 323 320 319 325 330 331 331 328 329 330 331 329 329 326 326 327 328 326 325 325
313 312 310 310 310 310 310 310 312 315 317 322 317 317 315 316 318 322 324 324 324 324 325 325 326 322 320 325 330 332 328 327 328 329 330 329 328 325 326 326 327 325 325 325
312 311 314 312 314 311 313 316 320 321 322 319 315 316 315 319 324 323 323 323 323 322 324 325 326 327 322 327 331 331 327 327 327 328 328 327 327 325 326 325 326 324 324 323
310 310 316 316 313 314 314 315 318 315 316 316 317 319 319 322 320 322 322 322 322 322 322 323 324 327 325 327 331 330 328 328 327 327 326 326 326 323 326 325 325 325 323 323
310 309 310 316 316 315 317 318 316 316 318 319 317 316 317 321 321 321 321 322 322 321 320 320 320 328 328 326 331 329 328 329 326 326 326 324 324 324 325 326 325 325 324 323
309 313 310 315 316 316 317 316 318 318 322 321 318 318 321 321 323 322 322 322 321 319 317 315 314 328 325 326 330 328 327 327 325 325 325 324 323 323 325 326 325 324 325 322
310 312 314 315 314 317 317 318 317 318 320 320 319 321 324 323 321 321 320 321 319 316 314 310 310 319 326 328 330 327 326 325 324 325 324 323 323 323 324 325 324 323 322 322
315 314 314 314 315 314 314 315 316 317 320 319 320 320 323 318 317 320 320 317 315 312 310 307 307 311 323 327 325 325 325 324 324 323 323 323 322 322 323 324 324 323 321 321
313 316 319 319 317 315 316 317 318 319 318 320 322 322 318 314 317 320 316 314 312 310 307 303 304 305 308 310 321 324 324 324 326 324 324 323 322 322 323 322 325 324 324 324
312 313 315 317 317 316 318 317 317 317 319 317 318 315 313 317 320 320 314 312 310 308 304 301 300 302 302 304 305 307 316 322 322 322 323 322 321 321 322 324 324 323 323 324
313 312 312 313 312 312 311 310 311 312 313 315 313 313 316 320 320 320 313 309 307 306 303 299 298 298 301 300 301 301 302 305 315 317 317 320 321 322 322 324 324 322 320 321
310 312 309 311 309 308 308 307 307 309 310 311 313 315 318 318 314 310 309 307 305 301 300 299 296 295 299 298 298 298 297 298 299 301 300 302 306 315 316 320 322 323 322 322
309 308 307 311 308 306 307 308 307 309 311 311 313 314 316 317 311 308 306 304 302 300 298 295 294 293 296 297 295 295 295 295 295 296 296 297 298 299 302 305 309 310 310 313
307 306 307 308 306 305 308 308 309 310 312 312 314 317 318 312 305 302 302 301 299 297 295 293 292 292 292 294 295 293 293 292 293 293 293 294 295 295 297 297 299 301 302 301
309 307 307 307 306 306 310 310 310 310 311 311 313 315 312 307 305 300 297 295 295 293 293 292 291 290 291 292 293 293 292 291 291 291 291 293 292 293 294 295 296 297 296 293
308 308 307 308 305 307 311 310 310 310 311 307 308 311 314 309 317 302 293 292 292 291 291 291 291 290 290 291 292 292 291 290 290 289 290 291 290 292 292 293 295 294 292 291
309 309 309 308 308 308 309 310 309 311 313 307 305 302 300 299 297 294 292 290 290 291 291 291 290 290 288 289 290 290 290 288 287 287 288 288 288 289 290 290 291 292 292 291
309 310 310 309 309 310 303 308 310 305 304 303 301 299 296 294 293 291 289 289 290 290 289 289 288 287 287 287 288 289 288 288 287 286 286 286 286 287 288 288 289 290 290 290
310 307 309 308 307 302 299 300 297 298 298 300 300 298 296 294 292 291 289 288 287 287 288 288 287 286 285 285 286 287 286 287 287 286 286 286 285 285 286 286 287 287 287 287
306 304 308 308 302 299 299 297 296 295 294 293 295 295 294 293 291 289 289 288 287 286 287 287 287 286 285 284 284 284 286 286 286 285 285 284 283 284 284 284 284 285 286 286
305 304 303 305 302 300 297 295 295 294 293 292 292 292 293 292 291 290 289 288 286 286 285 285 285 284 283 283 283 283 284 286 285 285 284 284 283 282 281 280 281 281 280 282
300 300 304 303 299 299 295 293 292 291 290 290 291 290 289 289 288 287 286 285 284 284 284 284 283 283 282 282 281 281 282 284 285 285 284 284 284 283 282 281 279 277 278 279

GFSCGP_925_thetae_102.txt.gz
Theta_e
309 312 310 306 308 311 314 315 317 318 321 321 322 322 321 322 321 322 324 323 323 324 323 322 321 320 321 321 324 341 345 344 340 338 338 337 337 335 333 334 335 334 332 332
305 311 311 306 305 307 311 316 318 320 320 322 323 325 325 322 322 321 322 323 323 324 323 324 324 322 321 322 323 326 342 344 341 338 337 335 334 333 332 333 334 332 332 332
303 307 312 308 306 306 310 313 319 320 322 320 322 321 323 323 322 322 323 322 322 323 323 324 325 324 325 326 326 323 331 343 342 338 336 335 334 334 332 334 333 334 331 330
303 304 309 309 306 307 311 313 318 319 321 323 318 325 321 321 320 320 321 323 322 322 324 325 326 326 325 324 324 325 324 332 342 338 335 336 335 335 333 333 332 333 332 331
303 305 310 312 306 307 311 314 317 316 319 319 319 324 321 320 320 319 320 323 325 326 326 326 326 326 326 326 326 325 325 325 340 337 336 336 336 335 333 332 332 331 330 329
303 307 313 313 310 309 312 316 316 316 316 324 321 322 320 321 320 320 322 324 325 325 324 324 323 323 324 325 326 329 328 328 339 338 337 337 337 335 333 332 331 329 328 326
306 308 311 311 311 311 313 316 317 320 323 320 315 316 318 319 319 322 324 323 324 323 322 321 320 320 321 322 325 328 329 330 339 338 337 338 337 336 333 330 330 329 326 325
307 321 316 314 311 312 312 314 319 315 316 315 313 323 322 321 322 322 323 323 322 321 320 318 317 317 315 318 319 324 324 331 337 336 337 337 336 336 333 329 330 328 325 323
319 321 314 312 311 313 312 313 315 327 324 328 321 324 320 324 323 322 322 321 320 319 317 315 312 309 308 312 313 316 318 331 334 333 333 336 336 335 331 329 330 328 325 323
315 320 314 314 312 312 313 313 319 322 330 331 322 324 327 326 322 322 321 319 316 315 313 311 307 304 304 305 307 314 325 333 330 330 330 333 335 334 330 328 329 328 325 324
313 316 314 316 319 314 314 317 319 321 321 326 326 331 321 321 323 322 319 315 312 311 309 307 303 301 301 301 303 307 329 331 330 329 329 330 333 331 329 328 328 327 326 324
312 316 314 312 317 316 315 317 317 324 317 323 326 327 321 322 321 318 314 311 309 307 306 303 301 299 299 298 299 301 305 329 329 329 329 329 330 328 328 328 328 327 327 324
316 315 320 315 314 317 317 317 318 319 321 322 325 328 322 318 315 313 310 308 306 305 303 301 300 298 298 297 297 298 300 303 325 327 327 328 326 327 327 327 327 326 326 324
317 317 318 318 316 319 321 320 320 319 322 320 321 320 320 317 313 311 308 306 304 302 301 299 298 298 297 296 295 295 297 298 304 325 326 325 325 325 325 326 326 326 326 326
314 318 317 317 317 316 319 320 320 317 315 321 319 323 318 315 311 309 306 304 302 301 299 298 297 296 296 295 294 294 294 296 297 301 307 310 321 324 325 325 326 325 324 323
311 317 313 317 317 316 314 312 312 312 314 316 321 321 315 311 308 306 304 302 301 299 297 296 295 295 294 294 294 293 293 294 294 296 297 299 304 309 316 321 323 324 323 323
311 312 315 311 310 311 313 311 314 313 312 315 318 317 313 307 303 302 301 299 298 298 297 295 293 293 292 292 291 292 292 292 293 293 294 295 297 298 300 303 305 311 314 314
311 311 312 309 309 317 313 313 313 312 311 310 311 312 306 301 299 297 296 296 296 296 296 296 292 291 291 290 291 291 291 291 291 292 292 293 293 295 294 295 294 294 297 298
308 311 313 315 313 313 313 311 310 315 311 309 309 308 306 300 299 296 295 295 296 296 296 295 293 292 292 291 290 289 289 290 290 290 290 291 292 292 292 292 292 291 291 291
308 311 315 314 312 317 309 306 307 309 311 306 306 305 306 305 311 298 294 293 295 294 294 293 292 291 290 290 290 289 288 288 288 289 289 290 291 291 292 292 291 292 291 290
312 313 314 314 313 311 303 305 306 313 307 304 302 301 299 298 296 294 292 292 291 293 294 293 291 289 289 289 289 289 289 288 287 287 288 288 289 290 291 291 291 291 290 290
309 312 311 312 313 312 301 305 306 302 301 302 301 300 298 296 294 292 291 291 292 293 293 292 291 289 288 288 289 288 288 288 286 286 287 286 286 286 287 289 289 289 289 288
311 308 307 306 305 301 299 299 299 299 298 300 299 298 296 295 293 291 291 291 292 291 291 291 290 289 287 287 287 288 287 287 287 285 283 282 283 283 284 284 285 287 287 287
308 306 307 306 302 300 299 298 298 298 298 297 297 298 297 296 294 294 294 294 292 291 290 290 289 287 286 285 285 286 288 287 287 286 284 282 281 280 281 281 281 282 284 283
306 306 306 303 301 299 297 296 296 296 296 296 296 295 295 295 294 293 292 291 290 289 289 287 286 285 284 283 283 284 285 287 287 286 286 284 283 280 279 279 279 280 280 282
302 301 303 302 300 299 296 294 294 294 294 294 294 294 293 293 292 291 289 288 287 287 286 285 284 283 282 282 282 282 283 284 285 286 285 285 286 284 280 279 278 279 279 279

GFSCGP_925_thetae_105.txt.gz
Theta_e
301 300 304 310 304 304 304 308 311 310 312 319 322 321 318 319 320 318 318 318 318 318 317 318 319 318 319 319 341 343 343 341 340 340 342 339 337 336 336 336 336 335 333 333
307 301 300 303 311 307 304 306 308 309 314 321 321 322 320 319 319 320 320 317 315 317 317 318 319 318 318 320 335 343 342 341 340 338 340 340 338 336 335 335 335 335 333 332
308 309 304 302 307 312 308 304 305 306 319 321 321 321 320 320 319 320 321 319 318 318 319 319 320 321 324 324 328 343 342 341 340 338 338 338 336 335 334 333 333 334 333 332
309 308 309 306 308 312 306 304 305 306 320 324 321 324 321 320 320 321 321 318 318 322 322 322 321 320 321 322 324 326 343 341 339 338 336 335 334 334 333 331 331 332 333 331
311 307 305 304 304 310 311 306 306 308 319 320 321 324 321 323 322 320 320 324 323 322 320 319 318 318 318 318 320 322 324 336 341 338 337 335 333 333 333 332 332 332 333 332
310 305 303 309 311 311 311 316 319 318 318 317 319 322 322 322 321 320 325 323 320 318 316 314 314 313 312 312 314 316 318 322 332 339 337 335 334 333 333 332 332 332 332 331
309 304 304 309 310 312 314 314 317 322 319 318 317 320 319 319 322 324 324 321 318 315 313 311 310 308 307 307 309 311 311 316 319 336 336 336 335 335 333 332 331 330 330 328
304 309 309 309 310 313 314 314 316 319 320 317 315 320 318 321 323 322 319 316 314 312 309 307 305 304 304 305 305 305 307 310 314 329 336 336 335 335 333 332 331 329 327 326
312 314 310 313 314 313 313 315 316 321 323 318 317 323 322 325 322 318 315 312 310 308 306 304 302 301 302 302 302 302 304 306 315 322 336 336 337 335 334 332 331 329 327 327
312 312 315 314 312 311 310 313 313 318 324 327 326 326 327 322 319 315 312 310 307 305 303 302 300 300 300 300 299 300 303 309 324 330 336 336 336 335 335 330 329 329 327 325
313 313 317 315 318 313 313 318 319 320 321 324 330 326 320 321 316 313 310 307 305 304 302 301 300 299 299 298 298 298 300 305 322 333 334 333 334 334 332 329 329 329 327 324
314 315 316 315 315 314 316 317 319 321 326 324 325 322 317 315 312 309 308 306 304 302 301 299 298 298 298 297 297 297 298 300 306 322 329 329 331 332 330 329 329 328 326 324
314 316 318 320 316 316 318 317 317 318 320 324 323 320 315 312 310 307 306 304 303 301 300 298 297 297 296 296 296 296 296 297 300 308 327 328 330 328 328 328 328 327 326 324
314 317 317 319 321 318 320 320 320 320 322 322 324 320 316 312 310 307 304 303 301 299 298 297 296 295 295 295 295 295 295 295 296 299 305 314 325 327 328 328 327 328 327 325
311 315 315 317 317 316 318 318 318 319 321 323 319 318 314 310 308 305 303 301 300 299 297 296 295 294 293 293 293 294 294 294 295 296 297 300 307 320 325 326 326 326 326 325
311 315 314 319 313 315 316 313 313 315 319 319 317 316 309 306 304 302 300 299 299 299 296 294 293 293 292 292 291 291 292 293 293 294 295 296 298 304 308 313 320 319 322 323
312 312 314 317 313 315 317 313 312 311 311 313 315 313 306 302 299 298 298 297 297 296 296 293 292 292 291 290 290 290 290 291 293 292 292 294 295 295 296 298 303 300 300 303
309 310 313 311 313 319 310 309 310 308 307 308 309 305 302 298 296 295 295 296 297 296 295 292 291 291 291 290 289 289 289 289 290 292 291 290 293 293 293 293 292 294 292 292
308 311 313 315 316 315 310 305 306 311 307 305 305 305 300 298 297 294 293 294 295 294 293 291 290 289 290 289 290 289 288 288 288 288 289 290 290 291 292 291 291 290 291 289
310 311 313 314 315 315 306 302 302 306 305 304 301 300 300 302 302 295 293 292 294 293 292 290 289 288 289 289 289 288 287 287 287 287 287 288 289 289 290 290 289 289 289 288
308 308 310 311 313 307 301 301 302 309 304 303 300 297 295 295 294 292 291 292 292 292 291 289 288 287 287 288 288 288 287 286 285 285 285 286 287 288 288 289 289 289 288 288
308 310 307 307 308 306 299 301 302 302 300 301 300 297 295 294 292 291 291 291 291 291 290 289 287 286 286 286 288 287 287 286 284 283 283 284 284 285 286 287 287 287 287 286
307 307 304 304 303 300 298 299 299 299 299 299 299 296 295 294 292 289 290 291 290 289 288 287 286 285 284 284 284 285 287 286 284 283 282 281 282 282 283 284 284 284 284 284
307 306 301 303 301 299 298 298 297 298 297 296 296 297 296 295 294 293 292 288 288 287 286 285 284 284 283 283 283 284 285 287 286 284 282 281 280 280 280 281 281 282 282 282
303 303 304 302 300 297 296 295 296 295 296 296 294 293 294 293 292 290 289 287 286 286 285 284 283 282 282 281 282 283 284 285 286 285 285 282 280 279 279 279 280 280 280 280
300 300 303 300 300 298 296 295 294 294 294 293 292 290 288 289 289 286 285 284 283 283 283 282 281 280 280 280 280 281 283 283 284 284 284 284 283 281 279 279 279 279 280 280

GFSCGP_925_thetae_108.txt.gz
Theta_e
303 303 301 300 301 308 306 303 302 302 303 308 309 309 318 316 314 316 316 314 317 316 314 315 317 317 316 315 324 340 341 341 341 341 340 339 338 338 337 335 336 335 335 337
304 305 306 307 306 302 304 309 307 304 304 305 315 318 317 317 318 317 316 316 316 314 316 315 316 315 316 314 329 337 340 340 340 341 340 339 337 337 337 337 338 336 333 334
306 305 305 308 308 307 301 302 309 308 304 306 316 317 317 316 317 318 318 317 317 317 320 320 318 317 319 321 333 340 340 339 339 339 340 339 337 336 335 336 336 336 334 334
304 305 305 308 308 308 306 304 308 311 307 306 317 316 318 317 318 318 318 318 320 319 317 315 314 312 312 314 317 327 340 338 338 337 338 337 336 335 335 334 334 335 335 335
307 306 307 308 309 309 308 305 308 309 305 308 315 321 318 319 321 319 318 319 316 313 312 310 308 307 307 308 310 313 319 327 335 336 336 337 336 335 334 333 333 333 333 333
308 307 308 307 305 306 308 311 311 312 309 308 309 320 317 321 320 325 319 315 312 308 306 305 304 304 304 305 305 308 311 314 317 327 335 335 335 333 332 332 331 331 331 330
308 308 304 307 308 307 309 312 312 312 315 316 315 321 318 325 325 320 314 310 308 305 303 302 301 301 302 302 302 304 304 307 314 316 326 334 333 332 333 331 331 330 330 330
308 308 309 311 309 307 312 311 313 320 322 319 318 321 322 319 315 312 309 306 305 303 302 300 300 300 300 300 300 300 302 304 306 315 319 331 334 332 332 331 331 330 330 330
314 311 308 308 307 309 311 314 312 318 318 314 318 322 320 316 314 310 307 305 304 302 301 300 299 299 299 299 299 299 300 301 304 309 318 323 333 332 333 332 332 331 330 330
313 313 310 314 313 313 312 313 314 313 313 314 321 322 325 316 312 308 307 305 303 302 300 299 299 298 298 298 298 298 299 299 302 308 319 320 333 333 333 332 331 331 330 329
315 311 316 314 316 316 313 315 317 317 319 320 324 322 316 312 310 306 305 304 302 301 299 299 298 297 296 296 297 297 298 298 300 304 320 331 333 332 333 332 331 330 329 329
312 314 317 316 315 314 316 317 317 317 319 321 322 315 307 309 307 305 304 302 300 299 298 297 296 296 296 295 295 296 296 297 298 301 311 327 329 331 330 330 329 328 328 327
312 316 315 316 317 316 318 316 317 319 318 322 322 315 308 309 306 304 303 301 300 298 297 296 295 295 294 294 294 293 295 295 297 299 302 310 318 327 329 328 327 327 327 326
311 314 314 315 315 312 318 320 319 319 322 319 319 315 311 308 306 304 302 301 299 298 296 295 294 294 293 293 293 293 292 294 295 296 297 298 302 310 323 327 327 327 326 325
311 313 313 316 315 316 315 316 318 321 317 317 315 312 309 306 304 302 301 299 299 297 295 294 294 293 292 292 291 291 292 292 293 294 294 295 297 301 308 318 326 325 324 324
310 313 312 316 314 313 313 311 313 315 314 314 311 307 304 302 300 299 298 298 297 295 293 292 293 292 292 291 290 290 290 290 291 293 293 293 294 295 296 298 303 318 321 321
310 311 314 316 314 314 310 309 309 308 309 311 312 307 302 299 297 297 297 297 296 294 292 291 291 291 290 290 290 289 289 290 290 289 291 292 292 292 292 293 293 296 301 307
311 309 313 314 315 310 308 305 306 305 304 305 306 303 298 296 295 294 294 295 295 292 291 289 289 290 289 289 289 288 287 288 288 288 288 289 291 291 291 292 290 291 290 290
309 310 314 316 315 311 307 303 303 307 305 302 303 302 298 296 295 293 293 293 293 291 289 288 288 288 289 288 288 286 286 286 286 286 287 287 288 290 291 289 289 290 290 289
308 308 313 314 311 312 305 300 301 302 304 301 298 298 297 300 299 294 292 292 292 289 288 287 287 287 287 288 287 287 285 284 284 284 284 287 287 287 288 288 289 288 287 287
308 308 307 309 309 306 299 299 301 308 303 301 297 295 294 294 293 292 291 290 290 289 287 286 285 285 285 285 286 287 285 283 283 283 284 285 286 286 287 287 287 287 286 286
307 308 305 306 305 304 299 300 301 301 300 300 297 295 294 292 292 290 291 287 288 287 286 285 284 283 283 284 284 286 286 284 282 282 282 282 283 284 285 285 285 285 285 284
306 304 303 303 302 299 299 299 299 299 299 299 297 295 294 293 292 289 286 285 286 285 284 283 283 283 282 282 283 284 286 285 284 282 281 281 281 281 282 282 282 283 283 283
306 303 300 300 300 298 298 297 297 296 296 294 295 296 296 294 292 288 286 285 285 284 283 282 282 282 281 281 281 282 284 285 285 283 281 281 280 280 280 281 281 281 281 282
300 301 302 300 298 297 295 295 294 294 294 291 289 289 291 288 287 285 285 284 283 282 282 281 280 280 280 280 281 282 282 284 284 283 283 281 280 279 280 280 280 281 281 281
300 300 302 299 299 298 296 294 294 291 290 290 288 287 286 286 285 283 283 282 281 281 280 279 278 278 278 278 279 281 282 282 282 282 282 282 281 280 279 279 279 280 280 281

GFSCGP_925_thetae_111.txt.gz
Theta_e
302 304 303 302 300 300 300 300 300 304 306 304 302 301 302 304 308 312 314 311 312 314 311 312 313 312 312 318 339 341 342 342 341 340 339 339 340 339 339 338 337 337 336 335
304 304 302 304 305 306 305 305 304 303 303 307 307 303 303 305 313 312 314 313 311 314 315 318 316 317 317 318 313 334 340 341 341 340 339 338 339 337 338 337 337 337 336 335
303 303 303 303 304 303 305 307 306 305 302 307 309 308 304 306 311 314 315 316 316 317 316 314 311 309 309 310 315 332 338 339 339 339 338 338 337 336 335 337 337 337 337 335
304 304 303 303 304 304 307 307 307 305 305 306 307 307 305 308 311 315 315 316 314 311 309 308 307 306 306 306 310 317 336 338 339 339 338 337 336 336 335 334 334 334 336 335
309 305 305 306 306 307 307 308 308 306 305 309 310 309 307 316 318 319 316 311 307 305 304 304 304 304 303 304 305 308 315 324 332 338 339 337 336 336 336 335 334 335 336 336
307 306 307 307 307 306 307 308 309 308 308 312 308 309 309 314 320 315 310 306 305 303 301 301 301 301 301 301 302 304 307 311 316 324 334 336 335 335 335 334 333 333 334 335
309 307 307 308 309 306 307 310 308 313 306 311 308 310 309 317 314 312 309 305 303 302 301 300 299 299 300 299 299 301 302 306 311 314 319 329 335 335 334 333 333 331 331 332
311 310 307 310 306 306 309 309 312 314 318 317 316 318 318 311 308 308 306 304 303 301 301 300 299 298 298 298 298 299 300 302 306 309 313 317 329 334 333 332 332 331 330 331
313 310 308 308 308 307 310 312 311 315 316 320 320 321 313 310 307 304 305 304 303 302 301 299 298 297 297 297 298 298 299 300 303 307 310 313 317 330 333 332 331 331 331 330
314 314 310 313 312 309 311 313 317 317 319 310 319 319 315 309 308 304 302 302 301 300 299 298 297 297 296 296 296 297 297 299 300 303 309 312 316 320 333 332 331 330 330 330
312 312 313 313 316 316 314 313 315 316 315 315 316 316 310 308 306 304 302 300 299 298 297 297 296 296 295 295 295 294 295 297 298 300 304 310 322 322 332 331 330 331 330 330
311 314 314 315 315 314 315 315 316 315 317 319 317 313 305 306 305 303 302 299 298 297 296 295 295 294 294 294 294 294 293 295 296 297 300 303 310 320 330 330 329 330 329 329
311 313 315 312 314 314 316 315 317 318 318 318 318 313 307 305 304 303 302 298 297 296 296 295 294 294 293 293 292 293 293 293 294 295 297 298 300 307 314 319 328 328 327 327
310 313 314 315 314 315 316 317 318 318 319 315 313 310 307 305 303 302 300 298 295 294 294 294 293 293 292 292 291 291 291 292 292 294 294 295 296 298 302 307 317 325 326 325
310 312 314 312 312 310 311 314 319 318 314 313 310 307 304 302 301 301 298 297 295 293 292 293 292 292 291 291 290 290 290 290 291 291 292 293 294 295 298 301 306 313 322 324
310 311 311 313 309 308 308 308 308 313 311 309 306 304 300 300 298 298 297 296 293 292 290 291 291 290 290 290 289 288 288 289 289 290 290 291 292 292 295 294 296 298 299 307
310 311 313 314 313 311 307 306 306 306 305 309 308 303 299 297 296 296 295 294 292 290 289 289 290 290 289 289 287 287 286 287 287 287 289 289 290 291 291 293 294 294 293 293
309 310 314 314 314 310 306 303 306 303 302 304 302 299 297 295 294 294 294 294 291 289 288 288 288 288 288 287 287 285 285 285 285 285 286 287 288 289 289 289 290 292 293 292
308 310 314 316 311 309 306 302 302 305 303 300 302 299 297 295 296 292 293 292 289 288 287 286 286 286 286 286 287 284 283 283 283 284 284 284 286 287 288 288 288 288 289 290
308 306 311 313 311 310 303 299 300 301 304 299 298 297 297 298 297 292 292 291 289 287 285 284 284 285 284 285 286 284 283 282 282 282 282 284 284 285 286 287 286 286 286 286
307 307 307 309 308 305 299 300 301 307 303 299 296 294 292 293 292 292 288 286 286 285 284 283 283 283 283 283 285 285 284 282 282 282 282 283 283 283 284 285 286 286 286 286
305 307 304 305 303 303 297 300 301 300 299 297 295 293 292 292 290 287 285 283 284 284 283 283 282 282 281 281 283 284 285 284 282 282 281 281 282 282 283 283 284 284 284 285
305 302 303 302 300 299 299 298 298 297 296 299 295 293 293 290 287 283 282 282 283 282 281 281 281 281 281 281 280 282 283 284 283 282 281 281 281 281 281 282 282 282 283 283
303 302 300 298 299 297 297 294 295 296 292 291 295 295 293 288 286 284 284 283 282 281 280 280 280 279 279 279 280 280 281 283 283 283 281 280 280 280 280 281 281 282 282 282
300 301 300 298 297 295 294 293 293 292 290 288 288 288 287 286 285 284 283 282 281 280 279 278 278 278 278 278 279 280 281 282 282 282 282 281 280 279 279 280 280 281 281 282
299 300 301 296 297 296 293 293 291 290 289 288 286 285 284 284 283 282 281 281 279 279 278 277 276 276 276 277 278 279 281 281 281 281 281 281 280 279 279 279 279 279 279 280

GFSCGP_925_thetae_114.txt.gz
Theta_e
300 300 301 300 299 301 300 300 300 300 301 300 301 302 303 303 303 302 302 303 306 309 310 314 314 312 320 331 339 340 340 341 339 338 337 336 337 337 336 335 334 333 334 335
302 303 302 301 301 303 304 304 304 303 302 304 303 303 302 304 304 304 304 303 308 308 316 312 309 308 311 313 317 337 341 340 339 339 339 337 337 337 336 336 336 335 335 334
302 303 302 302 302 302 303 303 302 302 304 305 304 302 303 304 303 304 305 307 312 312 310 309 307 304 305 306 311 320 335 341 340 339 338 337 337 336 336 336 336 336 336 336
303 303 304 303 303 302 303 302 303 305 307 308 304 307 306 303 304 306 309 306 305 304 304 304 303 302 301 302 307 316 332 338 338 339 338 337 337 336 336 336 335 335 336 336
307 306 306 307 306 303 304 305 306 306 308 308 307 309 306 307 309 313 309 306 303 301 300 300 300 301 300 300 302 308 315 326 331 337 338 337 336 336 336 335 334 335 336 335
305 305 306 306 306 305 305 306 307 308 308 310 307 307 307 318 318 312 309 306 305 302 300 300 299 299 299 299 301 302 307 311 319 326 333 336 336 336 334 334 334 334 334 334
308 307 305 307 308 306 305 307 308 309 312 312 307 306 311 312 311 308 307 306 303 303 301 300 299 299 299 299 299 300 302 304 309 313 317 325 332 335 335 334 333 333 332 332
312 310 305 305 306 305 305 307 312 315 315 317 312 314 312 308 305 305 304 304 302 302 301 300 298 297 297 297 297 298 299 301 304 309 311 313 321 328 333 334 333 332 332 332
310 310 308 308 308 307 308 309 311 314 314 316 320 313 310 307 305 303 301 302 301 300 300 299 298 297 296 296 296 296 297 299 300 302 307 312 315 318 326 332 333 332 332 332
308 314 309 309 312 307 309 310 316 315 318 317 317 313 311 306 305 302 300 299 299 299 298 297 296 295 295 295 295 295 295 297 298 299 302 305 311 317 319 325 331 332 331 331
305 312 311 310 313 313 314 313 315 316 315 318 316 312 308 305 303 301 300 299 298 298 297 296 295 294 294 294 293 293 293 294 296 297 299 302 305 313 319 319 330 330 330 330
307 313 311 311 310 313 314 315 315 318 316 318 316 309 304 304 303 302 298 297 296 296 295 293 293 293 293 292 292 292 292 293 293 295 296 298 301 305 311 319 321 330 330 329
310 312 313 311 312 313 314 314 314 316 318 315 316 310 306 304 302 300 297 295 294 294 294 293 292 292 292 291 291 291 291 291 292 292 294 295 296 298 300 306 313 322 326 328
309 314 314 311 312 310 310 315 317 317 315 311 309 307 304 302 300 299 296 295 293 292 292 292 291 291 290 289 290 289 289 290 290 291 292 293 293 294 295 299 304 312 319 321
310 313 311 310 308 307 306 311 311 310 309 308 306 303 301 299 298 297 295 293 292 291 291 291 291 290 290 288 288 288 288 288 289 289 290 291 291 292 293 294 297 302 308 311
308 310 311 313 312 311 305 305 305 308 308 305 303 301 299 297 296 296 294 292 291 290 290 290 290 289 288 288 286 286 286 286 287 288 288 289 290 290 290 291 292 294 298 301
307 311 312 315 310 309 305 304 303 303 304 307 304 301 298 295 294 294 293 291 289 289 288 288 288 287 287 287 284 284 284 285 285 286 286 287 288 289 289 289 289 290 291 294
307 311 313 315 312 309 304 302 303 301 300 302 299 297 295 294 293 292 291 290 288 287 287 286 286 286 285 286 284 283 283 283 283 283 284 284 286 287 287 287 287 288 288 289
306 310 313 315 311 308 305 301 301 303 301 299 301 299 297 295 294 291 291 288 287 285 284 284 284 284 283 284 285 283 282 281 281 281 282 282 283 284 286 286 286 286 287 287
306 305 310 311 310 308 301 298 300 301 303 297 296 295 296 298 295 290 287 285 285 284 283 283 282 282 282 283 285 284 282 281 280 280 281 282 282 283 284 285 286 285 286 286
305 307 307 308 307 304 298 299 301 306 301 296 294 292 291 292 290 287 285 283 283 283 282 282 281 281 281 281 283 284 284 282 281 281 281 282 282 282 283 284 285 285 285 285
303 305 304 306 305 305 298 300 301 300 297 295 293 292 292 288 286 284 282 281 282 281 280 280 280 280 279 280 281 282 282 283 282 281 281 281 281 282 282 283 283 284 284 284
305 302 303 301 300 298 297 297 296 295 298 295 294 292 289 287 283 281 280 280 281 280 279 279 279 279 278 278 278 279 280 282 283 281 280 280 280 280 280 281 282 282 282 282
303 301 300 299 298 297 295 294 294 292 291 293 294 291 287 286 284 282 282 281 280 279 278 278 278 278 277 278 278 278 279 281 282 282 281 280 280 279 280 280 280 281 282 282
300 300 300 298 296 295 294 292 291 290 288 287 286 286 286 285 283 282 281 280 279 278 277 277 277 277 276 277 278 279 279 280 281 281 281 280 279 279 279 279 279 279 280 281
299 300 301 299 297 295 294 292 291 289 287 286 285 284 283 283 282 281 281 279 278 277 276 275 275 275 275 276 276 278 279 279 279 280 280 280 280 279 278 278 278 278 278 279

GFSCGP_925_thetae_117.txt.gz
Theta_e
301 303 304 304 302 303 303 303 302 302 303 303 303 303 304 306 306 305 304 305 305 304 305 305 312 313 312 315 329 338 339 337 335 334 334 334 333 333 333 334 334 333 334 335
304 306 306 303 303 303 303 303 304 304 303 303 304 305 306 306 306 306 305 304 305 305 306 307 311 309 309 311 317 338 340 339 336 335 335 335 334 334 333 333 334 333 332 333
307 307 303 303 304 304 304 304 304 304 304 304 306 307 306 306 306 306 305 306 307 309 309 310 308 306 306 307 310 318 339 340 338 338 337 336 335 335 335 334 334 334 332 332
306 304 304 305 307 305 306 304 303 304 306 308 307 310 308 308 311 311 309 306 304 304 304 304 304 304 303 304 306 312 327 338 339 338 338 337 337 336 336 335 334 335 334 333
308 307 308 309 309 304 305 304 306 307 308 308 308 310 307 312 311 310 306 306 304 303 303 303 302 302 302 302 304 307 313 323 333 338 338 337 337 337 336 336 335 334 335 333
307 306 307 307 307 306 306 307 308 308 309 311 309 309 310 309 307 306 304 304 304 303 302 301 300 300 300 300 302 304 308 309 319 327 332 336 337 337 336 336 335 335 334 335
308 308 306 306 308 306 307 309 313 312 313 312 313 311 310 308 305 304 301 301 302 301 301 301 300 299 298 298 299 301 304 305 307 313 320 325 331 334 335 335 335 334 333 333
309 309 307 306 308 310 308 308 313 315 314 315 314 314 309 307 303 301 301 298 299 299 299 300 299 297 297 297 297 297 300 302 303 306 309 314 320 323 328 334 334 335 333 333
307 309 308 308 309 309 310 311 310 315 314 316 316 311 309 303 302 301 300 298 297 297 297 297 298 296 296 296 295 296 297 298 299 302 304 307 311 316 318 324 330 333 333 332
306 311 308 309 310 310 310 310 318 315 318 316 317 311 307 304 303 300 298 297 296 296 295 296 295 295 294 294 294 294 294 295 297 298 300 302 304 310 315 318 322 328 331 332
304 306 309 310 312 312 312 314 316 318 317 320 319 311 306 304 301 299 297 296 295 294 294 293 294 293 293 292 292 292 293 294 294 295 297 298 300 303 308 312 316 320 329 330
306 311 309 310 309 312 313 314 316 316 317 318 313 308 304 303 301 298 296 294 294 293 293 292 292 291 291 291 291 291 291 292 292 293 294 295 296 298 300 303 310 317 325 328
308 311 313 310 312 306 310 312 314 316 317 319 316 309 304 300 299 297 295 293 293 292 292 291 291 291 289 289 289 289 289 290 291 292 292 293 293 294 295 298 301 308 316 323
308 311 311 310 309 309 307 309 313 317 315 308 307 304 301 299 298 295 294 292 292 291 291 290 290 289 288 287 287 287 288 289 290 291 290 291 291 292 292 294 296 299 303 311
308 311 311 311 309 307 306 305 307 308 308 306 304 301 299 298 297 294 293 292 291 290 290 289 288 288 287 286 286 286 286 287 288 288 289 289 290 290 291 291 292 293 295 298
308 310 311 312 312 311 306 304 304 307 305 303 302 300 297 296 294 293 291 290 289 289 288 288 288 287 287 286 285 284 285 286 286 287 287 288 289 289 289 289 289 290 291 292
305 307 311 313 312 309 308 304 303 303 303 305 304 300 296 294 293 291 290 289 288 287 287 287 286 285 286 286 284 284 284 285 285 285 285 286 287 287 288 288 288 288 288 289
306 306 310 314 312 312 306 302 302 300 300 301 299 297 295 293 292 290 288 288 287 286 286 285 284 284 284 286 284 283 283 283 283 283 283 283 285 287 287 287 287 287 287 286
304 307 310 314 311 308 305 301 302 303 300 298 299 299 295 293 294 289 287 286 285 285 284 284 283 283 283 284 285 284 282 282 282 282 281 282 283 284 285 285 286 286 286 286
306 306 309 311 313 312 302 299 300 301 302 296 295 295 294 298 297 291 286 284 284 283 283 283 282 282 282 282 284 284 284 282 281 281 281 281 282 282 283 283 284 285 286 285
305 306 306 307 308 303 298 300 301 306 302 295 293 293 293 292 290 287 285 283 282 282 282 282 282 281 280 281 282 283 283 283 281 281 281 281 281 282 282 283 283 284 285 285
303 304 304 305 307 306 298 301 303 299 296 294 294 292 290 288 287 285 283 282 281 281 281 281 281 280 280 280 281 281 282 283 283 281 281 281 281 281 281 282 283 283 283 284
304 302 302 301 300 297 298 297 296 298 296 294 293 290 289 287 285 283 282 281 280 280 280 280 280 280 279 279 279 280 280 282 282 282 281 281 281 281 281 281 282 283 283 283
302 301 300 300 298 297 295 295 292 292 293 294 291 289 288 287 285 284 283 281 280 279 278 278 279 279 278 278 278 278 279 281 282 282 282 281 280 280 280 281 281 281 282 282
300 301 300 298 296 295 294 293 291 290 289 288 287 287 286 285 284 283 281 280 279 278 277 277 277 277 277 277 277 277 278 280 281 281 281 281 280 280 279 279 279 280 279 280
299 300 301 300 297 296 294 292 291 289 288 287 286 284 283 283 282 282 281 279 278 277 276 276 276 275 275 275 275 276 277 278 279 280 280 279 280 279 279 278 278 277 277 277

GFSCGP_925_thetae_120.txt.gz
Theta_e
307 308 308 307 307 307 306 307 308 308 308 307 307 307 308 309 309 309 309 309 309 309 309 306 306 307 307 308 314 315 316 329 338 337 336 334 335 334 335 336 336 337 337 336
309 311 307 307 307 307 308 308 309 308 307 307 308 309 310 309 312 313 313 312 311 311 310 308 307 307 313 314 314 318 320 324 337 338 336 334 335 334 334 335 335 337 335 336
311 309 307 308 309 309 310 309 309 308 308 310 310 311 311 311 310 308 308 308 308 309 309 310 312 312 312 313 314 316 326 326 335 337 338 336 335 335 335 334 335 336 336 336
310 309 308 309 310 311 311 307 306 307 310 313 311 315 312 311 309 306 306 304 305 304 305 305 306 306 306 307 308 314 323 332 337 338 338 337 337 337 337 336 335 335 335 336
311 310 310 312 311 308 309 309 308 309 312 313 313 314 313 309 307 305 303 302 301 301 302 302 302 301 302 301 303 309 314 322 334 339 338 338 339 339 339 338 337 336 334 336
311 309 309 311 310 310 309 310 312 313 313 316 314 315 315 309 306 303 303 300 299 298 299 300 300 300 299 299 300 304 309 310 318 325 335 338 338 340 340 339 338 336 335 334
310 311 310 309 311 312 310 314 317 317 320 314 315 316 311 307 306 304 302 300 298 297 296 297 298 299 299 298 298 301 304 306 309 312 316 324 335 336 339 339 339 337 336 334
311 312 311 310 311 312 312 314 315 318 318 318 314 317 312 305 303 301 299 298 297 296 295 294 294 296 296 297 297 298 300 302 305 307 311 314 316 322 328 333 334 338 336 335
311 313 309 309 310 312 313 314 313 316 317 319 319 313 308 305 303 300 298 296 296 295 294 293 294 294 295 295 295 296 298 299 300 303 306 308 310 312 315 321 327 332 336 335
308 313 309 310 311 312 313 313 316 319 321 321 320 314 310 305 302 301 298 296 295 294 293 292 293 292 293 293 293 293 295 296 297 299 301 303 304 306 308 313 318 322 326 332
307 310 311 310 312 312 313 315 315 317 317 320 321 315 307 304 301 299 296 295 294 294 292 291 291 290 290 291 291 292 293 294 295 296 297 298 300 301 302 304 307 312 318 325
308 311 312 312 311 309 310 313 316 320 319 320 320 313 304 301 300 297 296 294 294 293 292 290 290 289 288 289 290 290 292 293 293 294 294 294 295 296 297 298 300 304 309 319
310 312 314 313 314 310 309 308 309 312 318 319 321 312 303 300 299 297 295 294 293 292 292 290 289 289 288 287 288 290 290 292 293 293 293 293 293 293 294 295 296 298 301 307
308 311 314 314 311 309 309 308 309 317 322 314 311 306 302 300 297 296 294 293 292 291 291 290 290 289 287 287 287 288 290 291 292 293 294 292 292 292 292 292 293 294 295 297
309 311 312 311 310 311 308 307 309 309 312 314 307 303 300 298 296 294 293 292 292 291 290 289 289 289 288 287 286 288 289 289 290 291 291 292 291 291 291 291 291 291 291 293
309 313 313 313 314 313 308 306 307 308 307 305 304 301 298 296 294 293 292 291 290 290 289 288 288 287 287 287 287 286 287 287 289 289 289 290 291 290 289 290 290 290 289 290
309 309 311 314 314 311 312 306 306 305 304 307 308 301 297 296 294 291 291 291 290 289 288 287 287 286 286 287 286 286 286 286 287 287 288 288 289 290 289 289 288 288 288 288
308 307 309 314 314 317 308 304 303 303 302 302 301 299 297 294 292 290 289 289 289 288 288 287 286 285 285 286 286 286 285 285 285 285 285 286 287 288 288 289 289 288 288 287
306 307 310 313 317 309 306 304 305 306 302 300 301 299 297 294 295 291 288 288 287 287 286 286 285 285 285 285 285 285 285 284 284 284 284 284 285 286 286 286 287 287 287 287
306 307 310 311 315 314 305 301 301 303 306 299 299 299 299 298 302 294 288 286 286 286 285 285 285 284 284 285 285 285 285 285 284 283 283 283 283 284 284 285 285 286 286 286
309 308 309 311 312 306 300 301 302 308 305 298 298 297 298 297 294 288 287 285 285 285 285 285 285 284 284 284 285 284 284 284 285 284 284 283 283 283 284 284 285 285 285 285
306 307 308 308 310 310 299 302 306 300 298 298 297 295 293 290 288 286 285 284 285 285 284 284 285 284 283 283 284 284 284 285 285 285 284 284 284 284 284 284 285 285 285 285
307 305 306 304 303 299 298 299 299 298 297 297 296 294 293 290 287 285 285 284 284 284 284 284 284 283 283 282 282 283 282 284 285 285 285 284 284 284 284 284 284 284 285 285
303 302 303 302 299 298 296 296 297 297 296 295 294 293 292 290 287 286 286 285 284 283 283 283 283 282 282 281 281 281 282 283 284 284 284 284 284 284 283 283 283 282 282 282
303 303 302 300 298 297 296 295 294 294 292 292 291 291 290 289 288 286 286 284 283 282 281 281 280 280 280 280 280 280 280 282 282 283 282 282 283 282 282 282 280 280 279 278
301 302 304 305 298 299 296 294 292 292 291 290 289 288 287 287 286 285 284 283 282 280 280 280 279 278 278 277 278 278 278 280 280 281 281 281 282 281 281 281 281 279 277 275

GFSCGP_925_thetae_123.txt.gz
Theta_e
311 311 312 312 311 310 310 311 312 312 311 310 311 311 311 312 314 314 312 311 311 311 310 309 311 311 310 308 308 309 310 314 318 333 339 339 339 337 337 336 337 341 339 339
311 313 312 310 310 310 311 313 313 312 311 310 311 313 313 312 314 311 310 309 308 306 306 306 306 310 312 314 314 314 315 316 318 320 338 338 338 336 336 335 337 340 339 338
312 312 310 308 310 312 313 314 314 311 310 311 313 313 313 314 313 310 308 307 305 302 302 303 303 303 306 308 309 313 314 314 317 321 337 338 338 336 336 335 337 339 340 337
312 312 310 310 311 313 314 313 310 311 312 314 313 317 315 314 312 309 307 305 302 301 301 299 300 300 301 302 303 305 308 313 317 322 330 338 338 337 336 335 336 338 339 338
313 312 311 312 313 312 312 313 313 314 315 316 315 317 316 313 311 308 306 303 300 299 299 297 297 296 298 299 299 300 304 312 314 318 326 338 337 338 336 336 336 337 339 338
312 312 311 312 313 312 313 314 315 317 317 318 317 316 317 311 307 306 303 301 299 298 297 297 295 294 296 297 298 298 303 308 309 315 331 338 337 339 337 338 339 339 338 337
313 313 312 312 313 313 314 315 318 317 320 319 316 316 314 309 305 303 302 300 298 297 296 295 293 293 293 295 296 298 301 304 306 312 317 325 336 337 339 340 340 339 337 336
311 316 313 312 312 313 313 314 316 316 318 317 315 319 314 307 305 302 300 299 297 297 295 293 292 292 291 293 294 297 300 302 304 308 311 313 317 327 326 326 325 336 336 336
312 313 312 311 311 312 315 314 316 320 317 323 320 317 311 307 305 301 299 298 296 295 294 292 291 291 290 291 292 295 298 299 300 302 306 308 310 314 321 320 323 326 328 334
312 317 311 311 312 313 314 313 317 319 323 322 319 318 315 306 303 301 299 297 296 294 293 292 290 290 290 290 291 294 296 297 297 299 302 303 304 305 309 314 314 315 321 326
310 313 313 312 314 313 315 316 317 317 317 322 322 317 306 304 301 299 298 297 295 294 293 291 290 289 289 289 290 292 295 296 296 296 296 297 299 300 301 303 305 307 311 317
310 313 314 313 312 311 311 313 313 319 318 321 327 315 304 302 300 298 297 296 294 293 292 291 290 289 288 288 290 291 291 294 295 295 295 296 296 296 296 296 298 300 302 304
311 313 317 316 315 313 312 311 310 311 313 318 321 314 303 301 299 297 296 295 294 293 292 291 289 289 289 288 288 290 292 292 292 295 295 294 294 293 293 294 294 295 296 298
309 312 315 319 316 312 312 310 309 312 318 323 314 308 303 301 299 296 296 294 294 293 291 291 290 289 289 288 288 289 290 291 292 293 294 293 292 293 293 292 292 292 293 293
310 313 312 313 312 312 310 309 310 309 313 315 310 306 301 299 298 296 295 295 293 292 291 290 290 289 288 289 289 289 289 290 291 291 292 293 294 292 292 291 290 290 291 291
310 314 315 314 313 312 314 308 309 309 308 307 306 304 299 298 297 295 295 294 293 292 290 289 288 287 288 288 288 288 288 288 289 289 290 292 292 292 291 290 290 289 289 289
312 312 312 315 314 313 316 309 309 307 306 309 311 304 300 299 297 294 293 293 292 291 290 289 288 287 287 287 288 287 288 287 287 287 288 289 290 290 291 291 290 289 288 288
310 310 310 313 315 316 309 307 307 307 305 304 303 301 300 298 295 293 292 291 291 290 290 290 288 287 287 287 287 287 286 287 286 286 286 287 288 288 289 289 289 289 288 288
308 309 312 314 314 311 308 306 306 307 306 303 303 301 299 297 296 293 290 290 290 290 289 289 289 288 288 288 287 287 286 286 286 285 285 285 286 287 287 287 287 288 287 287
308 309 311 312 313 316 310 304 304 305 308 302 302 301 300 299 302 297 290 288 289 290 289 289 288 288 288 288 287 287 287 287 286 286 286 285 285 285 286 286 286 287 287 287
310 310 312 312 312 309 302 302 303 309 308 301 301 301 302 300 295 291 289 288 288 289 288 289 288 287 287 287 287 287 288 288 288 287 286 286 285 286 285 286 286 286 287 286
310 310 310 310 310 311 300 303 307 303 301 300 299 298 296 293 290 288 287 287 288 289 288 288 288 287 286 286 286 286 286 287 287 288 287 287 287 286 286 286 285 285 286 286
308 307 309 307 306 300 299 302 301 300 299 299 297 296 294 292 289 287 287 287 287 288 288 287 287 286 285 284 284 285 285 286 286 286 286 287 285 286 286 285 285 283 283 284
305 304 305 304 300 299 299 300 299 298 297 296 296 295 293 291 290 289 289 288 288 286 286 285 285 284 283 283 282 282 283 284 285 285 285 285 285 285 285 284 283 282 280 281
306 304 303 302 300 299 298 298 297 296 295 294 294 294 293 292 291 290 289 287 286 285 284 283 283 282 281 281 280 280 281 282 283 283 284 283 284 284 284 283 282 281 278 277
303 304 305 309 301 301 297 296 295 294 293 292 291 291 290 290 289 288 287 286 285 284 283 282 281 281 280 279 278 278 278 280 280 282 282 282 283 283 283 282 283 280 279 277

GFSCGP_925_thetae_126.txt.gz
Theta_e
312 312 312 312 313 312 311 310 310 312 313 312 311 311 310 312 315 314 311 310 308 307 305 304 303 302 303 304 306 309 310 313 315 311 320 335 338 336 339 340 341 341 340 340
313 312 312 313 311 310 310 311 312 313 313 312 311 310 311 313 313 311 309 308 306 304 303 302 301 299 300 301 302 304 305 307 309 314 317 322 333 336 337 340 339 342 340 340
312 313 313 311 311 309 311 313 313 313 311 311 312 312 312 314 312 310 307 305 303 302 301 300 299 298 298 298 299 300 301 302 305 308 314 316 318 333 335 338 338 342 341 341
311 312 312 312 311 311 312 313 312 312 313 314 313 317 315 315 313 309 306 303 301 300 299 299 298 297 296 296 297 298 299 300 302 306 310 316 318 321 334 337 337 341 342 340
310 313 312 310 310 312 314 313 313 313 314 316 317 318 315 314 312 308 304 302 299 299 298 297 295 294 294 294 295 295 297 298 301 304 310 312 314 318 323 336 337 339 342 340
312 312 312 311 312 313 313 313 314 315 316 320 317 319 317 311 308 306 303 300 298 298 297 295 293 292 292 292 292 293 294 298 300 304 307 312 316 319 321 335 336 339 342 339
312 312 311 311 312 313 313 315 317 316 320 319 315 316 316 309 306 304 302 299 297 297 295 294 292 291 291 291 291 291 293 297 300 302 307 313 317 323 329 334 336 338 341 340
310 314 313 313 313 313 314 314 315 315 318 320 315 317 312 307 304 302 299 298 296 296 295 293 291 291 290 290 290 290 292 295 299 301 306 310 315 318 324 326 326 337 339 339
315 312 313 313 313 311 315 315 315 318 316 320 319 317 312 306 303 301 298 296 296 295 294 292 291 290 289 289 289 289 291 295 298 299 302 304 307 312 313 317 322 319 327 330
312 316 312 312 311 311 312 313 316 319 321 319 316 322 318 306 303 301 298 296 295 294 293 292 290 290 289 289 289 290 292 293 295 298 298 299 300 302 305 313 315 314 318 325
310 313 313 311 312 311 315 316 317 317 318 320 322 317 306 304 301 299 297 296 295 294 292 291 290 289 290 289 289 290 291 292 293 294 295 295 296 297 299 302 302 310 312 312
309 313 314 314 313 313 312 313 313 315 315 318 318 317 304 302 300 298 295 295 295 293 292 291 290 289 289 289 289 289 291 292 292 294 293 294 294 294 294 296 297 297 303 309
311 312 315 316 314 313 312 312 311 311 312 314 316 314 303 301 299 297 296 295 295 293 291 290 290 289 289 289 289 289 289 291 293 293 293 292 292 292 292 292 293 295 297 297
310 312 315 319 320 316 315 312 310 311 316 317 318 308 303 300 298 296 296 296 295 293 291 290 289 288 289 289 289 289 288 289 290 292 292 292 291 291 291 291 291 291 292 292
308 314 313 313 313 314 312 311 310 310 311 316 311 307 301 299 298 296 296 296 294 293 292 290 289 288 288 289 288 289 288 288 289 290 291 291 291 292 291 291 290 289 290 290
308 314 311 313 312 313 315 311 310 310 308 308 307 304 300 298 297 296 295 294 293 292 291 290 289 289 288 288 288 288 288 287 287 288 289 290 290 290 290 290 290 289 288 288
312 312 313 313 314 313 316 314 311 310 309 309 311 306 301 300 297 294 294 293 292 291 291 290 289 289 289 288 288 288 288 287 286 287 287 288 288 289 289 289 289 289 288 287
311 312 312 313 316 318 310 309 308 308 307 305 304 302 301 298 295 293 292 292 291 291 291 291 290 289 289 288 288 288 288 287 287 286 286 287 287 288 288 288 288 288 288 287
305 310 312 312 314 311 309 308 309 308 308 305 304 302 300 297 295 293 291 291 291 291 291 290 289 289 289 288 288 289 288 288 287 287 286 287 286 287 287 287 288 287 287 287
305 311 311 312 312 311 310 307 306 307 311 304 304 302 300 299 302 295 290 289 291 291 290 290 289 288 288 288 288 288 289 289 288 288 287 287 287 286 286 286 286 287 287 286
311 312 311 312 310 309 304 304 304 309 309 303 303 303 301 300 296 291 290 289 290 290 290 289 288 287 286 287 287 287 287 288 287 288 287 286 287 286 286 285 284 284 285 285
311 311 312 312 311 312 302 303 307 305 303 301 300 298 295 293 291 289 288 288 290 290 289 288 287 286 285 285 285 285 285 286 287 286 287 286 286 286 285 284 282 281 282 283
311 309 312 307 306 300 300 303 302 301 301 299 297 295 293 292 290 289 288 288 289 289 288 287 286 285 284 283 283 283 283 284 285 285 285 286 285 285 284 284 282 280 279 279
307 306 307 305 301 300 301 300 300 299 299 297 296 294 292 290 289 289 289 289 288 287 286 285 284 283 282 281 281 281 281 282 284 284 284 284 284 284 284 283 282 280 279 279
307 305 304 303 300 298 299 299 298 297 297 296 295 294 292 291 292 291 289 288 287 286 285 284 283 282 281 280 278 278 279 280 281 283 282 282 283 283 283 282 281 281 279 278
305 306 306 309 302 301 298 297 296 295 294 293 292 292 292 291 290 289 287 286 285 284 283 282 282 281 280 278 276 276 276 278 279 281 281 281 282 282 281 281 282 281 280 279